[[{"header":{"parameterUnit":"m.s-1","parameterCategory":1,"la1":31.0,"la2":29.5877,"lo1":-88.7671,"lo2":-86.6584,"dy":0.0162,"dx":0.0185,"nx":115,"ny":88,"refTime":"2026-03-05T12:00:00:Z","depth":0,"parameterNumber":2,"parameterNumberName":"U-component_of_WINDS"},"data":[0.0,0.0,0.0,0.0,0.0,0.0,0.0,0.0,0.0,0.0,0.0,0.0,0.0,0.0,0.0,0.0,0.0,0.0,0.0,0.0,0.0,0.0,0.0,0.0,0.0,0.0,0.0,0.0,0.0,0.0,0.0,0.0,0.0,0.0,0.0,0.0,0.0,0.0,0.0,0.0,0.0,0.0,0.0,0.0,0.0,0.0,0.0,0.0,0.0,0.0,0.0,0.0,0.0,0.0,0.0,0.0,0.0,0.0,0.0,0.0,0.0,0.0,0.0,0.0,0.0,0.0,0.0,0.0,0.0,0.0,0.0,0.0,0.0,0.0,0.0,0.0,0.0,0.0,0.0,0.0,0.0,0.0,0.0,0.0,0.0,0.0,0.0,0.0,0.0,0.0,0.0,0.0,0.0,0.0,0.0,0.0,0.0,0.0,0.0,0.0,0.0,0.0,0.0,0.0,0.0,0.0,0.0,0.0,0.0,0.0,0.0,0.0,0.0,0.0,0.0,0.0,0.0,0.0,0.0,0.0,0.0,0.0,0.0,0.0,0.0,0.0,0.0,0.0,0.0,0.0,0.0,0.0,0.0,0.0,0.0,0.0,0.0,0.0,0.0,0.0,0.0,0.0,0.0,0.0,0.0,0.0,0.0,0.0,0.0,0.0,0.0,0.0,0.0,0.0,0.0,0.0,0.0,0.0,0.0,0.0,0.0,0.0,0.0,0.0,0.0,0.0,0.0,0.0,0.0,0.0,0.0,0.0,0.0,0.0,0.0,0.0,0.0,0.0,0.0,0.0,0.0,0.0,0.0,0.0,0.0,0.0,0.0,0.0,0.0,0.0,0.0,0.0,0.0,0.0,0.0,0.0,0.0,0.0,0.0,0.0,0.0,0.0,0.0,0.0,0.0,0.0,0.0,0.0,0.0,0.0,0.0,0.0,0.0,0.0,0.0,0.0,0.0,0.0,0.0,0.0,0.0,0.0,0.0,0.0,0.0,0.0,0.0,0.0,0.0,0.0,0.0,0.0,0.0,0.0,0.0,0.0,0.0,0.0,0.0,0.0,0.0,0.0,0.0,0.0,0.0,0.0,0.0,0.0,0.0,0.0,0.0,0.0,0.0,0.0,0.0,0.0,0.0,0.0,0.0,0.0,0.0,0.0,0.0,0.0,0.0,0.0,0.0,0.0,0.0,0.0,0.0,0.0,0.0,0.0,0.0,0.0,0.0,0.0,0.0,0.0,0.0,0.0,0.0,0.0,0.0,0.0,0.0,0.0,0.0,0.0,0.0,0.0,0.0,0.0,0.0,0.0,0.0,0.0,0.0,0.0,0.0,0.0,0.0,0.0,0.0,0.0,0.0,0.0,0.0,0.0,0.0,0.0,0.0,0.0,0.0,0.0,0.0,0.0,0.0,0.0,0.0,0.0,0.0,0.0,0.0,0.0,0.0,0.0,0.0,0.0,0.0,0.0,0.0,0.0,0.0,0.0,0.0,0.0,0.0,0.0,0.0,0.0,0.0,0.0,0.0,0.0,0.0,0.0,0.0,0.0,0.0,0.0,0.0,0.0,0.0,0.0,0.0,0.0,0.0,0.0,0.0,0.0,0.0,0.0,0.0,0.0,0.0,0.0,0.0,0.0,0.0,0.0,0.0,0.0,0.0,0.0,0.0,0.0,0.0,0.0,0.0,0.0,0.0,0.0,0.0,0.0,0.0,0.0,0.0,0.0,0.0,0.0,0.0,0.0,0.0,0.0,0.0,0.0,0.0,0.0,0.0,0.0,0.0,0.0,0.0,0.0,0.0,0.0,0.0,0.0,0.0,0.0,0.0,0.0,0.0,0.0,0.0,0.0,0.0,0.0,0.0,0.0,0.0,0.0,0.0,0.0,0.0,0.0,0.0,0.0,0.0,0.0,0.0,0.0,0.0,0.0,0.0,0.0,0.0,0.0,0.0,0.0,0.0,0.0,0.0,0.0,0.0,0.0,0.0,0.0,0.0,0.0,0.0,0.0,0.0,0.0,0.0,0.0,0.0,0.0,0.0,0.0,0.0,0.0,0.0,0.0,0.0,0.0,0.0,0.0,0.0,0.0,0.0,0.0,0.0,0.0,0.0,0.0,0.0,0.0,0.0,0.0,0.0,0.0,0.0,0.0,0.0,0.0,0.0,0.0,0.0,0.0,0.0,0.0,0.0,0.0,0.0,0.0,0.0,0.0,0.0,0.0,0.0,0.0,0.0,0.0,0.0,0.0,0.0,0.0,0.0,0.0,0.0,0.0,0.0,0.0,0.0,0.0,0.0,0.0,0.0,0.0,0.0,0.0,0.0,0.0,0.0,0.0,0.0,0.0,0.0,0.0,0.0,0.0,0.0,0.0,0.0,0.0,0.0,0.0,0.0,0.0,0.0,0.0,0.0,0.0,0.0,0.0,0.0,0.0,0.0,0.0,0.0,0.0,0.0,0.0,0.0,0.0,0.0,0.0,0.0,0.0,0.0,0.0,0.0,0.0,0.0,0.0,0.0,0.0,0.0,0.0,0.0,0.0,0.0,0.0,0.0,0.0,0.0,0.0,0.0,0.0,0.0,0.0,0.0,0.0,0.0,0.0,0.0,0.0,0.0,0.0,0.0,0.0,0.0,0.0,0.0,0.0,0.0,0.0,0.0,0.0,0.0,0.0,0.0,0.0,0.0,0.0,0.0,0.0,0.0,0.0,0.0,0.0,0.0,0.0,0.0,0.0,0.0,0.0,0.0,0.0,0.0,0.0,0.0,0.0,0.0,0.0,0.0,0.0,0.0,0.0,0.0,0.0,0.0,0.0,0.0,0.0,0.0,0.0,0.0,0.0,0.0,0.0,0.0,0.0,0.0,0.0,0.0,0.0,0.0,0.0,0.0,0.0,0.0,0.0,0.0,0.0,0.0,0.0,0.0,0.0,0.0,0.0,0.0,0.0,0.0,0.0,0.0,0.0,0.0,0.0,0.0,0.0,0.0,0.0,0.0,0.0,0.0,0.0,0.0,0.0,0.0,0.0,0.0,0.0,0.0,0.0,0.0,0.0,0.0,0.0,0.0,0.0,0.0,0.0,0.0,0.0,0.0,0.0,0.0,0.0,0.0,0.0,0.0,0.0,0.0,0.0,0.0,0.0,0.0,0.0,0.0,0.0,0.0,0.0,0.0,0.0,0.0,0.0,0.0,0.0,0.0,0.0,0.0,0.0,0.0,0.0,0.0,0.0,0.0,0.0,0.0,0.0,0.0,0.0,0.0,0.0,0.0,0.0,0.0,0.0,0.0,0.0,0.0,0.0,0.0,0.0,0.0,0.0,0.0,0.0,0.0,0.0,0.0,0.0,0.0,0.0,0.0,0.0,0.0,0.0,0.0,0.0,0.0,0.0,0.0,0.0,0.0,0.0,0.0,0.0,0.0,0.0,0.0,0.0,0.0,0.0,0.0,0.0,0.0,0.0,0.0,0.0,0.0,0.0,0.0,0.0,0.0,0.0,0.0,0.0,0.0,0.0,0.0,0.0,0.0,0.0,0.0,0.0,0.0,0.0,0.0,0.0,0.0,0.0,0.0,0.0,0.0,0.0,0.0,0.0,0.0,0.0,0.0,0.0,0.0,0.0,0.0,0.0,0.0,0.0,0.0,0.0,0.0,0.0,0.0,0.0,0.0,0.0,0.0,0.0,0.0,0.0,0.0,0.0,0.0,0.0,0.0,0.0,0.0,0.0,0.0,0.0,0.0,0.0,0.0,0.0,0.0,0.0,0.0,0.0,0.0,0.0,0.0,0.0,0.0,0.0,0.0,0.0,0.0,0.0,0.0,0.0,0.0,0.0,0.0,0.0,0.0,0.0,0.0,0.0,0.0,0.0,0.0,0.0,0.0,0.0,0.0,0.0,0.0,0.0,0.0,0.0,0.0,0.0,0.0,0.0,0.0,0.0,0.0,0.0,0.0,0.0,0.0,0.0,0.0,0.0,0.0,0.0,0.0,0.0,0.0,0.0,0.0,0.0,0.0,0.0,0.0,0.0,0.0,0.0,0.0,0.0,0.0,0.0,0.0,0.0,0.0,0.0,0.0,0.0,0.0,0.0,0.0,0.0,0.0,0.0,0.0,0.0,0.0,0.0,0.0,0.0,0.0,0.0,0.0,0.0,0.0,0.0,0.0,0.0,0.0,0.0,0.0,0.0,0.0,0.0,0.0,0.0,0.0,0.0,0.0,0.0,0.0,0.0,0.0,0.0,0.0,0.0,0.0,0.0,0.0,0.0,0.0,0.0,-1.6342,0.0,0.0,0.0,0.0,0.0,0.0,0.0,0.0,0.0,0.0,0.0,0.0,0.0,0.0,0.0,0.0,0.0,0.0,0.0,0.0,0.0,0.0,0.0,0.0,0.0,0.0,0.0,0.0,0.0,0.0,0.0,0.0,0.0,0.0,0.0,0.0,0.0,0.0,0.0,0.0,0.0,0.0,0.0,0.0,0.0,0.0,0.0,0.0,0.0,0.0,0.0,0.0,0.0,0.0,0.0,0.0,0.0,0.0,0.0,0.0,0.0,0.0,0.0,0.0,0.0,0.0,0.0,0.0,0.0,0.0,0.0,0.0,0.0,0.0,0.0,0.0,0.0,0.0,0.0,0.0,0.0,0.0,0.0,0.0,0.0,0.0,0.0,0.0,0.0,0.0,0.0,0.0,0.0,0.0,0.0,0.0,0.0,0.0,0.0,0.0,0.0,0.0,0.0,0.0,0.0,0.0,0.0,0.0,0.0,0.0,-1.7708,-1.6588,-1.6448,-1.6353,-1.6299,0.0,0.0,0.0,0.0,0.0,0.0,0.0,0.0,0.0,0.0,0.0,0.0,0.0,0.0,0.0,0.0,0.0,0.0,0.0,0.0,0.0,0.0,0.0,0.0,0.0,0.0,0.0,0.0,0.0,0.0,0.0,0.0,0.0,0.0,0.0,0.0,0.0,0.0,0.0,0.0,0.0,0.0,0.0,0.0,0.0,0.0,0.0,0.0,0.0,0.0,0.0,0.0,0.0,0.0,0.0,0.0,0.0,0.0,0.0,0.0,0.0,0.0,0.0,0.0,0.0,0.0,0.0,0.0,0.0,0.0,0.0,0.0,0.0,0.0,0.0,0.0,0.0,0.0,0.0,0.0,0.0,0.0,0.0,0.0,0.0,0.0,0.0,0.0,0.0,0.0,0.0,0.0,0.0,0.0,0.0,0.0,0.0,0.0,0.0,0.0,0.0,0.0,0.0,0.0,0.0,0.0,0.0,0.0,0.0,0.0,0.0,0.0,-1.6328,-1.626,-1.6232,0.0,0.0,0.0,0.0,0.0,0.0,0.0,0.0,0.0,0.0,0.0,0.0,0.0,0.0,0.0,0.0,0.0,0.0,0.0,0.0,0.0,0.0,0.0,0.0,0.0,0.0,0.0,0.0,0.0,0.0,0.0,0.0,0.0,0.0,0.0,0.0,0.0,0.0,0.0,0.0,0.0,0.0,0.0,0.0,0.0,0.0,0.0,0.0,0.0,0.0,0.0,0.0,0.0,0.0,0.0,0.0,0.0,0.0,0.0,0.0,0.0,0.0,0.0,0.0,0.0,0.0,0.0,0.0,0.0,0.0,0.0,0.0,0.0,0.0,0.0,0.0,0.0,0.0,0.0,0.0,0.0,0.0,0.0,0.0,0.0,0.0,0.0,0.0,0.0,0.0,0.0,0.0,0.0,0.0,0.0,0.0,0.0,0.0,0.0,0.0,0.0,0.0,0.0,0.0,0.0,0.0,0.0,0.0,0.0,0.0,-1.7171,-1.6265,-1.6222,0.0,-1.607,0.0,0.0,0.0,0.0,0.0,0.0,0.0,0.0,0.0,0.0,0.0,0.0,0.0,0.0,0.0,0.0,0.0,0.0,0.0,0.0,0.0,0.0,0.0,0.0,0.0,0.0,0.0,0.0,0.0,0.0,0.0,0.0,0.0,0.0,0.0,0.0,0.0,0.0,0.0,0.0,0.0,0.0,0.0,0.0,0.0,0.0,0.0,0.0,0.0,0.0,0.0,0.0,0.0,0.0,0.0,0.0,0.0,0.0,0.0,0.0,0.0,0.0,0.0,0.0,0.0,0.0,0.0,0.0,0.0,0.0,0.0,0.0,0.0,0.0,0.0,0.0,0.0,0.0,0.0,0.0,0.0,0.0,0.0,0.0,0.0,0.0,0.0,0.0,0.0,0.0,0.0,0.0,0.0,0.0,0.0,0.0,0.0,0.0,0.0,0.0,0.0,0.0,0.0,0.0,0.0,0.0,0.0,0.0,0.0,0.0,-1.6583,-1.6208,-1.6493,-1.6619,0.0,0.0,0.0,0.0,0.0,0.0,0.0,0.0,0.0,0.0,0.0,0.0,0.0,0.0,0.0,0.0,0.0,0.0,0.0,0.0,0.0,0.0,0.0,0.0,0.0,0.0,0.0,0.0,0.0,0.0,0.0,0.0,0.0,0.0,0.0,0.0,0.0,0.0,0.0,0.0,0.0,0.0,0.0,0.0,0.0,0.0,0.0,0.0,0.0,0.0,0.0,0.0,0.0,0.0,0.0,0.0,0.0,0.0,0.0,0.0,0.0,0.0,0.0,0.0,0.0,0.0,0.0,0.0,0.0,0.0,0.0,0.0,0.0,0.0,0.0,0.0,0.0,0.0,0.0,0.0,0.0,0.0,0.0,0.0,0.0,0.0,0.0,0.0,0.0,0.0,0.0,0.0,0.0,0.0,0.0,0.0,0.0,0.0,0.0,0.0,0.0,0.0,0.0,0.0,0.0,0.0,0.0,0.0,0.0,0.0,-1.7029,-1.6153,-1.6112,-1.6426,-1.6563,-1.6518,0.0,0.0,0.0,0.0,0.0,0.0,0.0,0.0,0.0,0.0,0.0,0.0,0.0,0.0,0.0,0.0,0.0,0.0,0.0,0.0,0.0,0.0,0.0,0.0,0.0,0.0,0.0,0.0,0.0,0.0,0.0,0.0,0.0,0.0,0.0,0.0,0.0,0.0,0.0,0.0,0.0,0.0,0.0,0.0,0.0,0.0,0.0,0.0,0.0,0.0,0.0,0.0,0.0,0.0,0.0,0.0,0.0,0.0,0.0,0.0,0.0,0.0,0.0,0.0,0.0,0.0,0.0,0.0,0.0,0.0,0.0,0.0,0.0,0.0,0.0,0.0,0.0,0.0,0.0,0.0,0.0,0.0,0.0,0.0,0.0,0.0,0.0,0.0,0.0,0.0,0.0,0.0,0.0,0.0,0.0,0.0,0.0,0.0,0.0,0.0,0.0,0.0,0.0,0.0,0.0,0.0,0.0,0.0,0.0,-1.6929,-1.6069,-1.5842,-1.5654,-1.5566,0.0,0.0,0.0,0.0,0.0,0.0,0.0,0.0,0.0,0.0,0.0,0.0,0.0,0.0,0.0,0.0,0.0,0.0,0.0,0.0,0.0,0.0,0.0,0.0,0.0,0.0,0.0,0.0,0.0,0.0,0.0,0.0,0.0,0.0,0.0,0.0,0.0,0.0,0.0,0.0,0.0,0.0,0.0,0.0,0.0,0.0,0.0,0.0,0.0,0.0,0.0,0.0,0.0,0.0,0.0,0.0,0.0,0.0,0.0,0.0,0.0,0.0,0.0,0.0,0.0,0.0,0.0,0.0,0.0,0.0,0.0,0.0,0.0,0.0,0.0,0.0,0.0,0.0,0.0,0.0,0.0,0.0,0.0,0.0,0.0,0.0,0.0,0.0,0.0,0.0,0.0,0.0,0.0,0.0,0.0,0.0,0.0,0.0,0.0,0.0,0.0,0.0,0.0,0.0,0.0,0.0,0.0,0.0,0.0,-1.8269,-1.6755,-1.5842,-1.5639,-1.6363,-1.6377,0.0,0.0,0.0,0.0,0.0,0.0,0.0,0.0,0.0,0.0,0.0,0.0,0.0,0.0,0.0,0.0,0.0,0.0,0.0,0.0,0.0,0.0,0.0,0.0,0.0,0.0,0.0,0.0,0.0,0.0,0.0,0.0,0.0,0.0,0.0,0.0,0.0,0.0,0.0,0.0,0.0,0.0,0.0,0.0,0.0,0.0,0.0,0.0,0.0,0.0,0.0,0.0,0.0,0.0,0.0,0.0,0.0,0.0,0.0,0.0,0.0,0.0,0.0,0.0,0.0,0.0,0.0,0.0,0.0,0.0,0.0,0.0,0.0,0.0,0.0,0.0,0.0,0.0,0.0,0.0,0.0,0.0,0.0,0.0,0.0,0.0,0.0,0.0,0.0,0.0,0.0,0.0,0.0,0.0,0.0,0.0,0.0,0.0,0.0,0.0,0.0,0.0,0.0,0.0,0.0,0.0,0.0,0.0,0.0,-1.8065,0.0,-1.6186,0.0,-1.6864,-1.6876,0.0,0.0,0.0,0.0,0.0,0.0,0.0,0.0,0.0,0.0,0.0,0.0,0.0,0.0,0.0,0.0,0.0,0.0,0.0,0.0,0.0,0.0,0.0,0.0,0.0,0.0,0.0,0.0,0.0,0.0,0.0,0.0,0.0,0.0,0.0,0.0,0.0,0.0,0.0,0.0,0.0,0.0,0.0,0.0,0.0,0.0,0.0,0.0,0.0,0.0,0.0,0.0,0.0,0.0,0.0,0.0,0.0,0.0,0.0,0.0,0.0,0.0,0.0,0.0,0.0,0.0,0.0,0.0,0.0,0.0,0.0,0.0,0.0,0.0,0.0,0.0,0.0,0.0,0.0,0.0,0.0,0.0,0.0,0.0,0.0,0.0,0.0,0.0,0.0,0.0,0.0,0.0,0.0,0.0,0.0,0.0,0.0,0.0,0.0,0.0,0.0,0.0,0.0,0.0,0.0,0.0,0.0,0.0,-1.855,-1.7655,-1.7334,-1.7144,-1.7185,-1.7013,-1.691,0.0,0.0,0.0,0.0,0.0,0.0,0.0,0.0,0.0,0.0,0.0,0.0,0.0,0.0,0.0,0.0,0.0,0.0,0.0,0.0,0.0,0.0,0.0,0.0,0.0,0.0,0.0,0.0,0.0,0.0,0.0,0.0,0.0,0.0,0.0,0.0,0.0,0.0,0.0,0.0,0.0,0.0,0.0,0.0,0.0,0.0,0.0,0.0,0.0,0.0,0.0,0.0,0.0,0.0,0.0,0.0,0.0,0.0,0.0,0.0,0.0,0.0,0.0,0.0,0.0,0.0,0.0,0.0,0.0,0.0,0.0,0.0,0.0,0.0,0.0,0.0,0.0,0.0,0.0,0.0,0.0,0.0,0.0,0.0,0.0,0.0,0.0,0.0,0.0,0.0,0.0,0.0,0.0,0.0,0.0,0.0,0.0,0.0,0.0,0.0,0.0,0.0,0.0,0.0,0.0,0.0,0.0,0.0,0.0,-1.8022,-1.7483,-1.7132,-1.7027,-1.7373,-1.7366,0.0,0.0,0.0,0.0,0.0,0.0,0.0,0.0,0.0,0.0,0.0,0.0,0.0,0.0,0.0,0.0,0.0,0.0,0.0,0.0,0.0,0.0,0.0,0.0,0.0,0.0,0.0,0.0,0.0,0.0,0.0,0.0,0.0,0.0,0.0,0.0,0.0,0.0,0.0,0.0,0.0,0.0,0.0,0.0,0.0,0.0,0.0,0.0,0.0,0.0,0.0,0.0,0.0,0.0,0.0,0.0,0.0,0.0,0.0,0.0,0.0,0.0,0.0,0.0,0.0,0.0,0.0,0.0,0.0,0.0,0.0,0.0,0.0,0.0,0.0,0.0,0.0,0.0,0.0,0.0,0.0,0.0,0.0,0.0,0.0,0.0,0.0,0.0,0.0,0.0,0.0,0.0,0.0,0.0,0.0,0.0,0.0,0.0,0.0,0.0,0.0,0.0,0.0,0.0,0.0,0.0,0.0,0.0,0.0,-1.8319,-1.7949,-1.7677,-1.7483,-1.7861,-1.7838,-1.742,0.0,0.0,0.0,0.0,0.0,0.0,0.0,0.0,0.0,0.0,0.0,0.0,0.0,0.0,0.0,0.0,0.0,0.0,0.0,0.0,0.0,0.0,0.0,0.0,0.0,0.0,0.0,0.0,0.0,0.0,0.0,0.0,0.0,0.0,0.0,0.0,0.0,0.0,0.0,0.0,0.0,0.0,0.0,0.0,0.0,0.0,0.0,0.0,0.0,0.0,0.0,0.0,0.0,0.0,0.0,0.0,0.0,0.0,0.0,0.0,0.0,0.0,0.0,0.0,0.0,0.0,0.0,0.0,0.0,0.0,0.0,0.0,0.0,0.0,0.0,0.0,0.0,0.0,0.0,0.0,0.0,0.0,0.0,0.0,0.0,0.0,0.0,0.0,0.0,0.0,0.0,0.0,0.0,0.0,0.0,0.0,0.0,0.0,0.0,0.0,0.0,0.0,0.0,0.0,0.0,0.0,0.0,0.0,-1.8498,-1.8595,-1.8581,-1.845,-1.8344,-1.8274,0.0,0.0,0.0,0.0,0.0,0.0,0.0,0.0,0.0,0.0,0.0,0.0,0.0,0.0,0.0,0.0,0.0,0.0,0.0,0.0,0.0,0.0,0.0,0.0,0.0,0.0,0.0,0.0,0.0,0.0,0.0,0.0,0.0,0.0,0.0,0.0,0.0,0.0,0.0,0.0,0.0,0.0,0.0,0.0,0.0,0.0,0.0,0.0,0.0,0.0,0.0,0.0,0.0,0.0,0.0,0.0,0.0,0.0,0.0,0.0,0.0,0.0,0.0,0.0,0.0,0.0,0.0,0.0,0.0,0.0,0.0,0.0,0.0,0.0,0.0,0.0,0.0,0.0,0.0,0.0,0.0,0.0,0.0,0.0,0.0,0.0,0.0,0.0,0.0,0.0,0.0,0.0,0.0,0.0,0.0,0.0,0.0,0.0,0.0,0.0,0.0,0.0,0.0,0.0,0.0,0.0,0.0,0.0,0.0,-1.8366,-1.824,-1.8214,-1.8268,-1.8262,-1.8222,0.0,0.0,0.0,0.0,0.0,0.0,0.0,0.0,0.0,0.0,0.0,0.0,0.0,0.0,0.0,0.0,0.0,0.0,0.0,0.0,0.0,0.0,0.0,0.0,0.0,0.0,0.0,0.0,0.0,0.0,0.0,0.0,0.0,0.0,0.0,0.0,0.0,0.0,0.0,0.0,0.0,0.0,0.0,0.0,0.0,0.0,0.0,0.0,0.0,0.0,0.0,0.0,0.0,0.0,0.0,0.0,0.0,0.0,0.0,0.0,0.0,0.0,0.0,0.0,0.0,0.0,0.0,0.0,0.0,0.0,0.0,0.0,0.0,0.0,0.0,0.0,0.0,0.0,0.0,0.0,0.0,0.0,0.0,0.0,0.0,0.0,0.0,0.0,0.0,0.0,0.0,0.0,0.0,0.0,0.0,0.0,0.0,0.0,0.0,0.0,0.0,0.0,0.0,0.0,0.0,0.0,0.0,0.0,-1.896,-1.8149,-1.8016,-1.7935,-1.7895,-1.7949,-1.8003,0.0,0.0,0.0,0.0,0.0,0.0,0.0,0.0,0.0,0.0,0.0,0.0,0.0,0.0,0.0,0.0,0.0,0.0,0.0,0.0,0.0,0.0,0.0,0.0,0.0,0.0,0.0,0.0,0.0,0.0,0.0,0.0,0.0,0.0,0.0,0.0,0.0,0.0,0.0,0.0,0.0,0.0,0.0,0.0,0.0,0.0,0.0,0.0,0.0,0.0,0.0,0.0,0.0,0.0,0.0,0.0,0.0,0.0,0.0,0.0,0.0,0.0,0.0,0.0,0.0,0.0,0.0,0.0,0.0,0.0,0.0,0.0,0.0,0.0,0.0,0.0,0.0,0.0,0.0,0.0,0.0,0.0,0.0,0.0,0.0,0.0,0.0,0.0,0.0,0.0,0.0,0.0,0.0,0.0,0.0,0.0,0.0,0.0,0.0,0.0,0.0,0.0,0.0,0.0,0.0,0.0,0.0,0.0,-1.8921,-1.8106,-1.8052,-1.7888,-1.7589,-1.7631,-1.7679,0.0,0.0,0.0,0.0,0.0,0.0,0.0,0.0,0.0,0.0,0.0,0.0,0.0,0.0,0.0,0.0,0.0,0.0,0.0,0.0,0.0,0.0,0.0,0.0,0.0,0.0,0.0,0.0,0.0,0.0,0.0,0.0,0.0,0.0,0.0,0.0,0.0,0.0,0.0,0.0,0.0,0.0,0.0,0.0,0.0,0.0,0.0,0.0,0.0,0.0,0.0,0.0,0.0,0.0,0.0,0.0,0.0,0.0,0.0,0.0,0.0,0.0,0.0,0.0,0.0,0.0,0.0,0.0,0.0,0.0,0.0,0.0,0.0,0.0,0.0,0.0,0.0,0.0,0.0,0.0,0.0,0.0,0.0,0.0,0.0,0.0,0.0,0.0,0.0,0.0,0.0,0.0,0.0,0.0,0.0,0.0,0.0,0.0,0.0,0.0,0.0,0.0,0.0,0.0,0.0,0.0,0.0,0.0,-1.944,-1.9258,-1.8972,-1.8592,-1.8059,-1.7728,-1.755,0.0,0.0,0.0,0.0,0.0,0.0,0.0,0.0,0.0,0.0,0.0,0.0,0.0,0.0,0.0,0.0,0.0,0.0,0.0,0.0,0.0,0.0,0.0,0.0,0.0,0.0,0.0,0.0,0.0,0.0,0.0,0.0,0.0,0.0,0.0,0.0,0.0,0.0,0.0,0.0,0.0,0.0,0.0,0.0,0.0,0.0,0.0,0.0,-1.4114,0.0,0.0,0.0,0.0,0.0,0.0,0.0,0.0,0.0,0.0,0.0,0.0,0.0,0.0,0.0,0.0,0.0,0.0,0.0,0.0,0.0,0.0,0.0,0.0,0.0,0.0,0.0,0.0,0.0,0.0,0.0,0.0,0.0,0.0,0.0,0.0,0.0,0.0,0.0,0.0,0.0,0.0,0.0,0.0,0.0,0.0,0.0,0.0,0.0,0.0,0.0,0.0,0.0,0.0,0.0,0.0,0.0,0.0,0.0,-1.9804,-1.9369,-1.9133,-1.8708,-1.8096,-1.7825,-1.76,0.0,0.0,0.0,0.0,0.0,0.0,0.0,0.0,0.0,0.0,0.0,0.0,0.0,0.0,0.0,0.0,0.0,0.0,0.0,0.0,0.0,0.0,0.0,0.0,0.0,0.0,0.0,0.0,0.0,0.0,0.0,0.0,0.0,0.0,0.0,0.0,0.0,0.0,0.0,0.0,0.0,0.0,0.0,0.0,0.0,0.0,0.0,0.0,0.0,0.0,0.0,0.0,0.0,0.0,0.0,0.0,0.0,0.0,0.0,0.0,0.0,0.0,0.0,0.0,0.0,0.0,0.0,0.0,0.0,0.0,0.0,0.0,0.0,0.0,0.0,0.0,0.0,0.0,0.0,0.0,0.0,0.0,0.0,0.0,0.0,0.0,0.0,0.0,0.0,0.0,0.0,0.0,0.0,0.0,0.0,0.0,0.0,0.0,0.0,0.0,0.0,0.0,0.0,0.0,0.0,0.0,0.0,-2.0435,-2.006,-1.9351,-1.9211,-1.8809,-1.817,-1.8044,-1.7874,-1.7584,0.0,0.0,0.0,0.0,0.0,0.0,0.0,0.0,0.0,0.0,0.0,0.0,0.0,0.0,0.0,0.0,0.0,0.0,0.0,0.0,0.0,0.0,0.0,0.0,0.0,0.0,0.0,0.0,0.0,0.0,0.0,0.0,0.0,0.0,0.0,0.0,0.0,0.0,-1.5869,-1.5443,0.0,0.0,0.0,0.0,0.0,0.0,0.0,0.0,-1.5174,0.0,0.0,0.0,0.0,0.0,0.0,0.0,0.0,0.0,0.0,0.0,0.0,0.0,0.0,0.0,0.0,0.0,0.0,0.0,0.0,0.0,0.0,0.0,0.0,0.0,0.0,0.0,0.0,0.0,0.0,0.0,0.0,0.0,0.0,0.0,0.0,0.0,0.0,0.0,0.0,0.0,0.0,0.0,0.0,0.0,0.0,0.0,0.0,0.0,0.0,0.0,0.0,0.0,0.0,0.0,0.0,-2.0518,-2.0214,-2.0162,-2.036,-2.0263,-1.9867,-1.9179,-1.8706,-1.8493,-1.8426,0.0,0.0,0.0,0.0,0.0,0.0,0.0,0.0,0.0,0.0,0.0,0.0,0.0,0.0,0.0,0.0,0.0,0.0,0.0,0.0,0.0,0.0,0.0,0.0,0.0,0.0,0.0,0.0,0.0,0.0,0.0,0.0,0.0,0.0,0.0,0.0,0.0,0.0,0.0,-1.5794,-1.5958,0.0,0.0,0.0,0.0,0.0,0.0,0.0,0.0,-1.5068,0.0,0.0,0.0,0.0,0.0,0.0,0.0,0.0,0.0,0.0,0.0,0.0,0.0,0.0,0.0,0.0,0.0,0.0,0.0,0.0,0.0,0.0,0.0,0.0,0.0,0.0,0.0,0.0,0.0,0.0,0.0,0.0,0.0,0.0,0.0,0.0,0.0,0.0,0.0,0.0,0.0,0.0,0.0,0.0,0.0,0.0,0.0,0.0,0.0,0.0,0.0,0.0,0.0,0.0,0.0,-2.0708,-2.0729,-2.0844,-2.0952,-2.1068,-2.0655,-1.9749,-1.9469,-1.9213,0.0,0.0,0.0,0.0,0.0,0.0,0.0,0.0,0.0,0.0,0.0,0.0,0.0,0.0,0.0,0.0,0.0,0.0,0.0,0.0,0.0,0.0,0.0,0.0,0.0,0.0,0.0,0.0,0.0,0.0,0.0,0.0,0.0,0.0,0.0,0.0,0.0,0.0,0.0,0.0,-1.5975,-1.6145,-1.6303,0.0,0.0,0.0,0.0,0.0,0.0,-1.5534,-1.5491,0.0,0.0,0.0,0.0,0.0,0.0,0.0,0.0,0.0,0.0,0.0,0.0,0.0,0.0,0.0,0.0,0.0,0.0,0.0,0.0,0.0,0.0,0.0,0.0,0.0,0.0,0.0,0.0,0.0,0.0,0.0,0.0,0.0,0.0,0.0,0.0,0.0,0.0,0.0,0.0,0.0,0.0,0.0,0.0,0.0,0.0,0.0,0.0,0.0,0.0,0.0,0.0,0.0,0.0,0.0,-2.1047,-2.121,-2.1277,-2.1249,-2.1419,-2.1029,-1.999,-1.9864,-1.9661,0.0,0.0,0.0,0.0,0.0,0.0,0.0,0.0,0.0,0.0,0.0,0.0,0.0,0.0,0.0,0.0,0.0,0.0,0.0,0.0,0.0,0.0,0.0,0.0,0.0,0.0,0.0,0.0,0.0,0.0,0.0,0.0,0.0,0.0,0.0,0.0,0.0,0.0,0.0,0.0,0.0,-1.6068,-1.6606,-1.6266,0.0,0.0,0.0,0.0,-1.6309,-1.604,0.0,0.0,0.0,0.0,0.0,0.0,0.0,0.0,0.0,0.0,0.0,0.0,0.0,0.0,0.0,0.0,0.0,0.0,0.0,0.0,0.0,0.0,0.0,0.0,0.0,0.0,0.0,0.0,0.0,0.0,0.0,0.0,0.0,0.0,0.0,0.0,0.0,0.0,0.0,0.0,0.0,0.0,0.0,0.0,0.0,0.0,0.0,0.0,0.0,0.0,0.0,0.0,0.0,0.0,0.0,0.0,-2.1407,-2.0874,-2.0708,-2.0932,-2.098,-2.0596,-1.9849,-1.9371,-1.9371,0.0,0.0,0.0,0.0,0.0,0.0,0.0,0.0,0.0,0.0,0.0,0.0,0.0,0.0,0.0,0.0,0.0,0.0,0.0,0.0,0.0,0.0,0.0,0.0,0.0,0.0,0.0,0.0,0.0,0.0,0.0,0.0,0.0,0.0,0.0,0.0,0.0,0.0,0.0,0.0,0.0,-1.5821,-1.6811,-1.6874,-1.6841,0.0,0.0,-1.6536,-1.5953,-1.5952,0.0,0.0,0.0,0.0,0.0,0.0,0.0,0.0,0.0,0.0,0.0,0.0,0.0,0.0,0.0,0.0,0.0,0.0,0.0,0.0,0.0,0.0,0.0,0.0,0.0,0.0,0.0,0.0,0.0,0.0,0.0,0.0,0.0,0.0,0.0,0.0,0.0,0.0,0.0,0.0,0.0,0.0,0.0,0.0,0.0,0.0,0.0,0.0,0.0,0.0,0.0,0.0,0.0,0.0,0.0,-2.1145,-2.0952,-2.1107,-2.1062,-2.0797,-2.1006,-2.0919,-2.0494,-1.9742,-1.9633,0.0,0.0,0.0,0.0,0.0,0.0,0.0,0.0,0.0,0.0,0.0,0.0,0.0,0.0,0.0,0.0,0.0,0.0,0.0,0.0,0.0,0.0,0.0,0.0,0.0,0.0,0.0,0.0,0.0,0.0,0.0,0.0,0.0,0.0,0.0,0.0,0.0,0.0,0.0,0.0,0.0,0.0,-1.7557,-1.7098,0.0,0.0,0.0,-1.6705,-1.6101,0.0,0.0,0.0,0.0,0.0,0.0,0.0,0.0,0.0,0.0,0.0,0.0,0.0,0.0,0.0,0.0,0.0,0.0,0.0,0.0,0.0,0.0,0.0,0.0,0.0,0.0,0.0,0.0,0.0,0.0,0.0,0.0,0.0,0.0,0.0,0.0,0.0,0.0,0.0,0.0,0.0,0.0,0.0,0.0,0.0,0.0,0.0,0.0,0.0,0.0,0.0,0.0,0.0,0.0,0.0,0.0,0.0,-2.0824,-2.1226,-2.1188,-2.069,-2.0886,-2.0897,-2.0585,-1.9906,0.0,0.0,0.0,0.0,0.0,0.0,0.0,0.0,0.0,0.0,0.0,0.0,0.0,0.0,0.0,0.0,0.0,0.0,0.0,0.0,0.0,0.0,0.0,0.0,0.0,0.0,0.0,-1.3544,0.0,0.0,0.0,0.0,0.0,0.0,0.0,0.0,0.0,0.0,0.0,0.0,0.0,0.0,-1.7171,-1.7997,-1.7336,-1.6976,0.0,0.0,-1.693,-1.646,-1.6709,-1.6854,0.0,0.0,0.0,0.0,0.0,0.0,0.0,0.0,0.0,0.0,0.0,0.0,0.0,0.0,0.0,0.0,0.0,0.0,0.0,0.0,0.0,0.0,0.0,0.0,0.0,0.0,0.0,0.0,0.0,0.0,0.0,0.0,0.0,0.0,0.0,0.0,0.0,0.0,0.0,0.0,0.0,0.0,0.0,0.0,0.0,0.0,0.0,0.0,0.0,0.0,0.0,0.0,0.0,0.0,0.0,-2.1578,-2.1077,-2.0688,-2.0515,-2.0378,-2.0008,-1.9529,-1.9431,-1.9445,0.0,0.0,0.0,0.0,0.0,0.0,0.0,0.0,0.0,0.0,0.0,0.0,0.0,0.0,0.0,0.0,0.0,0.0,0.0,0.0,0.0,0.0,0.0,0.0,0.0,0.0,0.0,0.0,0.0,0.0,0.0,0.0,0.0,0.0,0.0,0.0,0.0,0.0,0.0,0.0,0.0,-1.7198,-1.7765,-1.7751,-1.7599,0.0,0.0,-1.726,-1.6916,-1.663,-1.6434,-1.6437,0.0,0.0,0.0,0.0,0.0,0.0,0.0,0.0,0.0,0.0,0.0,0.0,0.0,0.0,0.0,0.0,0.0,0.0,0.0,0.0,0.0,0.0,0.0,0.0,0.0,0.0,0.0,0.0,0.0,0.0,0.0,0.0,0.0,0.0,0.0,0.0,0.0,0.0,0.0,0.0,0.0,0.0,0.0,0.0,0.0,0.0,0.0,0.0,0.0,0.0,0.0,0.0,0.0,-2.1006,-2.1075,-2.0751,-2.03,-1.9738,-1.9633,-1.9602,-1.9643,-1.9393,-1.9434,0.0,0.0,0.0,0.0,0.0,0.0,0.0,0.0,0.0,0.0,0.0,0.0,0.0,0.0,0.0,0.0,0.0,0.0,0.0,0.0,0.0,0.0,0.0,0.0,0.0,0.0,0.0,0.0,-1.4162,-1.4212,-1.4588,0.0,0.0,0.0,0.0,0.0,0.0,0.0,0.0,0.0,0.0,-1.7627,-1.8387,-1.7863,0.0,0.0,-1.7583,-1.7544,-1.742,-1.7537,-1.7643,-1.7638,-1.7659,0.0,0.0,0.0,0.0,0.0,0.0,0.0,0.0,0.0,0.0,0.0,0.0,0.0,0.0,0.0,0.0,0.0,0.0,0.0,0.0,0.0,0.0,0.0,0.0,0.0,0.0,0.0,0.0,0.0,0.0,0.0,0.0,0.0,0.0,0.0,0.0,0.0,0.0,0.0,0.0,0.0,0.0,0.0,0.0,0.0,0.0,0.0,0.0,0.0,0.0,0.0,0.0,-2.0989,-2.1004,-2.0742,-2.0293,-1.9694,-1.9588,-1.9603,-1.9701,-1.9417,-1.9348,0.0,0.0,0.0,0.0,0.0,0.0,0.0,0.0,0.0,0.0,0.0,0.0,0.0,0.0,0.0,0.0,0.0,0.0,0.0,0.0,0.0,0.0,0.0,0.0,0.0,0.0,0.0,0.0,-1.4593,-1.4746,-1.5104,0.0,0.0,0.0,0.0,0.0,0.0,0.0,0.0,0.0,0.0,-1.8292,-1.8703,-1.8192,-1.7839,-1.8019,-1.8035,-1.7978,-1.7921,-1.814,-1.8331,-1.8353,0.0,0.0,0.0,0.0,0.0,0.0,0.0,0.0,0.0,0.0,0.0,0.0,0.0,0.0,0.0,0.0,0.0,0.0,0.0,0.0,0.0,0.0,0.0,0.0,0.0,0.0,0.0,0.0,0.0,0.0,-1.9328,0.0,0.0,0.0,0.0,0.0,0.0,0.0,0.0,0.0,0.0,0.0,0.0,0.0,0.0,0.0,0.0,0.0,0.0,0.0,0.0,0.0,0.0,-2.1276,-2.1751,-2.1128,-2.0787,-2.0746,-2.0452,-2.0082,-1.9646,-1.9392,-1.9101,-1.8672,0.0,0.0,0.0,0.0,0.0,0.0,0.0,0.0,0.0,0.0,0.0,0.0,0.0,0.0,0.0,0.0,0.0,0.0,0.0,0.0,0.0,0.0,0.0,0.0,0.0,0.0,-1.4667,-1.5161,-1.5645,0.0,0.0,0.0,0.0,0.0,0.0,0.0,0.0,0.0,0.0,-1.8845,-1.9109,-1.8536,-1.878,-1.8948,-1.8876,-1.8745,-1.8624,-1.8434,-1.8314,-1.8191,0.0,0.0,0.0,0.0,0.0,0.0,0.0,0.0,0.0,0.0,0.0,0.0,0.0,0.0,0.0,0.0,0.0,0.0,0.0,0.0,0.0,0.0,0.0,0.0,0.0,0.0,0.0,-1.9915,-1.989,0.0,0.0,0.0,0.0,0.0,0.0,0.0,0.0,0.0,0.0,0.0,-2.0652,-2.0999,0.0,0.0,0.0,0.0,0.0,0.0,0.0,0.0,0.0,0.0,0.0,0.0,-2.1741,-2.2165,-2.185,-2.1632,-2.1523,-2.1298,-2.0753,-1.9974,-2.0223,-1.997,-1.9163,0.0,0.0,0.0,0.0,0.0,0.0,0.0,0.0,0.0,0.0,0.0,0.0,0.0,0.0,0.0,0.0,0.0,0.0,0.0,0.0,0.0,0.0,0.0,0.0,0.0,-1.5097,0.0,0.0,0.0,0.0,0.0,0.0,0.0,0.0,0.0,0.0,0.0,-1.8792,-1.9242,-1.9227,-1.9213,-1.924,-1.9099,-1.8989,0.0,0.0,0.0,0.0,0.0,0.0,0.0,0.0,0.0,0.0,0.0,0.0,0.0,0.0,-1.7755,-1.8171,-1.8284,-1.8323,-1.8351,0.0,0.0,0.0,0.0,0.0,0.0,0.0,0.0,0.0,0.0,0.0,0.0,0.0,0.0,-2.073,0.0,-2.0756,0.0,0.0,0.0,0.0,0.0,0.0,0.0,0.0,-2.1395,-2.1392,-2.1311,-2.168,-2.1819,0.0,-2.1578,-2.1578,0.0,0.0,0.0,0.0,0.0,0.0,0.0,0.0,-2.2247,-2.2647,-2.2365,-2.2238,-2.2332,-2.2171,-2.1666,-2.0878,-2.0614,-2.0112,-1.9326,-1.8912,-1.8612,0.0,0.0,0.0,0.0,0.0,0.0,0.0,0.0,0.0,0.0,0.0,0.0,0.0,0.0,0.0,0.0,0.0,0.0,0.0,0.0,0.0,0.0,0.0,-1.5797,0.0,0.0,0.0,0.0,0.0,0.0,0.0,0.0,0.0,-1.84,-1.872,-1.9063,-1.9493,-1.9694,-1.9865,-2.0006,0.0,0.0,0.0,0.0,0.0,0.0,0.0,-2.0449,-2.0755,-2.0555,-2.0333,-2.0344,-1.9883,-1.942,-1.9114,0.0,0.0,-1.8818,-1.8838,-1.8813,-1.8636,-1.8766,-1.8873,-1.8707,-1.8806,-1.8928,0.0,0.0,0.0,0.0,0.0,0.0,0.0,0.0,-2.164,-2.1658,0.0,-2.1797,0.0,0.0,0.0,0.0,0.0,-2.1243,0.0,0.0,-2.2279,-2.2659,-2.3307,-2.3354,-2.3301,-2.3167,-2.2629,-2.2686,-2.3083,-2.1425,0.0,0.0,0.0,0.0,0.0,0.0,-2.27,-2.3191,-2.2735,-2.2723,-2.3193,-2.3036,-2.2724,-2.2157,-2.0565,-1.9552,-1.9129,-1.8224,-1.8162,-1.9146,-1.7826,0.0,0.0,0.0,0.0,0.0,0.0,0.0,0.0,0.0,0.0,0.0,0.0,0.0,0.0,0.0,0.0,0.0,0.0,0.0,0.0,-1.5989,0.0,0.0,0.0,0.0,0.0,0.0,0.0,0.0,0.0,0.0,-1.8525,-1.9298,-1.9672,-1.9066,0.0,0.0,0.0,0.0,-2.1196,-2.102,-2.0843,-2.0715,-2.0757,-2.0579,-2.0483,-2.0447,0.0,0.0,-2.0416,-2.0548,-2.0648,-2.0659,-2.0702,-2.0387,-1.8638,-1.8517,-1.8457,-1.8037,-1.844,-1.8523,-1.8194,-1.8629,-1.8816,-2.3373,0.0,0.0,0.0,0.0,-2.2997,-2.2825,-2.2763,-2.207,-2.1766,-2.1766,-2.1811,0.0,0.0,0.0,0.0,0.0,0.0,-2.1915,-2.203,-2.2262,-2.2497,-2.2683,-2.306,-2.3236,-2.3191,-2.305,-2.3062,-2.3179,-2.2538,-2.2359,-2.261,0.0,0.0,0.0,0.0,-2.3614,-2.3755,-2.3851,-2.3979,-2.4119,-2.393,-2.3339,-2.2343,-2.0724,-1.9783,-1.9674,-1.9064,-1.8549,-1.8186,-1.7739,0.0,0.0,0.0,0.0,0.0,0.0,0.0,0.0,0.0,0.0,0.0,0.0,0.0,0.0,0.0,0.0,0.0,0.0,0.0,-1.5898,-1.6508,-1.6869,0.0,0.0,0.0,0.0,0.0,0.0,0.0,0.0,0.0,-1.9706,-1.9803,-1.9987,0.0,0.0,-2.0992,-2.0898,-2.1005,-2.1137,-2.1275,-2.1245,0.0,0.0,-2.1441,-2.1414,-2.1414,-2.1302,-2.1039,-2.0538,-2.0524,-2.0449,-2.0154,-2.0119,-1.9936,-1.9543,-1.9836,-2.0158,-2.0096,-2.0204,-2.0281,-2.0174,-2.0238,-2.0268,-2.522,-2.5204,-2.4353,-2.4046,-2.4009,-2.3693,-2.3571,-2.3522,-2.2927,-2.2677,-2.2677,-2.2739,-2.2739,-2.2764,-2.3286,0.0,0.0,0.0,-2.2598,-2.2615,-2.2821,-2.292,-2.3039,-2.3514,-2.3781,-2.3827,-2.3989,-2.4129,-2.42,-2.401,-2.3975,-2.4047,0.0,0.0,-2.3155,-2.3606,-2.386,-2.3836,-2.41,-2.4273,-2.4273,-2.4164,-2.3492,-2.2309,-2.1105,-2.0312,-1.991,-1.9239,-1.8708,-1.8305,-1.7913,-1.7458,0.0,0.0,0.0,0.0,0.0,0.0,0.0,0.0,0.0,0.0,0.0,-1.5183,0.0,0.0,0.0,0.0,-1.6078,-1.6459,-1.6575,-1.7024,0.0,0.0,0.0,0.0,0.0,0.0,0.0,-2.0039,-2.0135,-2.0315,-2.0691,-2.0716,-2.0772,-2.0974,-2.1179,-2.1388,-2.1697,0.0,-2.1797,-2.205,-2.2133,-2.2189,-2.2343,-2.2267,-2.215,-2.2072,-2.1954,-2.1805,-2.1386,-2.1287,-2.1187,-2.0956,-2.0885,-2.0885,-2.0885,-2.1302,-2.125,-2.044,-2.0398,-2.0471,-2.0294,-2.0388,-2.0523,-2.6848,-2.668,-2.4796,-2.4037,-2.4013,-2.4013,-2.3992,-2.4013,-2.4087,-2.4141,-2.4141,-2.4262,-2.434,-2.4344,-2.3996,0.0,-2.3536,-2.3366,-2.3477,-2.3781,-2.3781,-2.3869,-2.4033,-2.445,-2.4665,-2.4703,-2.5168,-2.5472,-2.5643,-2.5449,-2.5394,-2.536,-2.3937,-2.3223,-2.3281,-2.3565,-2.3716,-2.3727,-2.39,-2.3974,-2.3917,-2.3883,-2.33,-2.2236,-2.1677,-2.0984,-2.0048,-1.9048,-1.8721,-1.9074,-1.8275,-1.7773,-1.7684,0.0,0.0,0.0,0.0,0.0,0.0,0.0,0.0,0.0,0.0,0.0,0.0,0.0,0.0,0.0,-1.6426,0.0,-1.7512,-1.7588,0.0,0.0,0.0,-1.8246,-1.9518,-1.9645,-2.0005,-2.0907,0.0,0.0,-2.146,-2.1885,-2.1949,-2.1263,-2.1543,-2.2067,-2.2741,-2.2786,-2.2935,-2.309,-2.3163,-2.3174,-2.304,-2.2859,-2.2636,-2.2432,-2.2482,-2.2391,-2.2361,-2.2381,-2.2411,-2.2331,-2.2421,-2.2391,-2.2431,-2.2321,-2.182,-1.9829,-1.9805,-1.9962,-1.965,-1.9877,-2.0129,-2.6458,-2.6422,-2.5926,-2.5799,-2.5921,-2.5762,-2.5713,-2.5689,-2.548,-2.5314,-2.5158,-2.5338,-2.5552,-2.5763,-2.5299,-2.4966,-2.4761,-2.4305,-2.4302,-2.463,-2.4604,-2.4768,-2.5031,-2.5168,-2.5136,-2.492,-2.5043,-2.5228,-2.5472,-2.5216,-2.5177,-2.5333,-2.4663,-2.4408,-2.4523,-2.4635,-2.4663,-2.4663,-2.4702,-2.4572,-2.4213,-2.372,-2.3297,-2.3028,-2.2066,-2.1446,-2.117,-2.0129,-1.9238,-1.864,-1.8615,-1.8307,-1.7585,-1.7399,0.0,0.0,0.0,0.0,0.0,0.0,0.0,0.0,0.0,-1.5436,-1.5517,0.0,-1.6202,0.0,-1.7339,-1.7844,-1.7807,-1.8428,0.0,0.0,-1.9362,-1.9851,-2.0174,-2.0205,-2.0434,-2.0995,-2.138,-2.1776,-2.2195,-2.2642,-2.2899,-2.2681,-2.2783,-2.2899,-2.3078,-2.3099,-2.314,-2.3174,-2.3225,-2.3103,-2.2961,-2.2727,-2.2543,-2.2287,-2.2287,-2.2205,-2.2101,-2.204,-2.204,-2.205,-2.205,-2.204,-2.207,-2.205,-2.1912,-2.1391,-2.159,-2.1719,-2.1277,-2.1218,-2.1237,-2.7199,-2.7011,-2.687,-2.6909,-2.6952,-2.6494,-2.6306,-2.6271,-2.6075,-2.5946,-2.5883,-2.5983,-2.6085,-2.613,-2.5873,-2.562,-2.5408,-2.5131,-2.5079,-2.5256,-2.5268,-2.5302,-2.5406,-2.5504,-2.5487,-2.5357,-2.5449,-2.5732,-2.6024,-2.5681,-2.5692,-2.5904,-2.5451,-2.5279,-2.5378,-2.4979,-2.4769,-2.4758,-2.4854,-2.4759,-2.4465,-2.3911,-2.3592,-2.3457,-2.2484,-2.1764,-2.1487,-2.0658,-1.9813,-1.9008,-1.8903,-1.8669,-1.8158,-1.7844,-1.7562,0.0,0.0,0.0,0.0,0.0,0.0,0.0,0.0,0.0,0.0,0.0,-1.6945,-1.7091,-1.7708,-1.8081,-1.8171,-1.8785,-1.9254,-1.9379,-1.9665,-2.0073,-2.0686,-2.0747,-2.1039,-2.176,-2.2097,-2.2393,-2.277,-2.3205,-2.3494,-2.3505,-2.366,-2.3722,-2.3536,-2.3494,-2.3567,-2.3743,-2.3711,-2.3493,-2.319,-2.3032,-2.2864,-2.2643,-2.2601,-2.2568,-2.2441,-2.2441,-2.2441,-2.2441,-2.2441,-2.2441,-2.2441,-2.2451,-2.2451,-2.2441,-2.2611,-2.249,-2.1967,-2.1838,-2.1749,-2.8398,-2.7999,-2.7772,-2.7638,-2.7598,-2.6913,-2.6546,-2.6429,-2.6456,-2.6456,-2.6456,-2.6417,-2.6313,-2.6144,-2.6155,-2.6066,-2.5899,-2.5911,-2.5899,-2.5911,-2.5911,-2.5794,-2.561,-2.5801,-2.5883,-2.5864,-2.6072,-2.6407,-2.685,-2.6396,-2.6354,-2.6561,-2.6146,-2.5937,-2.5863,-2.5076,-2.4672,-2.4661,-2.4733,-2.4746,-2.4746,-2.4293,-2.3952,-2.37,-2.2898,-2.2129,-2.1409,-2.0999,-2.0445,-1.9774,-1.9316,-1.9072,-1.9009,-1.8407,-1.7999,0.0,-1.7781,0.0,0.0,0.0,0.0,0.0,0.0,0.0,0.0,-1.7707,-1.7905,-1.7716,-1.795,-1.8275,-1.8622,-1.9093,-1.9544,-1.9905,-1.9715,-2.0015,-2.1215,-2.1376,-2.1707,-2.2625,-2.2808,-2.2931,-2.3206,-2.3681,-2.4011,-2.4115,-2.4457,-2.4592,-2.424,-2.4126,-2.4209,-2.4506,-2.4382,-2.4109,-2.3793,-2.3662,-2.353,-2.3301,-2.3223,-2.3179,-2.3149,-2.3101,-2.3071,-2.3071,-2.3033,-2.3062,-2.3101,-2.3071,-2.3071,-2.3033,-2.3066,-2.2832,-2.222,-2.2004,-2.1953,-2.8633,-2.8553,-2.8499,-2.8456,-2.8476,-2.8291,-2.7803,-2.7065,-2.7203,-2.7272,-2.7272,-2.7094,-2.7025,-2.6984,-2.6984,-2.6944,-2.6915,-2.6903,-2.6903,-2.6915,-2.6903,-2.6811,-2.6619,-2.6505,-2.6345,-2.6149,-2.5988,-2.6188,-2.6644,-2.6365,-2.6313,-2.6592,-2.6271,-2.6074,-2.5895,0.0,0.0,0.0,-2.527,-2.5113,-2.5092,-2.4625,-2.4187,-2.3705,-2.352,0.0,-2.1916,-2.1632,-2.1175,-2.0544,-2.0254,0.0,0.0,0.0,0.0,0.0,0.0,0.0,0.0,0.0,0.0,0.0,-1.8324,-1.8256,-1.7346,-1.7932,-1.8506,-1.8791,-1.9188,-1.9454,-1.9544,-2.0313,-2.0825,-2.0926,-2.1468,-2.197,-2.2251,-2.2231,-2.2352,-2.2533,-2.2876,-2.3192,-2.3482,-2.419,-2.4746,-2.4921,-2.5337,-2.5575,-2.5482,-2.515,-2.4885,-2.4791,-2.468,-2.466,-2.46,-2.4323,-2.4147,-2.4141,-2.3877,-2.3691,-2.3652,-2.3335,-2.311,-2.311,-2.3101,-2.311,-2.3101,-2.3101,-2.3101,-2.3101,-2.3101,-2.2945,-2.25,-2.2393,-2.2295,-2.893,0.0,-2.8689,-2.8689,0.0,-2.8689,-2.8413,-2.7954,-2.8068,-2.8099,-2.8057,-2.7996,-2.7954,-2.7954,-2.7954,-2.7954,-2.7954,-2.7954,-2.7943,-2.7954,-2.7954,-2.787,-2.7786,-2.7575,-2.7417,-2.729,-2.7088,-2.7173,-2.7459,-2.7258,-2.7247,-2.7459,-2.713,-2.6874,-2.6788,-2.6419,-2.6147,-2.5906,-2.5655,-2.5535,-2.5513,-2.5106,-2.4705,-2.4443,0.0,0.0,0.0,0.0,0.0,0.0,0.0,0.0,0.0,0.0,0.0,-1.927,-1.8944,-1.8721,-1.863,-1.873,-1.8758,-1.871,-1.9003,-1.8998,-1.8502,-1.8638,-1.8889,-1.9282,-1.9647,-1.9937,-2.0185,-2.1015,-2.1551,-2.157,-2.1947,-2.2274,-2.2472,-2.248,-2.2732,-2.3215,-2.3484,-2.3781,-2.423,-2.4791,-2.5231,-2.5351,-2.565,-2.585,-2.5694,-2.5485,-2.5241,-2.4882,-2.4816,-2.4746,-2.4608,-2.4506,-2.4424,-2.4385,-2.4238,-2.4121,-2.4102,-2.3926,-2.3676,-2.3481,-2.3467,-2.3364,-2.314,-2.3101,-2.3101,-2.3101,-2.3101,-2.3042,-2.2818,-2.2822,-2.273,-2.941,-2.8976,-2.8964,-2.8964,-2.8976,-2.8953,-2.8964,-2.8953,0.0,0.0,0.0,-2.8689,-2.8689,-2.8689,-2.8689,-2.8689,-2.8689,-2.8689,-2.8689,-2.8689,-2.8689,-2.8689,-2.87,-2.8507,-2.84,-2.8389,-2.8182,-2.8215,-2.8389,-2.8215,-2.8258,-2.8356,-2.7997,-2.7789,-2.7711,-2.7129,-2.6605,-2.6211,-2.5994,-2.5895,-2.5895,-2.5513,-2.5303,-2.5215,-2.4803,-2.4208,-2.3332,-2.286,-2.2288,-2.1572,-2.1114,-2.0876,-2.0793,-2.0746,-2.0643,-2.0364,-2.0307,-2.0208,-1.9989,-2.0022,-2.0038,-1.9989,-1.9868,-1.9797,-1.9836,-1.9419,-1.9407,-1.995,-2.0144,-2.041,-2.0811,-2.1504,-2.2002,-2.1992,-2.206,-2.2285,-2.2676,-2.2734,-2.3134,-2.3944,-2.4137,-2.4376,-2.4911,-2.53,-2.5528,-2.5574,-2.5849,-2.5905,-2.5666,-2.5543,-2.5375,-2.5152,-2.5092,-2.4893,-2.4715,-2.4697,-2.4648,-2.4727,-2.4619,-2.4531,-2.4521,-2.4473,-2.4277,-2.3955,-2.3896,-2.3721,-2.3325,-2.3247,-2.3179,-2.3101,-2.3101,-2.3101,-2.3101,-2.3091,-2.3071,-3.0247,-2.9998,-2.9998,-3.0009,-2.9964,-2.9998,-3.0009,-2.9929,-2.9091,-2.8689,-2.8689,-2.8689,-2.8689,-2.8689,-2.8689,-2.8689,-2.8689,-2.8689,-2.8689,0.0,-2.8689,-2.8689,-2.87,-2.8507,-2.84,-2.84,-2.8226,-2.8215,-2.8389,-2.84,-2.8389,-2.84,-2.8345,-2.8226,-2.804,-2.7711,-2.7513,-2.7436,-2.6417,-2.5895,-2.5895,-2.583,-2.559,-2.5237,-2.515,-2.4766,-2.4079,-2.3766,-2.3475,-2.3173,-2.2941,-2.2615,-2.2232,-2.219,-2.192,-2.1359,-2.1128,-2.0938,-2.067,-2.0869,-2.1163,-2.1525,-2.1564,-2.1085,-2.0026,-2.0193,-2.0674,-2.1456,-2.1523,-2.1621,-2.1728,-2.2148,-2.2451,-2.2461,-2.2711,-2.3135,-2.3535,-2.3584,-2.3769,-2.4294,-2.4372,-2.4484,-2.4871,-2.5252,-2.5601,-2.5792,-2.6057,-2.6302,-2.6022,-2.568,-2.5583,-2.5765,-2.573,-2.5605,-2.5459,-2.5489,-2.5421,-2.5508,-2.5195,-2.498,-2.4971,-2.4727,-2.4482,-2.4336,-2.4336,-2.416,-2.3789,-2.3701,-2.3555,-2.3257,-2.3149,-2.313,-2.312,-2.3101,-2.3101,-3.0532,-3.0397,-3.0261,-3.0216,-3.0216,-3.0216,-3.0216,-3.0181,-2.9722,-2.9527,-2.9527,-2.9515,-2.9527,-2.9515,-2.966,-2.9737,-2.9748,-2.9892,-2.9948,-2.9948,-2.9792,-2.9748,-2.9692,-2.9494,-2.9361,-2.9372,-2.9272,-2.9272,-2.9361,-2.9361,-2.9405,-2.9361,-2.9283,-2.9105,-2.8847,-2.8489,-2.831,-2.8244,-2.6953,-2.6289,-2.6299,-2.6037,-2.5797,-2.5579,-2.5568,-2.5256,-2.4616,-2.4444,-2.4124,-2.3517,-2.3426,-2.3201,-2.2924,-2.2873,-2.2701,-2.2297,-2.2049,-2.18,-2.156,-2.1596,-2.167,-2.1875,-2.1936,-2.1748,-2.1367,-2.1299,-2.1486,-2.1855,-2.208,-2.2227,-2.2256,-2.2812,-2.3213,-2.3203,-2.3584,-2.3861,-2.4082,-2.4131,-2.4297,-2.4678,-2.4766,-2.491,-2.5259,-2.5599,-2.5851,-2.5966,-2.6204,-2.6197,-2.61,-2.5807,-2.5633,-2.5819,-2.5771,-2.5732,-2.5684,-2.5684,-2.5684,-2.5684,-2.5576,-2.5449,-2.543,-2.5225,-2.5039,-2.4824,-2.4775,-2.459,-2.4219,-2.4131,-2.3945,-2.3613,-2.3496,-2.3428,-2.3188,-2.3101,-2.3101,-3.0713,-3.0679,-3.0454,-3.0363,-3.0306,-3.0216,-3.0261,-3.0306,-3.0295,-3.0306,-3.0363,-3.0318,-3.0306,-3.0306,-3.0578,-3.0679,-3.0724,-3.0927,-3.0984,-3.0984,-3.0781,-3.0668,-3.0668,-3.0397,-3.0306,-3.0261,-3.0227,-3.0216,-3.0216,-3.0216,-3.0216,-3.0182,-3.0045,-2.9863,-2.9658,-2.9263,-2.9038,-2.8982,-2.7745,-2.7031,-2.691,-2.6449,-2.6154,-2.6143,-2.5992,-2.5637,-2.5155,-2.5092,-2.4714,-2.4046,-2.3933,-2.377,-2.3617,-2.3576,-2.3453,-2.3217,-2.299,-2.2783,-2.2575,-2.2409,-2.2335,-2.2345,-2.2382,-2.2536,-2.2767,-2.264,-2.2402,-2.2373,-2.2646,-2.2852,-2.3027,-2.3516,-2.3935,-2.3955,-2.4209,-2.4434,-2.4541,-2.4617,-2.482,-2.5212,-2.5405,-2.5543,-2.5818,-2.6052,-2.6177,-2.6167,-2.6149,-2.61,-2.6052,-2.5868,-2.5732,-2.5684,-2.5684,-2.5684,-2.5684,-2.5684,-2.5684,-2.5684,-2.5674,-2.5645,-2.5645,-2.5664,-2.5615,-2.5293,-2.5225,-2.5039,-2.4678,-2.457,-2.4394,-2.4033,-2.3926,-2.3799,-2.3418,-2.3159,-2.3101,-3.1128,-3.0984,-3.0927,-3.0781,-3.0532,-3.0306,-3.0352,-3.0532,-3.0578,-3.0724,-3.0838,-3.0679,-3.0566,-3.0578,-3.0826,-3.0972,-3.0972,-3.0984,-3.1029,-3.1029,-3.0984,-3.0984,-3.0927,-3.0679,-3.0578,-3.0532,-3.0352,-3.0216,-3.0216,-3.0216,-3.0216,-3.0216,-3.017,-3.0125,-3.0125,-2.9909,-2.9806,-2.9761,-2.9015,-2.8377,-2.7918,-2.7277,-2.6893,-2.6893,-2.6262,-2.5884,-2.583,-2.5621,-2.5515,-2.5399,-2.5135,-2.4935,-2.4756,-2.4735,-2.4522,-2.4096,-2.4063,-2.3945,-2.3667,-2.3644,-2.3601,-2.3664,-2.3765,-2.3885,-2.393,-2.4045,-2.4004,-2.3701,-2.3643,-2.3789,-2.4134,-2.4307,-2.4411,-2.4401,-2.4499,-2.456,-2.5016,-2.5255,-2.5565,-2.5943,-2.6146,-2.636,-2.6342,-2.64,-2.6448,-2.64,-2.6245,-2.6149,-2.61,-2.5965,-2.5781,-2.5732,-2.5732,-2.5732,-2.5684,-2.5684,-2.5684,-2.5684,-2.5684,-2.5684,-2.5684,-2.5684,-2.5645,-2.5605,-2.5615,-2.5439,-2.5176,-2.499,-2.4853,-2.4473,-2.4316,-2.4219,-2.3809,-2.3432,-2.3237,-3.1261,-3.1151,-3.1062,-3.0927,-3.0826,-3.0736,-3.0736,-3.0826,-3.0838,-3.0871,-3.0972,-3.0994,-3.0949,-3.0814,-3.1095,-3.1184,-3.1184,-3.1362,-3.1407,-3.1407,-3.1273,-3.1184,-3.1139,-3.096,-3.0781,-3.0623,-3.0487,-3.0352,-3.0216,-3.0216,-3.0216,-3.0216,-3.0216,-3.0216,-3.0216,-3.0136,-3.0102,-3.0045,-2.9761,-2.9556,-2.9238,-2.8229,-2.7651,-2.7586,-2.7203,-2.682,-2.6567,-2.6332,-2.6021,-2.5634,-2.5475,-2.5338,-2.5062,-2.5073,-2.4999,-2.4796,-2.4788,-2.4617,-2.4233,-2.4484,-2.4635,-2.4635,-2.4706,-2.4761,-2.4761,-2.484,-2.4858,-2.4937,-2.4637,-2.4477,-2.4664,-2.4974,-2.5225,-2.5265,-2.5444,-2.5682,-2.5899,-2.6024,-2.6172,-2.6322,-2.64,-2.6496,-2.6496,-2.6496,-2.6496,-2.6496,-2.64,-2.6362,-2.6362,-2.6255,-2.6217,-2.6169,-2.6169,-2.6014,-2.5781,-2.5684,-2.5684,-2.5684,-2.5684,-2.5684,-2.5732,-2.5684,-2.5684,-2.5684,-2.5732,-2.5684,-2.5518,-2.5439,-2.5332,-2.4932,-2.4531,-2.4355,-2.4189,-2.4023,-2.3838,-3.1395,-3.1362,-3.1338,-3.1319,-3.1331,-3.1382,-3.1441,-3.1532,-3.1532,-3.1577,-3.1634,-3.1803,-3.1758,-3.1632,-3.1505,-3.1383,-3.1439,-3.1617,-3.1705,-3.1661,-3.1484,-3.1395,-3.1395,-3.1184,-3.1005,-3.0814,-3.0724,-3.0589,-3.0352,-3.0306,-3.0261,-3.0216,-3.0216,-3.0216,-3.0216,-3.0216,-3.0216,-3.0216,-3.0216,-3.0216,-3.0067,-2.9193,-2.8597,-2.8374,-2.802,-2.7611,-2.7224,-2.6986,-2.6671,-2.6097,-2.6076,-2.5937,-2.5701,-2.5712,-2.568,-2.5615,-2.5597,-2.5487,-2.5153,-2.5405,-2.5599,-2.5508,-2.5554,-2.5543,-2.5528,-2.5526,-2.5671,-2.5876,-2.5628,-2.5365,-2.5338,-2.5681,-2.5946,-2.5986,-2.6325,-2.6496,-2.6486,-2.6554,-2.6592,-2.6592,-2.6699,-2.6736,-2.6688,-2.6736,-2.6736,-2.6784,-2.68,-2.6822,-2.6804,-2.6847,-2.6899,-2.6858,-2.6878,-2.6612,-2.6044,-2.5975,-2.5936,-2.5936,-2.5975,-2.5975,-2.5927,-2.5927,-2.582,-2.5917,-2.5878,-2.5771,-2.5654,-2.5615,-2.5615,-2.5303,-2.4922,-2.4629,-2.46,-2.4512,-2.4297,-3.1705,-3.1713,-3.1989,-3.2055,-3.2091,-3.2311,-3.2582,-3.2697,-3.2733,-3.292,-3.3094,-3.3106,-3.32,-3.3033,-3.2178,-3.1685,-3.1697,-3.1801,-3.1813,-3.1813,-3.1733,-3.1685,-3.1673,-3.1439,-3.1285,-3.1264,-3.1062,-3.0871,-3.0566,-3.0578,-3.0442,-3.0261,-3.0261,-3.0216,-3.0261,-3.0273,-3.0216,-3.0216,-3.0216,-3.0216,-3.0216,-3.0102,-2.9692,-2.9148,-2.8496,-2.8009,-2.7755,-2.7668,-2.7492,-2.7228,-2.7151,-2.7074,-2.6908,-2.6897,-2.6754,-2.663,-2.6628,-2.6615,-2.657,-2.6589,-2.6542,-2.6361,-2.6433,-2.6455,-2.6253,-2.6351,-2.6468,-2.6494,-2.6652,-2.6642,-2.6431,-2.6431,-2.6502,-2.6464,-2.6504,-2.6544,-2.6544,-2.6794,-2.6842,-2.6931,-2.7184,-2.7332,-2.7287,-2.7262,-2.7307,-2.7342,-2.7472,-2.7562,-2.7564,-2.7711,-2.7783,-2.7763,-2.7723,-2.7522,-2.6728,-2.6462,-2.649,-2.6362,-2.6314,-2.64,-2.6448,-2.6448,-2.6294,-2.6149,-2.611,-2.6014,-2.5781,-2.5684,-2.5723,-2.5527,-2.5293,-2.5088,-2.5049,-2.4687,-2.4502,-3.2394,-3.2707,-3.2819,-3.2845,-3.2869,-3.2956,-3.3086,-3.3121,-3.3133,-3.3179,-3.3284,-3.3296,-3.3284,-3.326,-3.3059,-3.2832,-3.2741,-3.2707,-3.2707,-3.2695,-3.2707,-3.2707,-3.2671,-3.2268,-3.1953,-3.1758,-3.1383,-3.1095,-3.0871,-3.0871,-3.0826,-3.0736,-3.0691,-3.0691,-3.0691,-3.0703,-3.0646,-3.0487,-3.0454,-3.0397,-3.0216,-3.0216,-3.0079,-2.9828,-2.9477,-2.9071,-2.8699,-2.8333,-2.7966,-2.7569,-2.7414,-2.7271,-2.7227,-2.7183,-2.7094,-2.6959,-2.7173,-2.7299,-2.7139,-2.7338,-2.7508,-2.7427,-2.745,-2.7452,-2.74,-2.7432,-2.7478,-2.7478,-2.7526,-2.7536,-2.7431,-2.7204,-2.7023,-2.7023,-2.7023,-2.7044,-2.7023,-2.7129,-2.7222,-2.751,-2.7865,-2.8121,-2.8118,-2.811,-2.8121,-2.8142,-2.8177,-2.82,-2.8231,-2.8285,-2.8379,-2.8388,-2.8317,-2.8225,-2.7959,-2.7276,-2.6868,-2.6607,-2.6496,-2.6516,-2.6564,-2.6554,-2.6448,-2.64,-2.6352,-2.6304,-2.611,-2.5965,-2.5917,-2.5693,-2.5517,-2.543,-2.5498,-2.5176,-2.501,-3.2959,-3.3284,-3.3464,-3.3537,-3.3549,-3.3717,-3.3777,-3.3789,-3.3789,-3.3789,-3.3777,-3.3883,-3.3931,-3.3931,-3.4153,-3.4153,-3.4023,-3.3673,-3.3458,-3.3423,-3.3411,-3.3377,-3.3236,-3.2923,-3.2652,-3.2454,-3.2144,-3.1758,-3.1366,-3.1354,-3.1227,-3.0984,-3.0984,-3.0984,-3.0984,-3.0984,-3.0883,-3.0769,-3.0724,-3.0634,-3.0454,-3.0454,-3.0408,-3.0363,-3.0182,-2.9908,-2.9432,-2.9049,-2.8734,-2.8299,-2.8054,-2.7864,-2.7774,-2.7785,-2.774,-2.7637,-2.7863,-2.7991,-2.7828,-2.8107,-2.8233,-2.8139,-2.8139,-2.8092,-2.7987,-2.7987,-2.7987,-2.7987,-2.7998,-2.803,-2.8142,-2.7957,-2.7704,-2.761,-2.7662,-2.7756,-2.7777,-2.7913,-2.8132,-2.8415,-2.8687,-2.8825,-2.8767,-2.8747,-2.8676,-2.8618,-2.8721,-2.8825,-2.8835,-2.898,-2.9052,-2.9052,-2.9074,-2.9002,-2.8745,-2.8276,-2.7841,-2.7566,-2.71,-2.697,-2.6851,-2.681,-2.6729,-2.6661,-2.6602,-2.6592,-2.6448,-2.6245,-2.6052,-2.5868,-2.5684,-2.5567,-2.5615,-2.5645,-2.5469,-3.3308,-3.3487,-3.379,-3.3994,-3.4066,-3.4499,-3.4775,-3.4703,-3.4739,-3.4715,-3.4715,-3.5041,-3.5041,-3.5186,-3.528,-3.5534,-3.5266,-3.4551,-3.4066,-3.3801,-3.3764,-3.3625,-3.3522,-3.3391,-3.3236,-3.3166,-3.3248,-3.2809,-3.2172,-3.2079,-3.1798,-3.1227,-3.1227,-3.1286,-3.1099,-3.1192,-3.1076,-3.1031,-3.1064,-3.0984,-3.0984,-3.0939,-3.0826,-3.0634,-3.0578,-3.0397,-2.9932,-2.984,-2.9658,-2.9407,-2.9177,-2.9013,-2.8729,-2.8672,-2.8749,-2.8637,-2.876,-2.8771,-2.8724,-2.8735,-2.8617,-2.843,-2.8395,-2.8301,-2.8128,-2.8124,-2.8156,-2.8177,-2.822,-2.829,-2.8673,-2.8759,-2.8514,-2.8168,-2.8391,-2.8603,-2.8747,-2.9136,-2.9483,-2.9455,-2.9491,-2.9367,-2.9147,-2.9163,-2.9166,-2.9017,-2.9124,-2.9352,-2.9373,-2.9621,-2.987,-2.9901,-2.9756,-2.957,-2.9435,-2.928,-2.896,-2.8661,-2.8126,-2.7778,-2.7626,-2.7554,-2.7242,-2.7122,-2.6921,-2.6853,-2.6651,-2.6448,-2.6235,-2.6052,-2.5917,-2.5732,-2.5684,-2.5684,-2.5684,-3.4456,-3.4594,-3.4763,-3.4727,-3.4595,-3.4715,-3.4884,-3.5078,-3.5066,-3.5175,-3.532,-3.5416,-3.5464,-3.5512,-3.5764,-3.586,-3.5835,-3.5665,-3.5422,-3.5032,-3.495,-3.489,-3.4734,-3.4313,-3.3808,-3.3391,-3.3284,-3.3212,-3.2975,-3.2927,-3.2785,-3.2632,-3.255,-3.2562,-3.249,-3.2215,-3.1967,-3.1727,-3.1407,-3.1139,-3.1029,-3.0996,-3.0984,-3.0883,-3.0871,-3.0748,-3.0408,-3.0057,-2.9886,-2.9783,-2.9531,-2.9255,-2.9035,-2.8885,-2.8803,-2.8803,-2.8803,-2.8803,-2.8803,-2.8814,-2.8779,-2.8675,-2.8686,-2.8664,-2.8603,-2.8838,-2.9001,-2.9055,-2.9304,-2.9596,-2.9694,-2.9737,-2.9516,-2.9106,-2.9174,-2.927,-2.9394,-2.9686,-2.987,-2.9955,-3.02,-3.0319,-3.0268,-3.0196,-3.0143,-3.0,-3.0066,-3.0046,-3.0047,-3.0016,-2.9984,-2.9994,-2.9973,-3.0068,-2.9881,-2.9797,-2.9673,-2.9309,-2.8823,-2.8421,-2.8286,-2.8048,-2.7734,-2.7548,-2.7335,-2.7116,-2.6903,-2.6651,-2.6448,-2.6187,-2.6052,-2.5868,-2.5732,-2.5684,-2.5684,-3.5218,-3.5356,-3.5368,-3.5223,-3.5078,-3.5078,-3.5187,-3.532,-3.5368,-3.5476,-3.562,-3.5716,-3.5764,-3.5812,-3.6051,-3.6146,-3.6146,-3.631,-3.6216,-3.5895,-3.5764,-3.5716,-3.5584,-3.5098,-3.4579,-3.4123,-3.4003,-3.3847,-3.3585,-3.3573,-3.3464,-3.332,-3.3284,-3.3272,-3.3272,-3.2984,-3.2699,-3.2524,-3.2215,-3.2003,-3.1879,-3.1833,-3.1776,-3.1707,-3.1541,-3.13,-3.0993,-3.0479,-3.0102,-3.0011,-2.9783,-2.9497,-2.9128,-2.8989,-2.8896,-2.8803,-2.8803,-2.8803,-2.8814,-2.8978,-2.9066,-2.9088,-2.9241,-2.9314,-2.9358,-2.9631,-2.9751,-2.9816,-3.0002,-3.0286,-3.0428,-3.0472,-3.04,-3.0346,-3.0123,-3.0134,-3.0274,-3.0493,-3.0654,-3.074,-3.0933,-3.1043,-3.0983,-3.0931,-3.0931,-3.0827,-3.0672,-3.0557,-3.0505,-3.0401,-3.0308,-3.0308,-3.036,-3.036,-3.0308,-3.0287,-3.0287,-2.9921,-2.9444,-2.9072,-2.8825,-2.8473,-2.8134,-2.801,-2.7855,-2.7589,-2.7383,-2.6992,-2.6699,-2.6448,-2.6189,-2.5955,-2.5771,-2.5732,-2.5684,-3.5608,-3.562,-3.562,-3.562,-3.5572,-3.5572,-3.5572,-3.562,-3.562,-3.5668,-3.5764,-3.5908,-3.6003,-3.6098,-3.6275,-3.637,-3.6417,-3.637,-3.6417,-3.6275,-3.6146,-3.5908,-3.5644,-3.5547,-3.5342,-3.5137,-3.5101,-3.4799,-3.4209,-3.4137,-3.3849,-3.3583,-3.3583,-3.3416,-3.3489,-3.338,-3.332,-3.3274,-3.3248,-3.3118,-3.313,-3.3166,-3.3095,-3.2803,-3.241,-3.2035,-3.1747,-3.1122,-3.0581,-3.025,-2.9966,-2.9657,-2.9277,-2.9139,-2.9077,-2.897,-2.888,-2.8978,-2.9022,-2.9303,-2.9521,-2.9554,-2.986,-3.0209,-3.01,-3.0144,-3.0242,-3.0253,-3.0362,-3.0537,-3.0854,-3.0941,-3.1077,-3.1393,-3.1059,-3.1037,-3.1469,-3.1524,-3.1378,-3.1462,-3.1567,-3.1476,-3.123,-3.123,-3.1137,-3.0983,-3.0879,-3.0827,-3.0776,-3.0724,-3.0776,-3.0724,-3.062,-3.062,-3.0516,-3.0516,-3.0516,-3.0411,-3.0034,-2.9785,-2.9423,-2.9019,-2.8524,-2.8411,-2.8307,-2.8079,-2.7834,-2.7434,-2.7056,-2.6746,-2.6415,-2.6063,-2.5868,-2.5732,-2.5684,-3.6086,-3.592,-3.5908,-3.5764,-3.562,-3.5633,-3.5716,-3.5872,-3.5908,-3.6003,-3.6181,-3.6263,-3.6275,-3.631,-3.6358,-3.6417,-3.6417,-3.6417,-3.6417,-3.6405,-3.631,-3.6146,-3.5955,-3.592,-3.5777,-3.5524,-3.5512,-3.5391,-3.5172,-3.4932,-3.4763,-3.4678,-3.4438,-3.439,-3.439,-3.4018,-3.3814,-3.3742,-3.3464,-3.332,-3.3332,-3.3332,-3.3284,-3.3214,-3.3047,-3.2859,-3.2568,-3.202,-3.1217,-3.0273,-3.0011,-2.984,-2.9736,-2.9738,-2.9692,-2.9631,-2.9715,-2.9805,-2.9827,-2.9936,-3.0013,-3.0024,-3.0199,-3.022,-3.0231,-3.0526,-3.0679,-3.0788,-3.1018,-3.1269,-3.14,-3.1411,-3.1509,-3.1564,-3.1465,-3.1444,-3.1575,-3.1567,-3.1567,-3.1567,-3.1618,-3.1567,-3.1578,-3.1476,-3.1476,-3.1373,-3.1219,-3.1075,-3.1075,-3.0972,-3.0931,-3.0827,-3.0776,-3.0776,-3.0776,-3.0776,-3.0776,-3.0724,-3.0618,-3.0524,-3.0158,-2.9803,-2.9182,-2.8709,-2.8628,-2.8462,-2.8286,-2.8002,-2.7554,-2.7097,-2.6719,-2.6346,-2.5917,-2.5693,-2.5684,-3.631,-3.6133,-3.6146,-3.6086,-3.5943,-3.5943,-3.6038,-3.6146,-3.6193,-3.6241,-3.637,-3.6417,-3.6417,-3.6417,-3.6417,-3.6417,-3.6417,-3.6417,-3.6417,-3.6417,-3.6417,-3.6323,-3.6193,-3.6193,-3.6051,-3.5764,-3.5764,-3.5716,-3.556,-3.5464,-3.5368,-3.5331,-3.5235,-3.5078,-3.4909,-3.4715,-3.4474,-3.433,-3.4078,-3.3933,-3.3933,-3.3933,-3.3945,-3.3885,-3.3741,-3.3431,-3.2911,-3.2571,-3.1985,-3.1171,-3.0835,-3.0661,-3.0544,-3.0535,-3.044,-3.0249,-3.031,-3.0345,-3.0253,-3.0373,-3.0493,-3.0548,-3.0646,-3.0788,-3.0815,-3.1061,-3.1203,-3.1247,-3.1487,-3.1534,-3.1567,-3.1567,-3.1567,-3.1618,-3.1721,-3.1721,-3.1629,-3.1721,-3.1772,-3.1823,-3.1874,-3.1986,-3.1986,-3.1885,-3.1772,-3.1732,-3.1527,-3.1424,-3.1322,-3.123,-3.1127,-3.1137,-3.1075,-3.1127,-3.1127,-3.1127,-3.1127,-3.1075,-3.1023,-3.1023,-3.0732,-3.0386,-2.9929,-2.938,-2.9072,-2.8876,-2.8752,-2.8487,-2.8041,-2.7569,-2.7097,-2.6633,-2.6212,-2.5888,-2.5849,-3.6417,-3.6417,-3.6417,-3.6417,-3.637,-3.6417,-3.637,-3.6417,-3.637,-3.637,-3.6417,-3.6417,-3.6417,-3.6417,-3.6417,-3.6417,-3.6417,-3.6417,-3.6417,-3.6417,-3.6417,-3.637,-3.637,-3.637,-3.6241,-3.6051,-3.6051,-3.5908,-3.5812,-3.5716,-3.5668,-3.562,-3.562,-3.5476,-3.5271,-3.5187,-3.5066,-3.4872,-3.4739,-3.4679,-3.4631,-3.4631,-3.4619,-3.4522,-3.4258,-3.3851,-3.3398,-3.3125,-3.2818,-3.2369,-3.2014,-3.1615,-3.1422,-3.1431,-3.1258,-3.0964,-3.0896,-3.0827,-3.0548,-3.091,-3.1024,-3.104,-3.1345,-3.1567,-3.1469,-3.1469,-3.1491,-3.1531,-3.1567,-3.1618,-3.168,-3.1669,-3.1732,-3.1783,-3.1975,-3.1924,-3.1772,-3.1924,-3.2077,-3.2077,-3.2331,-3.2443,-3.2443,-3.228,-3.2077,-3.2077,-3.1885,-3.1834,-3.1772,-3.1618,-3.1578,-3.1578,-3.1527,-3.1527,-3.1527,-3.1527,-3.1476,-3.1476,-3.1424,-3.1322,-3.1023,-3.0721,-3.0494,-3.015,-2.9662,-2.9424,-2.9342,-2.8962,-2.8491,-2.8005,-2.7552,-2.7053,-2.6635,-2.6358,-2.6191,-3.6417,-3.6417,-3.6417,-3.6417,-3.6417,-3.6417,-3.6417,-3.6417,-3.6417,-3.6417,-3.6417,-3.6417,-3.6417,-3.6417,-3.6417,-3.6417,-3.6417,-3.6417,-3.6417,-3.6417,-3.6417,-3.6417,-3.6417,-3.6417,-3.637,-3.6323,-3.6323,-3.6275,-3.6181,-3.6003,-3.5908,-3.5908,-3.5764,-3.5572,-3.5524,-3.5524,-3.538,-3.5187,-3.5126,-3.4981,-3.4872,-3.4823,-3.4823,-3.4811,-3.4643,-3.4558,-3.4378,-3.4197,-3.4052,-3.3656,-3.2814,-3.2108,-3.189,-3.1937,-3.189,-3.1822,-3.1955,-3.1934,-3.1716,-3.1638,-3.1658,-3.1494,-3.1571,-3.1567,-3.1567,-3.1618,-3.1629,-3.1629,-3.1567,-3.171,-3.1874,-3.1924,-3.2037,-3.219,-3.2342,-3.2342,-3.2342,-3.2342,-3.2392,-3.2392,-3.2493,-3.2493,-3.2544,-3.2493,-3.2392,-3.2392,-3.2342,-3.2291,-3.219,-3.2026,-3.1975,-3.1924,-3.1885,-3.1823,-3.1772,-3.1772,-3.1669,-3.1669,-3.1629,-3.1567,-3.127,-3.1023,-3.0765,-3.0443,-3.013,-2.9922,-2.9746,-2.9456,-2.9003,-2.8472,-2.7954,-2.752,-2.7099,-2.681,-2.6493,-3.6417,-3.6417,-3.6417,-3.6417,-3.6417,-3.6417,-3.6417,-3.6417,-3.6417,-3.6417,-3.6417,-3.6417,-3.6417,-3.6417,-3.6417,-3.6417,-3.6417,-3.6417,-3.6417,-3.6417,-3.6417,-3.6417,-3.6417,-3.6417,-3.6417,-3.643,-3.6417,-3.6417,-3.637,-3.6288,-3.6193,-3.6193,-3.6038,-3.5943,-3.5812,-3.5812,-3.562,-3.5428,-3.5368,-3.5271,-3.503,-3.4981,-3.492,-3.4823,-3.4775,-3.4775,-3.4739,-3.4653,-3.4519,-3.4242,-3.3608,-3.3025,-3.2732,-3.2658,-3.2598,-3.2528,-3.2576,-3.2544,-3.2331,-3.2229,-3.2167,-3.2037,-3.2026,-3.2026,-3.2037,-3.2037,-3.2037,-3.2037,-3.2037,-3.2088,-3.2229,-3.2218,-3.2342,-3.2454,-3.2606,-3.2656,-3.2656,-3.2656,-3.2667,-3.2718,-3.2818,-3.2869,-3.2869,-3.2757,-3.2718,-3.2667,-3.2493,-3.2443,-3.2392,-3.228,-3.228,-3.2229,-3.2139,-3.2088,-3.2026,-3.1975,-3.1874,-3.1772,-3.168,-3.1629,-3.1476,-3.1178,-3.0931,-3.0609,-3.0339,-3.0141,-2.9953,-2.9673,-2.9415,-2.8919,-2.8394,-2.7907,-2.7493,-2.7121,-2.6904,-3.6417,-3.6417,-3.6417,-3.6417,-3.6417,-3.6417,-3.6417,-3.6417,-3.6417,-3.6417,-3.6417,-3.6417,-3.6417,-3.643,-3.6556,-3.6568,-3.6694,-3.6732,-3.6845,-3.6797,-3.681,-3.6857,-3.6832,-3.682,-3.682,-3.6656,-3.648,-3.643,-3.6417,-3.6417,-3.637,-3.637,-3.6417,-3.6228,-3.6098,-3.6051,-3.5908,-3.5716,-3.5668,-3.5524,-3.5284,-3.5223,-3.5078,-3.4823,-3.4775,-3.4775,-3.4775,-3.4775,-3.4677,-3.4482,-3.4433,-3.4188,-3.3854,-3.353,-3.3231,-3.2958,-3.2969,-3.2818,-3.2606,-3.2544,-3.2544,-3.2544,-3.2493,-3.2493,-3.2443,-3.2443,-3.2392,-3.2443,-3.2443,-3.2454,-3.2555,-3.2555,-3.2555,-3.2656,-3.2818,-3.2942,-3.2942,-3.293,-3.293,-3.298,-3.3031,-3.3131,-3.3131,-3.3031,-3.298,-3.293,-3.2718,-3.2606,-3.2606,-3.2555,-3.2544,-3.2493,-3.2403,-3.2291,-3.224,-3.224,-3.2077,-3.1924,-3.1834,-3.1721,-3.1618,-3.1424,-3.1127,-3.0827,-3.0568,-3.0308,-3.0099,-2.988,-2.9578,-2.9219,-2.8825,-2.8398,-2.793,-2.7483,-2.7295,-3.6417,-3.6417,-3.6417,-3.6417,-3.6417,-3.6417,-3.6417,-3.6417,-3.6417,-3.6417,-3.6417,-3.643,-3.6455,-3.6543,-3.6933,-3.7262,-3.7513,-3.7538,-3.7588,-3.76,-3.7588,-3.7588,-3.7538,-3.7513,-3.76,-3.7462,-3.7021,-3.6568,-3.6518,-3.6417,-3.6606,-3.648,-3.6505,-3.6436,-3.6448,-3.6335,-3.6343,-3.6179,-3.6106,-3.5985,-3.5744,-3.5417,-3.5211,-3.4944,-3.4871,-3.4775,-3.4775,-3.4775,-3.4775,-3.4726,-3.4531,-3.4384,-3.4211,-3.3889,-3.3577,-3.3281,-3.3181,-3.3081,-3.288,-3.283,-3.2706,-3.2544,-3.2544,-3.2544,-3.2544,-3.2544,-3.2606,-3.2606,-3.2594,-3.2606,-3.2818,-3.2875,-3.3003,-3.3092,-3.3273,-3.3346,-3.3384,-3.3407,-3.343,-3.3538,-3.3469,-3.3281,-3.3242,-3.3242,-3.3192,-3.3131,-3.3031,-3.2969,-3.2969,-3.2919,-3.283,-3.2718,-3.2617,-3.2505,-3.2443,-3.2443,-3.2342,-3.2128,-3.1975,-3.1823,-3.1721,-3.1618,-3.1373,-3.1023,-3.0661,-3.0401,-3.0193,-3.0047,-2.9659,-2.9207,-2.8989,-2.878,-2.8315,-2.7822,-2.7783,-3.6417,-3.6417,-3.6417,-3.6417,-3.6417,-3.6417,-3.6417,-3.6417,-3.6417,-3.6417,-3.6505,-3.6694,-3.6832,-3.6935,-3.7374,-3.7776,-3.7965,-3.8002,-3.8002,-3.8002,-3.8002,-3.8002,-3.804,-3.8027,-3.8002,-3.7864,-3.745,-3.7199,-3.7211,-3.7236,-3.7209,-3.7224,-3.7211,-3.7211,-3.7211,-3.7262,-3.7138,-3.7005,-3.6992,-3.6847,-3.6566,-3.5991,-3.56,-3.5453,-3.5028,-3.4835,-3.4775,-3.4775,-3.4775,-3.4775,-3.4677,-3.4543,-3.4479,-3.4424,-3.4208,-3.3673,-3.3427,-3.3304,-3.3142,-3.3081,-3.3019,-3.2969,-3.2942,-3.2919,-3.2908,-3.2908,-3.2914,-3.2942,-3.2919,-3.2969,-3.3081,-3.3309,-3.3586,-3.3857,-3.4046,-3.4287,-3.4423,-3.4474,-3.4376,-3.421,-3.3804,-3.3542,-3.3281,-3.3281,-3.3281,-3.3281,-3.3292,-3.3281,-3.3281,-3.3181,-3.3042,-3.298,-3.293,-3.2869,-3.2757,-3.2706,-3.2606,-3.2392,-3.2128,-3.1975,-3.1823,-3.1669,-3.1476,-3.1127,-3.0817,-3.0453,-3.0297,-3.0151,-2.9669,-2.9237,-2.9092,-2.886,-2.8528,-2.8232,-2.8125,-3.6417,-3.6417,-3.6417,-3.6417,-3.6417,-3.6417,-3.6417,-3.6417,-3.6417,-3.6493,-3.6644,-3.6973,-3.7236,-3.7475,-3.7877,-3.8241,-3.8329,-3.8391,-3.8429,-3.8454,-3.8454,-3.8391,-3.8366,-3.8341,-3.8442,-3.8542,-3.8417,-3.8216,-3.7877,-3.7852,-3.7952,-3.7864,-3.7952,-3.8002,-3.7914,-3.7814,-3.799,-3.8002,-3.8002,-3.7854,-3.7432,-3.6813,-3.6283,-3.6245,-3.5574,-3.5245,-3.5268,-3.528,-3.5268,-3.5256,-3.5171,-3.5048,-3.4936,-3.5146,-3.497,-3.4263,-3.3881,-3.3731,-3.3715,-3.3648,-3.3689,-3.3712,-3.3648,-3.3614,-3.3637,-3.3701,-3.3621,-3.3591,-3.3637,-3.3683,-3.3876,-3.4049,-3.4363,-3.462,-3.4979,-3.5287,-3.5371,-3.5364,-3.5266,-3.4929,-3.4245,-3.4039,-3.4023,-3.3545,-3.3591,-3.3465,-3.3465,-3.3292,-3.3281,-3.3281,-3.3231,-3.3231,-3.3231,-3.3231,-3.3131,-3.3019,-3.2919,-3.2718,-3.2392,-3.2128,-3.1924,-3.1761,-3.1527,-3.1281,-3.0931,-3.0609,-3.0453,-3.0141,-2.9711,-2.9396,-2.9185,-2.892,-2.8504,-2.8301,-2.8232,-3.6417,-3.6417,-3.6417,-3.6417,-3.6417,-3.6417,-3.6417,-3.6417,-3.6417,-3.6694,-3.7023,-3.7199,-3.75,-3.8002,-3.853,-3.9019,-3.9295,-3.9333,-3.9295,-3.927,-3.9308,-3.9308,-3.9421,-3.9484,-3.9295,-3.9258,-3.9346,-3.8881,-3.8404,-3.8178,-3.809,-3.814,-3.8191,-3.8052,-3.8241,-3.8266,-3.8002,-3.804,-3.8065,-3.7929,-3.7717,-3.7494,-3.7182,-3.6845,-3.6535,-3.6275,-3.6076,-3.6014,-3.605,-3.6098,-3.6146,-3.6194,-3.6129,-3.5938,-3.5935,-3.562,-3.5301,-3.4992,-3.4859,-3.4635,-3.4532,-3.4509,-3.459,-3.4642,-3.4567,-3.4544,-3.4555,-3.4624,-3.4619,-3.4618,-3.4767,-3.5015,-3.5177,-3.5378,-3.5622,-3.5744,-3.5812,-3.6275,-3.6176,-3.6041,-3.5493,-3.528,-3.5177,-3.4451,-3.3901,-3.3763,-3.3614,-3.3488,-3.3442,-3.3556,-3.3602,-3.3683,-3.3706,-3.3706,-3.3614,-3.3467,-3.3302,-3.3106,-3.2639,-3.2302,-3.2077,-3.1874,-3.1669,-3.1373,-3.1075,-3.0776,-3.0505,-3.0193,-2.9764,-2.9396,-2.9185,-2.8824,-2.8408,-2.8354,-2.8291,-3.6499,-3.6417,-3.6417,-3.6417,-3.6417,-3.6417,-3.6417,-3.6417,-3.6417,-3.6719,-3.7186,-3.7538,-3.8115,-3.8843,-3.927,-3.9446,-3.9672,-3.9697,-3.9697,-3.9697,-3.9697,-3.9697,-3.9672,-3.9685,-3.9697,-3.9697,-3.9672,-3.9496,-3.9019,-3.8931,-3.8969,-3.8919,-3.8931,-3.9007,-3.8843,-3.8944,-3.8981,-3.8994,-3.8981,-3.8918,-3.8717,-3.8365,-3.7977,-3.7712,-3.715,-3.6826,-3.6662,-3.6449,-3.6411,-3.6411,-3.6411,-3.6411,-3.6495,-3.6549,-3.6689,-3.6661,-3.6635,-3.6168,-3.5531,-3.5328,-3.53,-3.5265,-3.5276,-3.5247,-3.523,-3.5276,-3.5288,-3.5282,-3.523,-3.5317,-3.5514,-3.5718,-3.5991,-3.623,-3.6441,-3.6675,-3.6763,-3.6911,-3.7082,-3.6906,-3.673,-3.6466,-3.608,-3.541,-3.4791,-3.4423,-3.4331,-3.4188,-3.4188,-3.4291,-3.4303,-3.4268,-3.428,-3.4268,-3.4153,-3.405,-3.3804,-3.3514,-3.2831,-3.2532,-3.2252,-3.2026,-3.1892,-3.1552,-3.1097,-3.0838,-3.062,-3.0245,-2.9774,-2.9448,-2.9132,-2.8771,-2.8451,-2.8301,-2.8291,-3.6734,-3.6546,-3.6452,-3.6417,-3.6417,-3.6417,-3.6417,-3.643,-3.6581,-3.6933,-3.7462,-3.8115,-3.8944,-3.9509,-3.9647,-3.9659,-3.9697,-3.9697,-3.9697,-3.9697,-3.9697,-3.9697,-3.9697,-3.9697,-3.9697,-3.9697,-3.9697,-3.9622,-3.9647,-3.9622,-3.9572,-3.9697,-3.9521,-3.9597,-3.9659,-3.9597,-3.9546,-3.9546,-3.9559,-3.9584,-3.9482,-3.9092,-3.8789,-3.8474,-3.7921,-3.7358,-3.7217,-3.7112,-3.6958,-3.6867,-3.6904,-3.6952,-3.6988,-3.7228,-3.732,-3.738,-3.7421,-3.7156,-3.6559,-3.6201,-3.602,-3.5968,-3.5968,-3.6068,-3.6021,-3.5968,-3.598,-3.6057,-3.6045,-3.6062,-3.6178,-3.6508,-3.676,-3.7084,-3.7345,-3.7707,-3.7921,-3.77,-3.7628,-3.7527,-3.741,-3.7411,-3.6973,-3.6332,-3.5789,-3.5224,-3.4975,-3.4854,-3.4842,-3.4865,-3.4762,-3.4659,-3.4636,-3.4624,-3.4555,-3.4429,-3.4257,-3.4005,-3.3356,-3.2948,-3.2822,-3.2542,-3.235,-3.1867,-3.1331,-3.0995,-3.0757,-3.0297,-2.9837,-2.9459,-2.9079,-2.8814,-2.8558,-2.8398,-2.8291,-3.7062,-3.7028,-3.6606,-3.6417,-3.6417,-3.6417,-3.6417,-3.6502,-3.6933,-3.7461,-3.8164,-3.9045,-3.9599,-3.9736,-3.98,-3.98,-3.9749,-3.9697,-3.98,-3.9749,-3.9697,-3.9749,-3.9749,-3.9749,-3.9749,-3.9697,-3.9697,-3.9697,-3.9697,-3.9697,-3.9697,-3.9697,-3.9697,-3.9697,-3.9697,-3.9697,-3.9697,-3.9697,-3.9697,-3.9697,-3.9697,-3.9545,-3.9417,-3.9262,-3.9082,-3.8874,-3.8339,-3.8101,-3.7936,-3.7714,-3.769,-3.7649,-3.7613,-3.7721,-3.7781,-3.7829,-3.7825,-3.7724,-3.7426,-3.7086,-3.6997,-3.699,-3.6973,-3.6909,-3.6915,-3.6973,-3.6979,-3.6903,-3.6879,-3.7039,-3.7228,-3.7501,-3.75,-3.7618,-3.7772,-3.7861,-3.7986,-3.7962,-3.7914,-3.7962,-3.7933,-3.7838,-3.7691,-3.7009,-3.645,-3.588,-3.5389,-3.5267,-3.5164,-3.5152,-3.5037,-3.4946,-3.4911,-3.4888,-3.4865,-3.4773,-3.4727,-3.4584,-3.4095,-3.3835,-3.3664,-3.3293,-3.2798,-3.2343,-3.1866,-3.1367,-3.0946,-3.0663,-3.0187,-2.9497,-2.9026,-2.8814,-2.8558,-2.8344,-2.8291,-3.7261,-3.7062,-3.6922,-3.6841,-3.6841,-3.6828,-3.6841,-3.693,-3.7451,-3.8214,-3.9079,-3.9829,-4.0198,-4.0198,-4.0198,-4.0198,-4.0198,-4.0198,-4.016,-4.0211,-4.0198,-4.0096,-4.0044,-3.9942,-3.9878,-3.9736,-3.9749,-3.9697,-3.9697,-3.9749,-3.9697,-3.9697,-3.9697,-3.9697,-3.9697,-3.9697,-3.9697,-3.9697,-3.9697,-3.9697,-3.9697,-3.9697,-3.9645,-3.9594,-3.9374,-3.9206,-3.8921,-3.8554,-3.8409,-3.825,-3.8092,-3.8027,-3.7974,-3.7974,-3.7974,-3.7974,-3.7974,-3.7974,-3.7974,-3.7773,-3.7667,-3.7667,-3.7643,-3.7613,-3.7613,-3.7601,-3.7655,-3.7643,-3.7601,-3.7667,-3.7761,-3.7814,-3.7856,-3.7974,-3.7974,-3.7974,-3.7974,-3.7974,-3.7974,-3.7986,-3.7986,-3.7933,-3.7838,-3.7655,-3.7097,-3.654,-3.6044,-3.568,-3.5577,-3.5531,-3.5462,-3.5439,-3.5428,-3.5485,-3.5485,-3.5382,-3.5244,-3.5035,-3.4827,-3.4551,-3.4232,-3.3699,-3.3182,-3.2745,-3.2404,-3.1945,-3.154,-3.1176,-3.058,-2.9718,-2.9166,-2.8867,-2.8611,-2.832,-2.8237,-3.7505,-3.7366,-3.7366,-3.7261,-3.7108,-3.7108,-3.7108,-3.7249,-3.7928,-3.8864,-3.9914,-4.0337,-4.0504,-4.0504,-4.0504,-4.0453,-4.0453,-4.0453,-4.0453,-4.0453,-4.0402,-4.0389,-4.0287,-4.0185,-4.0147,-3.9942,-3.9942,-3.9942,-3.9839,-3.9839,-3.98,-3.9749,-3.9697,-3.9697,-3.9697,-3.9697,-3.9697,-3.9697,-3.9697,-3.9697,-3.9697,-3.9697,-3.9697,-3.9697,-3.9542,-3.9374,-3.9154,-3.8776,-3.8514,-3.8368,-3.8198,-3.8027,-3.7974,-3.7974,-3.7974,-3.7974,-3.7974,-3.7974,-3.7974,-3.7974,-3.7986,-3.7921,-3.7921,-3.7974,-3.7974,-3.7974,-3.7921,-3.7921,-3.7974,-3.7974,-3.7974,-3.7986,-3.7986,-3.7974,-3.7974,-3.7974,-3.7974,-3.7974,-3.7974,-3.7974,-3.7986,-3.7986,-3.7826,-3.7625,-3.7162,-3.6649,-3.631,-3.6044,-3.6002,-3.5979,-3.6025,-3.6025,-3.6048,-3.6128,-3.6208,-3.5933,-3.5703,-3.5726,-3.5451,-3.5058,-3.4634,-3.4153,-3.3687,-3.3278,-3.2879,-3.2468,-3.2004,-3.15,-3.0733,-2.9823,-2.9383,-2.8931,-2.8735,-2.8496,-2.8169,-3.7854,-3.7913,-3.7854,-3.7551,-3.7168,-3.7108,-3.7134,-3.7445,-3.8422,-3.9488,-4.0426,-4.0555,-4.0555,-4.0555,-4.0605,-4.0669,-4.0605,-4.0605,-4.0618,-4.0605,-4.0656,-4.0555,-4.0504,-4.0504,-4.0453,-4.0453,-4.0351,-4.0249,-4.007,-4.0083,-3.9993,-3.9852,-3.98,-3.9749,-3.9697,-3.9697,-3.9697,-3.9697,-3.9697,-3.9697,-3.9697,-3.9697,-3.9697,-3.9697,-3.9645,-3.9542,-3.9322,-3.905,-3.8724,-3.8461,-3.8198,-3.808,-3.7974,-3.7974,-3.7974,-3.7974,-3.7974,-3.7974,-3.7974,-3.7974,-3.7974,-3.7974,-3.7974,-3.7974,-3.7974,-3.7974,-3.7974,-3.7974,-3.7974,-3.7974,-3.7974,-3.7974,-3.7974,-3.7974,-3.7974,-3.7974,-3.7974,-3.7974,-3.7974,-3.7974,-3.7986,-3.7986,-3.7773,-3.7507,-3.7078,-3.6742,-3.6472,-3.6375,-3.632,-3.6266,-3.6266,-3.6266,-3.6266,-3.6266,-3.6266,-3.6266,-3.6174,-3.6208,-3.5965,-3.5489,-3.5205,-3.4888,-3.4427,-3.3879,-3.3376,-3.2904,-3.2353,-3.1785,-3.1131,-3.0429,-2.9486,-2.9015,-2.8799,-2.8618,-2.8373,-3.79,-3.79,-3.79,-3.7795,-3.7657,-3.7611,-3.7805,-3.8298,-3.9371,-4.0333,-4.0943,-4.1023,-4.106,-4.101,-4.101,-4.1023,-4.101,-4.101,-4.106,-4.101,-4.0959,-4.0909,-4.0846,-4.0744,-4.0694,-4.0555,-4.0504,-4.0504,-4.0338,-4.0338,-4.0338,-4.0198,-3.9993,-3.9878,-3.9736,-3.9697,-3.9697,-3.9697,-3.9697,-3.9697,-3.9697,-3.9697,-3.9697,-3.9697,-3.9697,-3.9645,-3.9542,-3.9206,-3.8945,-3.8684,-3.8409,-3.8198,-3.8027,-3.8027,-3.7974,-3.7974,-3.7974,-3.7974,-3.7974,-3.7974,-3.7974,-3.7974,-3.7974,-3.7974,-3.7974,-3.7974,-3.7974,-3.7974,-3.7974,-3.7974,-3.7974,-3.7974,-3.7974,-3.7974,-3.7974,-3.7974,-3.7974,-3.7974,-3.7974,-3.7974,-3.7974,-3.7892,-3.7691,-3.74,-3.697,-3.67,-3.6483,-3.6375,-3.6266,-3.6266,-3.6266,-3.6266,-3.6266,-3.6266,-3.6266,-3.6266,-3.6266,-3.6243,-3.6025,-3.564,-3.5477,-3.5312,-3.4891,-3.4229,-3.3763,-3.3271,-3.2682,-3.2135,-3.1748,-3.1091,-3.0142,-2.9479,-2.9297,-2.9027,-2.86,-3.79,-3.79,-3.79,-3.79,-3.79,-3.79,-3.8305,-3.9102,-4.0017,-4.0749,-4.1232,-4.1261,-4.1261,-4.1261,-4.1311,-4.1311,-4.1311,-4.1311,-4.1311,-4.1311,-4.1261,-4.1161,-4.106,-4.1047,-4.0959,-4.0808,-4.0757,-4.0757,-4.0643,-4.0643,-4.0542,-4.044,-4.0338,-4.0083,-3.989,-3.9788,-3.9697,-3.9697,-3.9697,-3.9697,-3.9697,-3.9697,-3.9697,-3.9697,-3.9697,-3.9697,-3.9633,-3.9426,-3.9231,-3.897,-3.8656,-3.838,-3.8169,-3.8051,-3.8039,-3.7974,-3.7974,-3.7974,-3.7974,-3.7974,-3.7974,-3.7974,-3.7974,-3.7974,-3.7974,-3.7974,-3.7974,-3.7974,-3.7974,-3.7998,-3.801,-3.801,-3.8034,-3.8046,-3.8034,-3.8046,-3.8022,-3.8022,-3.7974,-3.7974,-3.7921,-3.7785,-3.7596,-3.7251,-3.6862,-3.6646,-3.6483,-3.6375,-3.6266,-3.6266,-3.6266,-3.6266,-3.6266,-3.6266,-3.6266,-3.6266,-3.6266,-3.6266,-3.6004,-3.5687,-3.5467,-3.5202,-3.4869,-3.4534,-3.3944,-3.3395,-3.2939,-3.2483,-3.1896,-3.1394,-3.0754,-3.0201,-2.991,-2.941,-2.8959,-3.79,-3.79,-3.79,-3.79,-3.79,-3.8018,-3.8645,-3.9625,-4.0226,-4.0788,-4.1311,-4.1311,-4.1311,-4.1311,-4.1311,-4.1311,-4.1311,-4.1311,-4.1311,-4.1311,-4.1311,-4.1261,-4.1261,-4.1261,-4.1161,-4.1211,-4.1211,-4.0997,-4.0883,-4.0896,-4.0795,-4.0605,-4.0542,-4.0338,-4.0134,-3.9878,-3.98,-3.9749,-3.9697,-3.9697,-3.9697,-3.9697,-3.9697,-3.9697,-3.9697,-3.9772,-3.9746,-3.9628,-3.9549,-3.9287,-3.896,-3.8648,-3.84,-3.8217,-3.814,-3.807,-3.813,-3.819,-3.8238,-3.8286,-3.8238,-3.8334,-3.8226,-3.8094,-3.7974,-3.7974,-3.7974,-3.7974,-3.7974,-3.8034,-3.807,-3.8118,-3.8166,-3.8166,-3.8154,-3.8142,-3.8106,-3.8058,-3.7998,-3.7974,-3.7921,-3.7785,-3.7423,-3.7036,-3.6812,-3.6592,-3.6429,-3.6375,-3.6266,-3.6266,-3.6266,-3.6266,-3.6266,-3.6266,-3.6266,-3.6266,-3.6266,-3.6266,-3.595,-3.5588,-3.5368,-3.5135,-3.4802,-3.4412,-3.3974,-3.3455,-3.283,-3.2258,-3.1777,-3.1331,-3.0886,-3.0682,-3.0264,-2.9779,-2.9356,-3.79,-3.79,-3.79,-3.79,-3.8018,-3.8762,-3.9337,-3.9716,-4.0605,-4.1193,-4.1311,-4.1311,-4.1311,-4.1311,-4.1311,-4.1311,-4.1311,-4.1311,-4.1311,-4.1311,-4.1311,-4.1311,-4.1311,-4.1311,-4.1311,-4.1311,-4.1261,-4.1248,-4.1198,-4.1147,-4.1047,-4.0846,-4.0795,-4.0643,-4.0389,-4.0134,-3.9955,-3.9774,-3.9786,-3.9735,-3.9747,-3.9772,-3.9785,-3.9823,-3.9848,-3.9973,-4.0147,-4.017,-4.019,-4.0236,-4.0203,-4.0025,-3.9497,-3.9443,-3.9389,-3.914,-3.9164,-3.9164,-3.914,-3.9128,-3.9068,-3.8996,-3.9044,-3.8587,-3.8286,-3.8082,-3.8094,-3.819,-3.8226,-3.8334,-3.8503,-3.8587,-3.8683,-3.8767,-3.8707,-3.8587,-3.8527,-3.8395,-3.8322,-3.8167,-3.8102,-3.772,-3.7331,-3.6979,-3.6731,-3.6541,-3.6375,-3.632,-3.6266,-3.6266,-3.6266,-3.6266,-3.6266,-3.6266,-3.6266,-3.6266,-3.6266,-3.6211,-3.5852,-3.5533,-3.5356,-3.508,-3.4747,-3.43,-3.3861,-3.3172,-3.2487,-3.2028,-3.1682,-3.1402,-3.1033,-3.0888,-3.0664,-3.0169,-2.9688,-3.79,-3.79,-3.79,-3.79,-3.8096,-3.9128,-3.9625,-3.9821,-4.0827,-4.1311,-4.1311,-4.1311,-4.1311,-4.1311,-4.1311,-4.1311,-4.1311,-4.1311,-4.1311,-4.1311,-4.1311,-4.1311,-4.1311,-4.1311,-4.1311,-4.1311,-4.1311,-4.1261,-4.1311,-4.1274,-4.1174,-4.111,-4.1047,-4.0896,-4.0694,-4.0517,-4.0402,-4.0119,-3.9976,-3.9912,-3.9936,-4.0036,-4.0124,-4.0262,-4.0287,-4.0526,-4.0764,-4.084,-4.0946,-4.1022,-4.0993,-4.0777,-4.0263,-4.0141,-3.9824,-3.958,-3.9525,-3.9501,-3.9489,-3.9525,-3.9585,-3.9621,-3.9633,-3.9272,-3.8984,-3.8779,-3.8767,-3.8767,-3.8743,-3.8767,-3.896,-3.9164,-3.9345,-3.9525,-3.9345,-3.9152,-3.8996,-3.8827,-3.8635,-3.8479,-3.8136,-3.7738,-3.7384,-3.7006,-3.668,-3.6444,-3.632,-3.632,-3.6266,-3.6266,-3.6266,-3.6266,-3.6266,-3.6266,-3.6266,-3.6266,-3.6266,-3.6157,-3.5797,-3.5467,-3.5301,-3.4969,-3.4524,-3.4142,-3.3692,-3.3012,-3.2315,-3.2018,-3.1672,-3.1334,-3.1064,-3.0966,-3.0742,-3.0432,-3.0007,-3.79,-3.79,-3.79,-3.7952,-3.8122,-3.9155,-3.9651,-3.9795,-4.0853,-4.1311,-4.1311,-4.1311,-4.1311,-4.1311,-4.1311,-4.1311,-4.1311,-4.1311,-4.1311,-4.1311,-4.1311,-4.1311,-4.1311,-4.1311,-4.1311,-4.1311,-4.1311,-4.1311,-4.1311,-4.1311,-4.1274,-4.1311,-4.1261,-4.1213,-4.1141,-4.1052,-4.0978,-4.0986,-4.0599,-4.0354,-4.0501,-4.0651,-4.0802,-4.11,-4.1175,-4.125,-4.1313,-4.1351,-4.1376,-4.1347,-4.1289,-4.1188,-4.094,-4.0569,-4.0183,-3.9973,-4.0026,-3.9982,-4.0006,-4.0018,-3.9934,-3.9874,-3.9729,-3.9826,-3.9777,-3.9369,-3.9236,-3.9224,-3.9188,-3.9345,-3.9549,-3.9669,-3.9838,-3.9958,-3.9898,-3.9741,-3.9609,-3.9338,-3.9024,-3.8811,-3.8513,-3.8043,-3.7562,-3.7259,-3.7213,-3.67,-3.6553,-3.6576,-3.6495,-3.6495,-3.6369,-3.6358,-3.6266,-3.6266,-3.6266,-3.6266,-3.6266,-3.6102,-3.5742,-3.5467,-3.5368,-3.4858,-3.4311,-3.3918,-3.3523,-3.283,-3.2143,-3.1903,-3.1614,-3.117,-3.0947,-3.0947,-3.0743,-3.0519,-3.0179,-3.79,-3.79,-3.79,-3.8135,-3.8593,-3.9298,-3.9847,-4.0265,-4.0984,-4.1311,-4.1311,-4.1311,-4.1311,-4.1311,-4.1311,-4.1311,-4.1311,-4.1311,-4.1311,-4.1311,-4.1311,-4.1311,-4.1311,-4.1311,-4.1311,-4.1311,-4.1311,-4.1311,-4.1311,-4.1311,-4.1311,-4.1311,-4.1363,-4.1483,-4.1758,-4.1645,-4.1673,-4.1808,-4.1506,-4.1165,-4.1232,-4.1166,-4.12,-4.1326,-4.1363,-4.1681,-4.1794,-4.2011,-4.2233,-4.2429,-4.2504,-4.2375,-4.2153,-4.1543,-4.1205,-4.1104,-4.0837,-4.07,-4.0643,-4.0619,-4.0619,-4.0703,-4.0727,-4.0787,-4.0583,-3.9982,-3.9669,-3.9669,-3.9741,-3.9946,-4.0102,-4.0198,-4.0282,-4.0367,-4.0439,-4.0331,-4.021,-3.9858,-3.9416,-3.9145,-3.8854,-3.8435,-3.7949,-3.7642,-3.754,-3.7494,-3.7471,-3.7414,-3.7207,-3.7104,-3.6714,-3.6599,-3.6378,-3.6332,-3.6266,-3.6266,-3.6266,-3.6059,-3.5742,-3.5522,-3.5368,-3.4691,-3.403,-3.3749,-3.3296,-3.2659,-3.2143,-3.1903,-3.1566,-3.1064,-3.0898,-3.0898,-3.0713,-3.0441,-3.0147,-3.79,-3.79,-3.79,-3.8214,-3.8762,-3.9364,-3.9913,-4.0412,-4.105,-4.1311,-4.1311,-4.1311,-4.1311,-4.1311,-4.1311,-4.1311,-4.1311,-4.1311,-4.1311,-4.1311,-4.1311,-4.1311,-4.1311,-4.1311,-4.1311,-4.1311,-4.1311,-4.1311,-4.1311,-4.1311,-4.1311,-4.1376,-4.152,-4.1873,-4.2226,-4.2267,-4.2462,-4.2716,-4.2447,-4.2281,-4.2057,-4.1898,-4.1907,-4.1932,-4.212,-4.2283,-4.2346,-4.2577,-4.274,-4.2886,-4.2898,-4.2731,-4.2426,-4.2132,-4.183,-4.1615,-4.1374,-4.1344,-4.1242,-4.1184,-4.1184,-4.1184,-4.1184,-4.104,-4.104,-4.0523,-4.0499,-4.0487,-4.0487,-4.0667,-4.0691,-4.0763,-4.0787,-4.0848,-4.086,-4.0787,-4.0682,-4.0404,-4.0033,-3.9724,-3.938,-3.8976,-3.8516,-3.8206,-3.8045,-3.7689,-3.777,-3.785,-3.7724,-3.7666,-3.7276,-3.6932,-3.6757,-3.6435,-3.6266,-3.6266,-3.6223,-3.6004,-3.5687,-3.5356,-3.4969,-3.4356,-3.3749,-3.3579,-3.3229,-3.2602,-3.2201,-3.1903,-3.1508,-3.1054,-3.0947,-3.0898,-3.0655,-3.0411,-3.0108,-3.79,-3.79,-3.79,-3.8279,-3.8854,-3.9377,-3.9978,-4.0579,-4.1076,-4.1311,-4.1311,-4.1311,-4.1311,-4.1311,-4.1311,-4.1311,-4.1311,-4.1311,-4.1311,-4.1311,-4.1311,-4.1311,-4.1311,-4.1311,-4.1311,-4.1311,-4.1311,-4.1311,-4.1311,-4.1428,-4.1572,-4.1572,-4.1899,-4.233,-4.2513,-4.2814,-4.3191,-4.334,-4.3236,-4.3211,-4.2988,-4.2755,-4.264,-4.2785,-4.2986,-4.2986,-4.2974,-4.303,-4.303,-4.2974,-4.2986,-4.2862,-4.2694,-4.2469,-4.2118,-4.1834,-4.1606,-4.1447,-4.1287,-4.1184,-4.1184,-4.1184,-4.1184,-4.1184,-4.1172,-4.1148,-4.1112,-4.1112,-4.1112,-4.1112,-4.1136,-4.1148,-4.116,-4.1172,-4.116,-4.1148,-4.1021,-4.0836,-4.0466,-4.0152,-3.9768,-3.936,-3.9058,-3.8758,-3.8459,-3.808,-3.7953,-3.7976,-3.8011,-3.8034,-3.7862,-3.7517,-3.7286,-3.6941,-3.6495,-3.6415,-3.6418,-3.5906,-3.5577,-3.5135,-3.4635,-3.4076,-3.3738,-3.3568,-3.3115,-3.2545,-3.2133,-3.1845,-3.145,-3.0995,-3.0947,-3.0889,-3.0713,-3.047,-3.0108,-3.79,-3.79,-3.79,-3.8475,-3.9364,-3.9573,-4.02,-4.1063,-4.1232,-4.1311,-4.1311,-4.1311,-4.1311,-4.1311,-4.1311,-4.1311,-4.1311,-4.1311,-4.1311,-4.1311,-4.1311,-4.1311,-4.1311,-4.1311,-4.1311,-4.1311,-4.1311,-4.1337,-4.1507,-4.1794,-4.2004,-4.2043,-4.2579,-4.3049,-4.3559,-4.3781,-4.3831,-4.3927,-4.3769,-4.3623,-4.3292,-4.3071,-4.2942,-4.2961,-4.2986,-4.2986,-4.2986,-4.2986,-4.2986,-4.2986,-4.2986,-4.2918,-4.2806,-4.265,-4.2356,-4.2017,-4.1789,-4.1504,-4.1344,-4.1242,-4.1184,-4.1184,-4.1184,-4.1184,-4.1172,-4.1172,-4.116,-4.116,-4.116,-4.116,-4.1172,-4.1172,-4.1184,-4.1184,-4.1172,-4.1172,-4.1057,-4.0815,-4.0455,-4.0153,-3.9838,-3.9498,-3.9241,-3.9078,-3.9055,-3.8803,-3.8791,-3.8791,-3.87,-3.8585,-3.8413,-3.8149,-3.7816,-3.7379,-3.7001,-3.6762,-3.6649,-3.6067,-3.5467,-3.4969,-3.4468,-3.3963,-3.3681,-3.3466,-3.3058,-3.2545,-3.2143,-3.1787,-3.145,-3.1054,-3.0947,-3.0889,-3.0713,-3.046,-3.0039]},{"header":{"parameterUnit":"m.s-1","parameterCategory":1,"la1":31.0,"la2":29.5877,"lo1":-88.7671,"lo2":-86.6584,"dy":0.0162,"dx":0.0185,"nx":115,"ny":88,"refTime":"2026-03-05T12:00:00:Z","depth":0,"parameterNumber":3,"parameterNumberName":"V-component_of_WINDS"},"data":[0.0,0.0,0.0,0.0,0.0,0.0,0.0,0.0,0.0,0.0,0.0,0.0,0.0,0.0,0.0,0.0,0.0,0.0,0.0,0.0,0.0,0.0,0.0,0.0,0.0,0.0,0.0,0.0,0.0,0.0,0.0,0.0,0.0,0.0,0.0,0.0,0.0,0.0,0.0,0.0,0.0,0.0,0.0,0.0,0.0,0.0,0.0,0.0,0.0,0.0,0.0,0.0,0.0,0.0,0.0,0.0,0.0,0.0,0.0,0.0,0.0,0.0,0.0,0.0,0.0,0.0,0.0,0.0,0.0,0.0,0.0,0.0,0.0,0.0,0.0,0.0,0.0,0.0,0.0,0.0,0.0,0.0,0.0,0.0,0.0,0.0,0.0,0.0,0.0,0.0,0.0,0.0,0.0,0.0,0.0,0.0,0.0,0.0,0.0,0.0,0.0,0.0,0.0,0.0,0.0,0.0,0.0,0.0,0.0,0.0,0.0,0.0,0.0,0.0,0.0,0.0,0.0,0.0,0.0,0.0,0.0,0.0,0.0,0.0,0.0,0.0,0.0,0.0,0.0,0.0,0.0,0.0,0.0,0.0,0.0,0.0,0.0,0.0,0.0,0.0,0.0,0.0,0.0,0.0,0.0,0.0,0.0,0.0,0.0,0.0,0.0,0.0,0.0,0.0,0.0,0.0,0.0,0.0,0.0,0.0,0.0,0.0,0.0,0.0,0.0,0.0,0.0,0.0,0.0,0.0,0.0,0.0,0.0,0.0,0.0,0.0,0.0,0.0,0.0,0.0,0.0,0.0,0.0,0.0,0.0,0.0,0.0,0.0,0.0,0.0,0.0,0.0,0.0,0.0,0.0,0.0,0.0,0.0,0.0,0.0,0.0,0.0,0.0,0.0,0.0,0.0,0.0,0.0,0.0,0.0,0.0,0.0,0.0,0.0,0.0,0.0,0.0,0.0,0.0,0.0,0.0,0.0,0.0,0.0,0.0,0.0,0.0,0.0,0.0,0.0,0.0,0.0,0.0,0.0,0.0,0.0,0.0,0.0,0.0,0.0,0.0,0.0,0.0,0.0,0.0,0.0,0.0,0.0,0.0,0.0,0.0,0.0,0.0,0.0,0.0,0.0,0.0,0.0,0.0,0.0,0.0,0.0,0.0,0.0,0.0,0.0,0.0,0.0,0.0,0.0,0.0,0.0,0.0,0.0,0.0,0.0,0.0,0.0,0.0,0.0,0.0,0.0,0.0,0.0,0.0,0.0,0.0,0.0,0.0,0.0,0.0,0.0,0.0,0.0,0.0,0.0,0.0,0.0,0.0,0.0,0.0,0.0,0.0,0.0,0.0,0.0,0.0,0.0,0.0,0.0,0.0,0.0,0.0,0.0,0.0,0.0,0.0,0.0,0.0,0.0,0.0,0.0,0.0,0.0,0.0,0.0,0.0,0.0,0.0,0.0,0.0,0.0,0.0,0.0,0.0,0.0,0.0,0.0,0.0,0.0,0.0,0.0,0.0,0.0,0.0,0.0,0.0,0.0,0.0,0.0,0.0,0.0,0.0,0.0,0.0,0.0,0.0,0.0,0.0,0.0,0.0,0.0,0.0,0.0,0.0,0.0,0.0,0.0,0.0,0.0,0.0,0.0,0.0,0.0,0.0,0.0,0.0,0.0,0.0,0.0,0.0,0.0,0.0,0.0,0.0,0.0,0.0,0.0,0.0,0.0,0.0,0.0,0.0,0.0,0.0,0.0,0.0,0.0,0.0,0.0,0.0,0.0,0.0,0.0,0.0,0.0,0.0,0.0,0.0,0.0,0.0,0.0,0.0,0.0,0.0,0.0,0.0,0.0,0.0,0.0,0.0,0.0,0.0,0.0,0.0,0.0,0.0,0.0,0.0,0.0,0.0,0.0,0.0,0.0,0.0,0.0,0.0,0.0,0.0,0.0,0.0,0.0,0.0,0.0,0.0,0.0,0.0,0.0,0.0,0.0,0.0,0.0,0.0,0.0,0.0,0.0,0.0,0.0,0.0,0.0,0.0,0.0,0.0,0.0,0.0,0.0,0.0,0.0,0.0,0.0,0.0,0.0,0.0,0.0,0.0,0.0,0.0,0.0,0.0,0.0,0.0,0.0,0.0,0.0,0.0,0.0,0.0,0.0,0.0,0.0,0.0,0.0,0.0,0.0,0.0,0.0,0.0,0.0,0.0,0.0,0.0,0.0,0.0,0.0,0.0,0.0,0.0,0.0,0.0,0.0,0.0,0.0,0.0,0.0,0.0,0.0,0.0,0.0,0.0,0.0,0.0,0.0,0.0,0.0,0.0,0.0,0.0,0.0,0.0,0.0,0.0,0.0,0.0,0.0,0.0,0.0,0.0,0.0,0.0,0.0,0.0,0.0,0.0,0.0,0.0,0.0,0.0,0.0,0.0,0.0,0.0,0.0,0.0,0.0,0.0,0.0,0.0,0.0,0.0,0.0,0.0,0.0,0.0,0.0,0.0,0.0,0.0,0.0,0.0,0.0,0.0,0.0,0.0,0.0,0.0,0.0,0.0,0.0,0.0,0.0,0.0,0.0,0.0,0.0,0.0,0.0,0.0,0.0,0.0,0.0,0.0,0.0,0.0,0.0,0.0,0.0,0.0,0.0,0.0,0.0,0.0,0.0,0.0,0.0,0.0,0.0,0.0,0.0,0.0,0.0,0.0,0.0,0.0,0.0,0.0,0.0,0.0,0.0,0.0,0.0,0.0,0.0,0.0,0.0,0.0,0.0,0.0,0.0,0.0,0.0,0.0,0.0,0.0,0.0,0.0,0.0,0.0,0.0,0.0,0.0,0.0,0.0,0.0,0.0,0.0,0.0,0.0,0.0,0.0,0.0,0.0,0.0,0.0,0.0,0.0,0.0,0.0,0.0,0.0,0.0,0.0,0.0,0.0,0.0,0.0,0.0,0.0,0.0,0.0,0.0,0.0,0.0,0.0,0.0,0.0,0.0,0.0,0.0,0.0,0.0,0.0,0.0,0.0,0.0,0.0,0.0,0.0,0.0,0.0,0.0,0.0,0.0,0.0,0.0,0.0,0.0,0.0,0.0,0.0,0.0,0.0,0.0,0.0,0.0,0.0,0.0,0.0,0.0,0.0,0.0,0.0,0.0,0.0,0.0,0.0,0.0,0.0,0.0,0.0,0.0,0.0,0.0,0.0,0.0,0.0,0.0,0.0,0.0,0.0,0.0,0.0,0.0,0.0,0.0,0.0,0.0,0.0,0.0,0.0,0.0,0.0,0.0,0.0,0.0,0.0,0.0,0.0,0.0,0.0,0.0,0.0,0.0,0.0,0.0,0.0,0.0,0.0,0.0,0.0,0.0,0.0,0.0,0.0,0.0,0.0,0.0,0.0,0.0,0.0,0.0,0.0,0.0,0.0,0.0,0.0,0.0,0.0,0.0,0.0,0.0,0.0,0.0,0.0,0.0,0.0,0.0,0.0,0.0,0.0,0.0,0.0,0.0,0.0,0.0,0.0,0.0,0.0,0.0,0.0,0.0,0.0,0.0,0.0,0.0,0.0,0.0,0.0,0.0,0.0,0.0,0.0,0.0,0.0,0.0,0.0,0.0,0.0,0.0,0.0,0.0,0.0,0.0,0.0,0.0,0.0,0.0,0.0,0.0,0.0,0.0,0.0,0.0,0.0,0.0,0.0,0.0,0.0,0.0,0.0,0.0,0.0,0.0,0.0,0.0,0.0,0.0,0.0,0.0,0.0,0.0,0.0,0.0,0.0,0.0,0.0,0.0,0.0,0.0,0.0,0.0,0.0,0.0,0.0,0.0,0.0,0.0,0.0,0.0,0.0,0.0,0.0,0.0,0.0,0.0,0.0,0.0,0.0,0.0,0.0,0.0,0.0,0.0,0.0,0.0,0.0,0.0,0.0,0.0,0.0,0.0,0.0,0.0,0.0,0.0,0.0,0.0,0.0,0.0,0.0,0.0,0.0,0.0,0.0,0.0,0.0,0.0,0.0,0.0,0.0,0.0,0.0,0.0,0.0,0.0,0.0,0.0,0.0,0.0,0.0,0.0,0.0,0.0,0.0,0.0,0.0,0.0,0.0,0.0,0.0,0.0,0.0,0.0,0.0,0.0,0.0,0.0,0.0,0.0,0.0,0.0,0.0,0.0,0.0,0.0,0.0,0.0,0.0,0.0,0.0,0.0,0.0,0.0,0.0,0.0,0.0,0.0,0.0,0.0,0.0,0.0,0.0,0.0,0.0,0.0,0.0,0.0,1.2455,0.0,0.0,0.0,0.0,0.0,0.0,0.0,0.0,0.0,0.0,0.0,0.0,0.0,0.0,0.0,0.0,0.0,0.0,0.0,0.0,0.0,0.0,0.0,0.0,0.0,0.0,0.0,0.0,0.0,0.0,0.0,0.0,0.0,0.0,0.0,0.0,0.0,0.0,0.0,0.0,0.0,0.0,0.0,0.0,0.0,0.0,0.0,0.0,0.0,0.0,0.0,0.0,0.0,0.0,0.0,0.0,0.0,0.0,0.0,0.0,0.0,0.0,0.0,0.0,0.0,0.0,0.0,0.0,0.0,0.0,0.0,0.0,0.0,0.0,0.0,0.0,0.0,0.0,0.0,0.0,0.0,0.0,0.0,0.0,0.0,0.0,0.0,0.0,0.0,0.0,0.0,0.0,0.0,0.0,0.0,0.0,0.0,0.0,0.0,0.0,0.0,0.0,0.0,0.0,0.0,0.0,0.0,0.0,0.0,0.0,1.2777,1.2191,1.2282,1.2407,1.2478,0.0,0.0,0.0,0.0,0.0,0.0,0.0,0.0,0.0,0.0,0.0,0.0,0.0,0.0,0.0,0.0,0.0,0.0,0.0,0.0,0.0,0.0,0.0,0.0,0.0,0.0,0.0,0.0,0.0,0.0,0.0,0.0,0.0,0.0,0.0,0.0,0.0,0.0,0.0,0.0,0.0,0.0,0.0,0.0,0.0,0.0,0.0,0.0,0.0,0.0,0.0,0.0,0.0,0.0,0.0,0.0,0.0,0.0,0.0,0.0,0.0,0.0,0.0,0.0,0.0,0.0,0.0,0.0,0.0,0.0,0.0,0.0,0.0,0.0,0.0,0.0,0.0,0.0,0.0,0.0,0.0,0.0,0.0,0.0,0.0,0.0,0.0,0.0,0.0,0.0,0.0,0.0,0.0,0.0,0.0,0.0,0.0,0.0,0.0,0.0,0.0,0.0,0.0,0.0,0.0,0.0,0.0,0.0,0.0,0.0,0.0,0.0,1.2473,1.2561,1.2597,0.0,0.0,0.0,0.0,0.0,0.0,0.0,0.0,0.0,0.0,0.0,0.0,0.0,0.0,0.0,0.0,0.0,0.0,0.0,0.0,0.0,0.0,0.0,0.0,0.0,0.0,0.0,0.0,0.0,0.0,0.0,0.0,0.0,0.0,0.0,0.0,0.0,0.0,0.0,0.0,0.0,0.0,0.0,0.0,0.0,0.0,0.0,0.0,0.0,0.0,0.0,0.0,0.0,0.0,0.0,0.0,0.0,0.0,0.0,0.0,0.0,0.0,0.0,0.0,0.0,0.0,0.0,0.0,0.0,0.0,0.0,0.0,0.0,0.0,0.0,0.0,0.0,0.0,0.0,0.0,0.0,0.0,0.0,0.0,0.0,0.0,0.0,0.0,0.0,0.0,0.0,0.0,0.0,0.0,0.0,0.0,0.0,0.0,0.0,0.0,0.0,0.0,0.0,0.0,0.0,0.0,0.0,0.0,0.0,0.0,1.288,1.2651,1.2674,0.0,1.2897,0.0,0.0,0.0,0.0,0.0,0.0,0.0,0.0,0.0,0.0,0.0,0.0,0.0,0.0,0.0,0.0,0.0,0.0,0.0,0.0,0.0,0.0,0.0,0.0,0.0,0.0,0.0,0.0,0.0,0.0,0.0,0.0,0.0,0.0,0.0,0.0,0.0,0.0,0.0,0.0,0.0,0.0,0.0,0.0,0.0,0.0,0.0,0.0,0.0,0.0,0.0,0.0,0.0,0.0,0.0,0.0,0.0,0.0,0.0,0.0,0.0,0.0,0.0,0.0,0.0,0.0,0.0,0.0,0.0,0.0,0.0,0.0,0.0,0.0,0.0,0.0,0.0,0.0,0.0,0.0,0.0,0.0,0.0,0.0,0.0,0.0,0.0,0.0,0.0,0.0,0.0,0.0,0.0,0.0,0.0,0.0,0.0,0.0,0.0,0.0,0.0,0.0,0.0,0.0,0.0,0.0,0.0,0.0,0.0,0.0,1.2782,1.2692,1.3119,1.3398,0.0,0.0,0.0,0.0,0.0,0.0,0.0,0.0,0.0,0.0,0.0,0.0,0.0,0.0,0.0,0.0,0.0,0.0,0.0,0.0,0.0,0.0,0.0,0.0,0.0,0.0,0.0,0.0,0.0,0.0,0.0,0.0,0.0,0.0,0.0,0.0,0.0,0.0,0.0,0.0,0.0,0.0,0.0,0.0,0.0,0.0,0.0,0.0,0.0,0.0,0.0,0.0,0.0,0.0,0.0,0.0,0.0,0.0,0.0,0.0,0.0,0.0,0.0,0.0,0.0,0.0,0.0,0.0,0.0,0.0,0.0,0.0,0.0,0.0,0.0,0.0,0.0,0.0,0.0,0.0,0.0,0.0,0.0,0.0,0.0,0.0,0.0,0.0,0.0,0.0,0.0,0.0,0.0,0.0,0.0,0.0,0.0,0.0,0.0,0.0,0.0,0.0,0.0,0.0,0.0,0.0,0.0,0.0,0.0,0.0,1.3067,1.2762,1.2845,1.342,1.3745,1.3799,0.0,0.0,0.0,0.0,0.0,0.0,0.0,0.0,0.0,0.0,0.0,0.0,0.0,0.0,0.0,0.0,0.0,0.0,0.0,0.0,0.0,0.0,0.0,0.0,0.0,0.0,0.0,0.0,0.0,0.0,0.0,0.0,0.0,0.0,0.0,0.0,0.0,0.0,0.0,0.0,0.0,0.0,0.0,0.0,0.0,0.0,0.0,0.0,0.0,0.0,0.0,0.0,0.0,0.0,0.0,0.0,0.0,0.0,0.0,0.0,0.0,0.0,0.0,0.0,0.0,0.0,0.0,0.0,0.0,0.0,0.0,0.0,0.0,0.0,0.0,0.0,0.0,0.0,0.0,0.0,0.0,0.0,0.0,0.0,0.0,0.0,0.0,0.0,0.0,0.0,0.0,0.0,0.0,0.0,0.0,0.0,0.0,0.0,0.0,0.0,0.0,0.0,0.0,0.0,0.0,0.0,0.0,0.0,0.0,1.3197,1.2868,1.3146,1.3399,1.3531,0.0,0.0,0.0,0.0,0.0,0.0,0.0,0.0,0.0,0.0,0.0,0.0,0.0,0.0,0.0,0.0,0.0,0.0,0.0,0.0,0.0,0.0,0.0,0.0,0.0,0.0,0.0,0.0,0.0,0.0,0.0,0.0,0.0,0.0,0.0,0.0,0.0,0.0,0.0,0.0,0.0,0.0,0.0,0.0,0.0,0.0,0.0,0.0,0.0,0.0,0.0,0.0,0.0,0.0,0.0,0.0,0.0,0.0,0.0,0.0,0.0,0.0,0.0,0.0,0.0,0.0,0.0,0.0,0.0,0.0,0.0,0.0,0.0,0.0,0.0,0.0,0.0,0.0,0.0,0.0,0.0,0.0,0.0,0.0,0.0,0.0,0.0,0.0,0.0,0.0,0.0,0.0,0.0,0.0,0.0,0.0,0.0,0.0,0.0,0.0,0.0,0.0,0.0,0.0,0.0,0.0,0.0,0.0,0.0,1.4177,1.3417,1.3146,1.3416,1.4162,1.4236,0.0,0.0,0.0,0.0,0.0,0.0,0.0,0.0,0.0,0.0,0.0,0.0,0.0,0.0,0.0,0.0,0.0,0.0,0.0,0.0,0.0,0.0,0.0,0.0,0.0,0.0,0.0,0.0,0.0,0.0,0.0,0.0,0.0,0.0,0.0,0.0,0.0,0.0,0.0,0.0,0.0,0.0,0.0,0.0,0.0,0.0,0.0,0.0,0.0,0.0,0.0,0.0,0.0,0.0,0.0,0.0,0.0,0.0,0.0,0.0,0.0,0.0,0.0,0.0,0.0,0.0,0.0,0.0,0.0,0.0,0.0,0.0,0.0,0.0,0.0,0.0,0.0,0.0,0.0,0.0,0.0,0.0,0.0,0.0,0.0,0.0,0.0,0.0,0.0,0.0,0.0,0.0,0.0,0.0,0.0,0.0,0.0,0.0,0.0,0.0,0.0,0.0,0.0,0.0,0.0,0.0,0.0,0.0,0.0,1.4499,0.0,1.4008,0.0,1.4953,1.5029,0.0,0.0,0.0,0.0,0.0,0.0,0.0,0.0,0.0,0.0,0.0,0.0,0.0,0.0,0.0,0.0,0.0,0.0,0.0,0.0,0.0,0.0,0.0,0.0,0.0,0.0,0.0,0.0,0.0,0.0,0.0,0.0,0.0,0.0,0.0,0.0,0.0,0.0,0.0,0.0,0.0,0.0,0.0,0.0,0.0,0.0,0.0,0.0,0.0,0.0,0.0,0.0,0.0,0.0,0.0,0.0,0.0,0.0,0.0,0.0,0.0,0.0,0.0,0.0,0.0,0.0,0.0,0.0,0.0,0.0,0.0,0.0,0.0,0.0,0.0,0.0,0.0,0.0,0.0,0.0,0.0,0.0,0.0,0.0,0.0,0.0,0.0,0.0,0.0,0.0,0.0,0.0,0.0,0.0,0.0,0.0,0.0,0.0,0.0,0.0,0.0,0.0,0.0,0.0,0.0,0.0,0.0,0.0,1.5326,1.5146,1.5336,1.5403,1.5474,1.5692,1.5803,0.0,0.0,0.0,0.0,0.0,0.0,0.0,0.0,0.0,0.0,0.0,0.0,0.0,0.0,0.0,0.0,0.0,0.0,0.0,0.0,0.0,0.0,0.0,0.0,0.0,0.0,0.0,0.0,0.0,0.0,0.0,0.0,0.0,0.0,0.0,0.0,0.0,0.0,0.0,0.0,0.0,0.0,0.0,0.0,0.0,0.0,0.0,0.0,0.0,0.0,0.0,0.0,0.0,0.0,0.0,0.0,0.0,0.0,0.0,0.0,0.0,0.0,0.0,0.0,0.0,0.0,0.0,0.0,0.0,0.0,0.0,0.0,0.0,0.0,0.0,0.0,0.0,0.0,0.0,0.0,0.0,0.0,0.0,0.0,0.0,0.0,0.0,0.0,0.0,0.0,0.0,0.0,0.0,0.0,0.0,0.0,0.0,0.0,0.0,0.0,0.0,0.0,0.0,0.0,0.0,0.0,0.0,0.0,0.0,1.5944,1.5639,1.5562,1.5705,1.6165,1.623,0.0,0.0,0.0,0.0,0.0,0.0,0.0,0.0,0.0,0.0,0.0,0.0,0.0,0.0,0.0,0.0,0.0,0.0,0.0,0.0,0.0,0.0,0.0,0.0,0.0,0.0,0.0,0.0,0.0,0.0,0.0,0.0,0.0,0.0,0.0,0.0,0.0,0.0,0.0,0.0,0.0,0.0,0.0,0.0,0.0,0.0,0.0,0.0,0.0,0.0,0.0,0.0,0.0,0.0,0.0,0.0,0.0,0.0,0.0,0.0,0.0,0.0,0.0,0.0,0.0,0.0,0.0,0.0,0.0,0.0,0.0,0.0,0.0,0.0,0.0,0.0,0.0,0.0,0.0,0.0,0.0,0.0,0.0,0.0,0.0,0.0,0.0,0.0,0.0,0.0,0.0,0.0,0.0,0.0,0.0,0.0,0.0,0.0,0.0,0.0,0.0,0.0,0.0,0.0,0.0,0.0,0.0,0.0,0.0,1.6897,1.652,1.6412,1.659,1.6986,1.7039,1.6713,0.0,0.0,0.0,0.0,0.0,0.0,0.0,0.0,0.0,0.0,0.0,0.0,0.0,0.0,0.0,0.0,0.0,0.0,0.0,0.0,0.0,0.0,0.0,0.0,0.0,0.0,0.0,0.0,0.0,0.0,0.0,0.0,0.0,0.0,0.0,0.0,0.0,0.0,0.0,0.0,0.0,0.0,0.0,0.0,0.0,0.0,0.0,0.0,0.0,0.0,0.0,0.0,0.0,0.0,0.0,0.0,0.0,0.0,0.0,0.0,0.0,0.0,0.0,0.0,0.0,0.0,0.0,0.0,0.0,0.0,0.0,0.0,0.0,0.0,0.0,0.0,0.0,0.0,0.0,0.0,0.0,0.0,0.0,0.0,0.0,0.0,0.0,0.0,0.0,0.0,0.0,0.0,0.0,0.0,0.0,0.0,0.0,0.0,0.0,0.0,0.0,0.0,0.0,0.0,0.0,0.0,0.0,0.0,1.7902,1.7801,1.7788,1.7895,1.7948,1.8075,0.0,0.0,0.0,0.0,0.0,0.0,0.0,0.0,0.0,0.0,0.0,0.0,0.0,0.0,0.0,0.0,0.0,0.0,0.0,0.0,0.0,0.0,0.0,0.0,0.0,0.0,0.0,0.0,0.0,0.0,0.0,0.0,0.0,0.0,0.0,0.0,0.0,0.0,0.0,0.0,0.0,0.0,0.0,0.0,0.0,0.0,0.0,0.0,0.0,0.0,0.0,0.0,0.0,0.0,0.0,0.0,0.0,0.0,0.0,0.0,0.0,0.0,0.0,0.0,0.0,0.0,0.0,0.0,0.0,0.0,0.0,0.0,0.0,0.0,0.0,0.0,0.0,0.0,0.0,0.0,0.0,0.0,0.0,0.0,0.0,0.0,0.0,0.0,0.0,0.0,0.0,0.0,0.0,0.0,0.0,0.0,0.0,0.0,0.0,0.0,0.0,0.0,0.0,0.0,0.0,0.0,0.0,0.0,0.0,1.8009,1.8082,1.8135,1.8109,1.8143,1.8183,0.0,0.0,0.0,0.0,0.0,0.0,0.0,0.0,0.0,0.0,0.0,0.0,0.0,0.0,0.0,0.0,0.0,0.0,0.0,0.0,0.0,0.0,0.0,0.0,0.0,0.0,0.0,0.0,0.0,0.0,0.0,0.0,0.0,0.0,0.0,0.0,0.0,0.0,0.0,0.0,0.0,0.0,0.0,0.0,0.0,0.0,0.0,0.0,0.0,0.0,0.0,0.0,0.0,0.0,0.0,0.0,0.0,0.0,0.0,0.0,0.0,0.0,0.0,0.0,0.0,0.0,0.0,0.0,0.0,0.0,0.0,0.0,0.0,0.0,0.0,0.0,0.0,0.0,0.0,0.0,0.0,0.0,0.0,0.0,0.0,0.0,0.0,0.0,0.0,0.0,0.0,0.0,0.0,0.0,0.0,0.0,0.0,0.0,0.0,0.0,0.0,0.0,0.0,0.0,0.0,0.0,0.0,0.0,1.8632,1.8228,1.8333,1.8411,1.845,1.8425,1.84,0.0,0.0,0.0,0.0,0.0,0.0,0.0,0.0,0.0,0.0,0.0,0.0,0.0,0.0,0.0,0.0,0.0,0.0,0.0,0.0,0.0,0.0,0.0,0.0,0.0,0.0,0.0,0.0,0.0,0.0,0.0,0.0,0.0,0.0,0.0,0.0,0.0,0.0,0.0,0.0,0.0,0.0,0.0,0.0,0.0,0.0,0.0,0.0,0.0,0.0,0.0,0.0,0.0,0.0,0.0,0.0,0.0,0.0,0.0,0.0,0.0,0.0,0.0,0.0,0.0,0.0,0.0,0.0,0.0,0.0,0.0,0.0,0.0,0.0,0.0,0.0,0.0,0.0,0.0,0.0,0.0,0.0,0.0,0.0,0.0,0.0,0.0,0.0,0.0,0.0,0.0,0.0,0.0,0.0,0.0,0.0,0.0,0.0,0.0,0.0,0.0,0.0,0.0,0.0,0.0,0.0,0.0,0.0,1.8921,1.8708,1.8734,1.8809,1.8903,1.8783,1.8711,0.0,0.0,0.0,0.0,0.0,0.0,0.0,0.0,0.0,0.0,0.0,0.0,0.0,0.0,0.0,0.0,0.0,0.0,0.0,0.0,0.0,0.0,0.0,0.0,0.0,0.0,0.0,0.0,0.0,0.0,0.0,0.0,0.0,0.0,0.0,0.0,0.0,0.0,0.0,0.0,0.0,0.0,0.0,0.0,0.0,0.0,0.0,0.0,0.0,0.0,0.0,0.0,0.0,0.0,0.0,0.0,0.0,0.0,0.0,0.0,0.0,0.0,0.0,0.0,0.0,0.0,0.0,0.0,0.0,0.0,0.0,0.0,0.0,0.0,0.0,0.0,0.0,0.0,0.0,0.0,0.0,0.0,0.0,0.0,0.0,0.0,0.0,0.0,0.0,0.0,0.0,0.0,0.0,0.0,0.0,0.0,0.0,0.0,0.0,0.0,0.0,0.0,0.0,0.0,0.0,0.0,0.0,0.0,1.9999,1.9985,2.0257,2.0157,1.9665,1.9094,1.8779,0.0,0.0,0.0,0.0,0.0,0.0,0.0,0.0,0.0,0.0,0.0,0.0,0.0,0.0,0.0,0.0,0.0,0.0,0.0,0.0,0.0,0.0,0.0,0.0,0.0,0.0,0.0,0.0,0.0,0.0,0.0,0.0,0.0,0.0,0.0,0.0,0.0,0.0,0.0,0.0,0.0,0.0,0.0,0.0,0.0,0.0,0.0,0.0,1.4362,0.0,0.0,0.0,0.0,0.0,0.0,0.0,0.0,0.0,0.0,0.0,0.0,0.0,0.0,0.0,0.0,0.0,0.0,0.0,0.0,0.0,0.0,0.0,0.0,0.0,0.0,0.0,0.0,0.0,0.0,0.0,0.0,0.0,0.0,0.0,0.0,0.0,0.0,0.0,0.0,0.0,0.0,0.0,0.0,0.0,0.0,0.0,0.0,0.0,0.0,0.0,0.0,0.0,0.0,0.0,0.0,0.0,0.0,0.0,2.0733,2.0635,2.088,2.0686,2.0054,1.9667,1.9291,0.0,0.0,0.0,0.0,0.0,0.0,0.0,0.0,0.0,0.0,0.0,0.0,0.0,0.0,0.0,0.0,0.0,0.0,0.0,0.0,0.0,0.0,0.0,0.0,0.0,0.0,0.0,0.0,0.0,0.0,0.0,0.0,0.0,0.0,0.0,0.0,0.0,0.0,0.0,0.0,0.0,0.0,0.0,0.0,0.0,0.0,0.0,0.0,0.0,0.0,0.0,0.0,0.0,0.0,0.0,0.0,0.0,0.0,0.0,0.0,0.0,0.0,0.0,0.0,0.0,0.0,0.0,0.0,0.0,0.0,0.0,0.0,0.0,0.0,0.0,0.0,0.0,0.0,0.0,0.0,0.0,0.0,0.0,0.0,0.0,0.0,0.0,0.0,0.0,0.0,0.0,0.0,0.0,0.0,0.0,0.0,0.0,0.0,0.0,0.0,0.0,0.0,0.0,0.0,0.0,0.0,0.0,2.1346,2.1325,2.121,2.1336,2.112,2.0538,2.044,2.007,1.9358,0.0,0.0,0.0,0.0,0.0,0.0,0.0,0.0,0.0,0.0,0.0,0.0,0.0,0.0,0.0,0.0,0.0,0.0,0.0,0.0,0.0,0.0,0.0,0.0,0.0,0.0,0.0,0.0,0.0,0.0,0.0,0.0,0.0,0.0,0.0,0.0,0.0,0.0,1.6686,1.6524,0.0,0.0,0.0,0.0,0.0,0.0,0.0,0.0,1.656,0.0,0.0,0.0,0.0,0.0,0.0,0.0,0.0,0.0,0.0,0.0,0.0,0.0,0.0,0.0,0.0,0.0,0.0,0.0,0.0,0.0,0.0,0.0,0.0,0.0,0.0,0.0,0.0,0.0,0.0,0.0,0.0,0.0,0.0,0.0,0.0,0.0,0.0,0.0,0.0,0.0,0.0,0.0,0.0,0.0,0.0,0.0,0.0,0.0,0.0,0.0,0.0,0.0,0.0,0.0,0.0,2.1293,2.1582,2.2003,2.2562,2.2702,2.2505,2.1966,2.1471,2.1087,2.0781,0.0,0.0,0.0,0.0,0.0,0.0,0.0,0.0,0.0,0.0,0.0,0.0,0.0,0.0,0.0,0.0,0.0,0.0,0.0,0.0,0.0,0.0,0.0,0.0,0.0,0.0,0.0,0.0,0.0,0.0,0.0,0.0,0.0,0.0,0.0,0.0,0.0,0.0,0.0,1.758,1.7958,0.0,0.0,0.0,0.0,0.0,0.0,0.0,0.0,1.6919,0.0,0.0,0.0,0.0,0.0,0.0,0.0,0.0,0.0,0.0,0.0,0.0,0.0,0.0,0.0,0.0,0.0,0.0,0.0,0.0,0.0,0.0,0.0,0.0,0.0,0.0,0.0,0.0,0.0,0.0,0.0,0.0,0.0,0.0,0.0,0.0,0.0,0.0,0.0,0.0,0.0,0.0,0.0,0.0,0.0,0.0,0.0,0.0,0.0,0.0,0.0,0.0,0.0,0.0,0.0,2.211,2.2622,2.3099,2.3527,2.4024,2.3866,2.297,2.2645,2.2298,0.0,0.0,0.0,0.0,0.0,0.0,0.0,0.0,0.0,0.0,0.0,0.0,0.0,0.0,0.0,0.0,0.0,0.0,0.0,0.0,0.0,0.0,0.0,0.0,0.0,0.0,0.0,0.0,0.0,0.0,0.0,0.0,0.0,0.0,0.0,0.0,0.0,0.0,0.0,0.0,1.8176,1.8573,1.9004,0.0,0.0,0.0,0.0,0.0,0.0,1.8068,1.7899,0.0,0.0,0.0,0.0,0.0,0.0,0.0,0.0,0.0,0.0,0.0,0.0,0.0,0.0,0.0,0.0,0.0,0.0,0.0,0.0,0.0,0.0,0.0,0.0,0.0,0.0,0.0,0.0,0.0,0.0,0.0,0.0,0.0,0.0,0.0,0.0,0.0,0.0,0.0,0.0,0.0,0.0,0.0,0.0,0.0,0.0,0.0,0.0,0.0,0.0,0.0,0.0,0.0,0.0,0.0,2.302,2.3505,2.3891,2.4177,2.4858,2.4677,2.3561,2.3412,2.3122,0.0,0.0,0.0,0.0,0.0,0.0,0.0,0.0,0.0,0.0,0.0,0.0,0.0,0.0,0.0,0.0,0.0,0.0,0.0,0.0,0.0,0.0,0.0,0.0,0.0,0.0,0.0,0.0,0.0,0.0,0.0,0.0,0.0,0.0,0.0,0.0,0.0,0.0,0.0,0.0,0.0,1.8897,1.9746,1.9471,0.0,0.0,0.0,0.0,1.9917,1.9329,0.0,0.0,0.0,0.0,0.0,0.0,0.0,0.0,0.0,0.0,0.0,0.0,0.0,0.0,0.0,0.0,0.0,0.0,0.0,0.0,0.0,0.0,0.0,0.0,0.0,0.0,0.0,0.0,0.0,0.0,0.0,0.0,0.0,0.0,0.0,0.0,0.0,0.0,0.0,0.0,0.0,0.0,0.0,0.0,0.0,0.0,0.0,0.0,0.0,0.0,0.0,0.0,0.0,0.0,0.0,0.0,2.3722,2.3387,2.3612,2.44,2.4565,2.4276,2.3603,2.3086,2.2984,0.0,0.0,0.0,0.0,0.0,0.0,0.0,0.0,0.0,0.0,0.0,0.0,0.0,0.0,0.0,0.0,0.0,0.0,0.0,0.0,0.0,0.0,0.0,0.0,0.0,0.0,0.0,0.0,0.0,0.0,0.0,0.0,0.0,0.0,0.0,0.0,0.0,0.0,0.0,0.0,0.0,1.9407,2.0667,2.0791,2.0843,0.0,0.0,2.0788,2.0327,2.0054,0.0,0.0,0.0,0.0,0.0,0.0,0.0,0.0,0.0,0.0,0.0,0.0,0.0,0.0,0.0,0.0,0.0,0.0,0.0,0.0,0.0,0.0,0.0,0.0,0.0,0.0,0.0,0.0,0.0,0.0,0.0,0.0,0.0,0.0,0.0,0.0,0.0,0.0,0.0,0.0,0.0,0.0,0.0,0.0,0.0,0.0,0.0,0.0,0.0,0.0,0.0,0.0,0.0,0.0,0.0,2.3432,2.3475,2.4068,2.4443,2.4566,2.4978,2.5152,2.4972,2.3896,2.3606,0.0,0.0,0.0,0.0,0.0,0.0,0.0,0.0,0.0,0.0,0.0,0.0,0.0,0.0,0.0,0.0,0.0,0.0,0.0,0.0,0.0,0.0,0.0,0.0,0.0,0.0,0.0,0.0,0.0,0.0,0.0,0.0,0.0,0.0,0.0,0.0,0.0,0.0,0.0,0.0,0.0,0.0,2.2122,2.1688,0.0,0.0,0.0,2.1721,2.1126,0.0,0.0,0.0,0.0,0.0,0.0,0.0,0.0,0.0,0.0,0.0,0.0,0.0,0.0,0.0,0.0,0.0,0.0,0.0,0.0,0.0,0.0,0.0,0.0,0.0,0.0,0.0,0.0,0.0,0.0,0.0,0.0,0.0,0.0,0.0,0.0,0.0,0.0,0.0,0.0,0.0,0.0,0.0,0.0,0.0,0.0,0.0,0.0,0.0,0.0,0.0,0.0,0.0,0.0,0.0,0.0,0.0,2.3693,2.4688,2.5029,2.4657,2.5281,2.5576,2.5477,2.4418,0.0,0.0,0.0,0.0,0.0,0.0,0.0,0.0,0.0,0.0,0.0,0.0,0.0,0.0,0.0,0.0,0.0,0.0,0.0,0.0,0.0,0.0,0.0,0.0,0.0,0.0,0.0,1.5581,0.0,0.0,0.0,0.0,0.0,0.0,0.0,0.0,0.0,0.0,0.0,0.0,0.0,0.0,2.1929,2.3191,2.2542,2.2375,0.0,0.0,2.2776,2.2346,2.2478,2.2467,0.0,0.0,0.0,0.0,0.0,0.0,0.0,0.0,0.0,0.0,0.0,0.0,0.0,0.0,0.0,0.0,0.0,0.0,0.0,0.0,0.0,0.0,0.0,0.0,0.0,0.0,0.0,0.0,0.0,0.0,0.0,0.0,0.0,0.0,0.0,0.0,0.0,0.0,0.0,0.0,0.0,0.0,0.0,0.0,0.0,0.0,0.0,0.0,0.0,0.0,0.0,0.0,0.0,0.0,0.0,2.5209,2.4842,2.471,2.4777,2.4941,2.4763,2.417,2.4049,2.4013,0.0,0.0,0.0,0.0,0.0,0.0,0.0,0.0,0.0,0.0,0.0,0.0,0.0,0.0,0.0,0.0,0.0,0.0,0.0,0.0,0.0,0.0,0.0,0.0,0.0,0.0,0.0,0.0,0.0,0.0,0.0,0.0,0.0,0.0,0.0,0.0,0.0,0.0,0.0,0.0,0.0,2.277,2.3468,2.3503,2.3568,0.0,0.0,2.3866,2.3991,2.3476,2.304,2.299,0.0,0.0,0.0,0.0,0.0,0.0,0.0,0.0,0.0,0.0,0.0,0.0,0.0,0.0,0.0,0.0,0.0,0.0,0.0,0.0,0.0,0.0,0.0,0.0,0.0,0.0,0.0,0.0,0.0,0.0,0.0,0.0,0.0,0.0,0.0,0.0,0.0,0.0,0.0,0.0,0.0,0.0,0.0,0.0,0.0,0.0,0.0,0.0,0.0,0.0,0.0,0.0,0.0,2.4594,2.4894,2.4784,2.4626,2.4429,2.4463,2.4588,2.4805,2.438,2.4322,0.0,0.0,0.0,0.0,0.0,0.0,0.0,0.0,0.0,0.0,0.0,0.0,0.0,0.0,0.0,0.0,0.0,0.0,0.0,0.0,0.0,0.0,0.0,0.0,0.0,0.0,0.0,0.0,1.7685,1.8069,1.8841,0.0,0.0,0.0,0.0,0.0,0.0,0.0,0.0,0.0,0.0,2.3767,2.4905,2.4418,0.0,0.0,2.4764,2.4767,2.4878,2.4987,2.508,2.5131,2.5045,0.0,0.0,0.0,0.0,0.0,0.0,0.0,0.0,0.0,0.0,0.0,0.0,0.0,0.0,0.0,0.0,0.0,0.0,0.0,0.0,0.0,0.0,0.0,0.0,0.0,0.0,0.0,0.0,0.0,0.0,0.0,0.0,0.0,0.0,0.0,0.0,0.0,0.0,0.0,0.0,0.0,0.0,0.0,0.0,0.0,0.0,0.0,0.0,0.0,0.0,0.0,0.0,2.5069,2.5311,2.5274,2.506,2.4814,2.4848,2.5035,2.533,2.4908,2.4764,0.0,0.0,0.0,0.0,0.0,0.0,0.0,0.0,0.0,0.0,0.0,0.0,0.0,0.0,0.0,0.0,0.0,0.0,0.0,0.0,0.0,0.0,0.0,0.0,0.0,0.0,0.0,0.0,1.8762,1.9261,2.0044,0.0,0.0,0.0,0.0,0.0,0.0,0.0,0.0,0.0,0.0,2.512,2.598,2.5505,2.53,2.5914,2.5997,2.6037,2.6076,2.6518,2.686,2.6893,0.0,0.0,0.0,0.0,0.0,0.0,0.0,0.0,0.0,0.0,0.0,0.0,0.0,0.0,0.0,0.0,0.0,0.0,0.0,0.0,0.0,0.0,0.0,0.0,0.0,0.0,0.0,0.0,0.0,0.0,2.0726,0.0,0.0,0.0,0.0,0.0,0.0,0.0,0.0,0.0,0.0,0.0,0.0,0.0,0.0,0.0,0.0,0.0,0.0,0.0,0.0,0.0,0.0,2.6274,2.692,2.6443,2.6191,2.6198,2.6355,2.6171,2.5546,2.5617,2.5347,2.4667,0.0,0.0,0.0,0.0,0.0,0.0,0.0,0.0,0.0,0.0,0.0,0.0,0.0,0.0,0.0,0.0,0.0,0.0,0.0,0.0,0.0,0.0,0.0,0.0,0.0,0.0,1.942,2.0074,2.0761,0.0,0.0,0.0,0.0,0.0,0.0,0.0,0.0,0.0,0.0,2.6238,2.6914,2.641,2.6883,2.7313,2.7529,2.7595,2.7676,2.785,2.8,2.8079,0.0,0.0,0.0,0.0,0.0,0.0,0.0,0.0,0.0,0.0,0.0,0.0,0.0,0.0,0.0,0.0,0.0,0.0,0.0,0.0,0.0,0.0,0.0,0.0,0.0,0.0,0.0,2.2411,2.2432,0.0,0.0,0.0,0.0,0.0,0.0,0.0,0.0,0.0,0.0,0.0,2.5221,2.5644,0.0,0.0,0.0,0.0,0.0,0.0,0.0,0.0,0.0,0.0,0.0,0.0,2.7028,2.774,2.7716,2.7688,2.7798,2.7946,2.7477,2.6327,2.6776,2.6502,2.5373,0.0,0.0,0.0,0.0,0.0,0.0,0.0,0.0,0.0,0.0,0.0,0.0,0.0,0.0,0.0,0.0,0.0,0.0,0.0,0.0,0.0,0.0,0.0,0.0,0.0,2.0171,0.0,0.0,0.0,0.0,0.0,0.0,0.0,0.0,0.0,0.0,0.0,2.6468,2.7227,2.7332,2.7438,2.78,2.766,2.7759,0.0,0.0,0.0,0.0,0.0,0.0,0.0,0.0,0.0,0.0,0.0,0.0,0.0,0.0,2.626,2.595,2.5871,2.5867,2.5847,0.0,0.0,0.0,0.0,0.0,0.0,0.0,0.0,0.0,0.0,0.0,0.0,0.0,0.0,2.4059,0.0,2.4036,0.0,0.0,0.0,0.0,0.0,0.0,0.0,0.0,2.648,2.6833,2.6972,2.7377,2.7616,0.0,2.7433,2.7433,0.0,0.0,0.0,0.0,0.0,0.0,0.0,0.0,2.8348,2.9052,2.8949,2.9047,2.9368,2.9489,2.9014,2.7896,2.7606,2.6933,2.5764,2.5269,2.4811,0.0,0.0,0.0,0.0,0.0,0.0,0.0,0.0,0.0,0.0,0.0,0.0,0.0,0.0,0.0,0.0,0.0,0.0,0.0,0.0,0.0,0.0,0.0,2.1693,0.0,0.0,0.0,0.0,0.0,0.0,0.0,0.0,0.0,2.6338,2.6734,2.7352,2.81,2.8388,2.8769,2.9383,0.0,0.0,0.0,0.0,0.0,0.0,0.0,3.1945,3.2422,3.2109,3.1764,3.178,3.0986,3.0192,2.9716,0.0,0.0,2.7899,2.7602,2.7501,2.7243,2.7368,2.746,2.7219,2.7364,2.7541,0.0,0.0,0.0,0.0,0.0,0.0,0.0,0.0,2.5619,2.5527,0.0,2.5408,0.0,0.0,0.0,0.0,0.0,2.6,0.0,0.0,2.8198,2.9067,3.0442,3.0504,3.0643,3.0744,3.0098,3.0105,3.0563,2.7922,0.0,0.0,0.0,0.0,0.0,0.0,3.0192,3.0775,3.0239,3.0223,3.0848,3.0989,3.071,3.0012,2.8176,2.6788,2.5911,2.4685,2.4488,2.5582,2.3764,0.0,0.0,0.0,0.0,0.0,0.0,0.0,0.0,0.0,0.0,0.0,0.0,0.0,0.0,0.0,0.0,0.0,0.0,0.0,0.0,2.2781,0.0,0.0,0.0,0.0,0.0,0.0,0.0,0.0,0.0,0.0,2.6703,2.7688,2.8356,2.7872,0.0,0.0,0.0,0.0,3.2252,3.2367,3.2482,3.2517,3.2583,3.2695,3.2779,3.2801,0.0,0.0,3.2752,3.2646,3.249,3.2506,3.234,3.1544,2.8837,2.831,2.7952,2.7316,2.7729,2.7721,2.7165,2.7814,2.8159,2.8799,0.0,0.0,0.0,0.0,2.8273,2.8061,2.7985,2.7013,2.6581,2.6581,2.6518,0.0,0.0,0.0,0.0,0.0,0.0,2.7987,2.8517,2.9078,2.9586,3.0033,3.0532,3.0766,3.0775,3.0588,3.0604,3.076,3.0045,2.9739,2.9868,0.0,0.0,0.0,0.0,3.1337,3.1524,3.1941,3.2259,3.2447,3.2562,3.2124,3.1036,2.9121,2.7992,2.771,2.685,2.6066,2.5437,2.4869,0.0,0.0,0.0,0.0,0.0,0.0,0.0,0.0,0.0,0.0,0.0,0.0,0.0,0.0,0.0,0.0,0.0,0.0,0.0,2.2916,2.4132,2.495,0.0,0.0,0.0,0.0,0.0,0.0,0.0,0.0,0.0,2.9843,2.9708,2.9984,0.0,0.0,3.1942,3.2027,3.2191,3.2548,3.3155,3.3268,0.0,0.0,3.423,3.427,3.427,3.434,3.4249,3.3846,3.374,3.3534,3.305,3.2912,3.2612,3.1891,3.1363,3.1041,3.0871,3.0964,3.1007,3.0844,3.0942,3.1062,3.1848,3.1686,3.0616,3.0162,3.0116,2.9719,2.9567,2.9506,2.8631,2.8256,2.8256,2.8206,2.8206,2.8236,2.9144,0.0,0.0,0.0,2.9583,3.0011,3.0492,3.0905,3.1278,3.1996,3.2285,3.2274,3.2568,3.2683,3.263,3.2746,3.2772,3.2646,0.0,0.0,3.1508,3.2195,3.2541,3.2583,3.3019,3.3256,3.3256,3.3335,3.2784,3.1493,3.0071,2.9076,2.85,2.7539,2.6718,2.6142,2.5582,2.4875,0.0,0.0,0.0,0.0,0.0,0.0,0.0,0.0,0.0,0.0,0.0,2.1533,0.0,0.0,0.0,0.0,2.3669,2.4401,2.4747,2.5598,0.0,0.0,0.0,0.0,0.0,0.0,0.0,3.0931,3.1079,3.1358,3.2091,3.2052,3.2062,3.2374,3.2613,3.3013,3.3651,0.0,3.405,3.4862,3.4994,3.5167,3.567,3.5809,3.5882,3.593,3.6002,3.5933,3.5592,3.5515,3.5348,3.4962,3.4845,3.4845,3.4845,3.4592,3.3842,3.2552,3.2486,3.2602,3.2321,3.247,3.2685,3.4519,3.4303,3.1809,3.0766,3.0735,3.0735,3.0777,3.0735,3.0554,3.0486,3.0486,3.0365,3.0327,3.0399,3.0575,0.0,3.0882,3.0937,3.144,3.2285,3.2285,3.2777,3.3693,3.4356,3.4659,3.4632,3.5284,3.5546,3.5375,3.5514,3.5602,3.5554,3.3714,3.2784,3.279,3.3499,3.387,3.3886,3.374,3.3688,3.3608,3.3561,3.2969,3.183,3.1101,3.0108,2.8832,2.7458,2.6924,2.7368,2.6282,2.5561,2.5432,0.0,0.0,0.0,0.0,0.0,0.0,0.0,0.0,0.0,0.0,0.0,0.0,0.0,0.0,0.0,2.5173,0.0,2.703,2.7213,0.0,0.0,0.0,2.823,3.0199,3.0396,3.0953,3.2348,0.0,0.0,3.3686,3.4435,3.4371,3.2978,3.3332,3.4225,3.5696,3.5852,3.6174,3.6862,3.7069,3.7085,3.6962,3.712,3.7211,3.7334,3.7509,3.7449,3.7399,3.7433,3.7483,3.7349,3.75,3.7449,3.7517,3.7332,3.6494,3.3247,3.3125,3.3304,3.2785,3.3081,3.35,3.4794,3.4747,3.4094,3.3774,3.3705,3.3802,3.3814,3.3783,3.3132,3.2915,3.301,3.2872,3.315,3.3727,3.327,3.3131,3.3235,3.2771,3.2992,3.3745,3.3787,3.4248,3.5093,3.5284,3.5402,3.5507,3.5683,3.5696,3.5546,3.568,3.5708,3.5597,3.5305,3.5102,3.5022,3.5182,3.5305,3.5305,3.5278,3.5011,3.45,3.4034,3.3662,3.3349,3.2257,3.1498,3.1165,2.9842,2.8723,2.7831,2.8058,2.7724,2.6632,2.6474,0.0,0.0,0.0,0.0,0.0,0.0,0.0,0.0,0.0,2.3487,2.3667,0.0,2.4713,0.0,2.67,2.7676,2.7885,2.8926,0.0,0.0,3.0761,3.1538,3.2051,3.21,3.2464,3.3356,3.3968,3.4596,3.5348,3.6059,3.6381,3.6034,3.6109,3.6381,3.6754,3.6787,3.6853,3.7085,3.7168,3.7153,3.7286,3.7361,3.7518,3.7648,3.7648,3.7696,3.7802,3.7793,3.7793,3.781,3.781,3.7793,3.7843,3.781,3.7573,3.6679,3.6471,3.6236,3.5498,3.5488,3.5431,3.6094,3.5845,3.5902,3.5873,3.5767,3.5159,3.4909,3.4862,3.4447,3.4275,3.4347,3.4247,3.4537,3.4992,3.4648,3.4544,3.4652,3.4274,3.436,3.4762,3.4778,3.5067,3.5617,3.6003,3.623,3.6297,3.6685,3.675,3.6568,3.6762,3.6778,3.6653,3.6945,3.704,3.6925,3.6345,3.6039,3.6023,3.591,3.569,3.5348,3.4709,3.4407,3.4452,3.3177,3.2343,3.2082,3.1063,3.0006,2.8992,2.9038,2.8747,2.7961,2.7676,2.7369,0.0,0.0,0.0,0.0,0.0,0.0,0.0,0.0,0.0,0.0,0.0,2.6535,2.7021,2.8133,2.9006,2.9364,3.043,3.1266,3.1624,3.2091,3.2757,3.3756,3.3856,3.4249,3.525,3.5708,3.6099,3.6439,3.7135,3.7599,3.7615,3.7864,3.7963,3.7665,3.7599,3.7715,3.7996,3.8131,3.8243,3.8405,3.8522,3.8622,3.873,3.8754,3.8796,3.887,3.887,3.887,3.887,3.887,3.887,3.887,3.8886,3.8886,3.887,3.8771,3.8276,3.7292,3.7074,3.6922,3.7857,3.7326,3.7446,3.7521,3.7381,3.6041,3.5388,3.5232,3.5187,3.5187,3.5187,3.5216,3.5318,3.5493,3.5508,3.555,3.5647,3.5663,3.5647,3.5663,3.5663,3.5748,3.5904,3.6678,3.705,3.711,3.7846,3.8065,3.773,3.8049,3.8078,3.7934,3.8221,3.8363,3.8343,3.7177,3.6578,3.6562,3.6325,3.6174,3.6174,3.5513,3.5178,3.5137,3.4028,3.304,3.2346,3.1727,3.111,3.0522,2.9887,2.951,2.9411,2.8823,2.8458,0.0,2.8387,0.0,0.0,0.0,0.0,0.0,0.0,0.0,0.0,2.8064,2.8655,2.891,2.9727,3.049,3.1146,3.1934,3.2689,3.3292,3.2974,3.3477,3.5308,3.5576,3.6038,3.7194,3.7403,3.7419,3.7318,3.7989,3.852,3.8593,3.9139,3.9355,3.8791,3.8609,3.8742,3.9408,3.9691,3.9926,4.0092,4.017,4.0247,4.0358,4.0223,4.0248,4.0197,4.0113,4.0062,4.0062,3.9994,4.0045,4.0113,4.0062,4.0062,3.9994,3.9952,3.9546,3.8389,3.8017,3.8024,3.9141,3.903,3.9046,3.9077,3.9014,3.8762,3.8006,3.6997,3.6847,3.6772,3.6772,3.6951,3.7026,3.7056,3.7056,3.7085,3.713,3.7114,3.7114,3.713,3.7114,3.7157,3.7319,3.7591,3.7799,3.7958,3.8258,3.8193,3.7876,3.8094,3.8107,3.7889,3.8135,3.8294,3.8391,0.0,0.0,0.0,3.7376,3.7058,3.7025,3.6422,3.5774,3.5228,3.4952,0.0,3.3111,3.2994,3.2685,3.2093,3.2023,0.0,0.0,0.0,0.0,0.0,0.0,0.0,0.0,0.0,0.0,0.0,3.0346,3.0159,2.8586,2.9624,3.0647,3.1273,3.2014,3.2538,3.2689,3.389,3.4745,3.4912,3.5817,3.6654,3.7032,3.709,3.72,3.7409,3.7978,3.8313,3.8319,3.9282,4.0086,3.9978,4.0547,4.0928,4.0779,4.0249,4.0115,4.0357,4.0973,4.1554,4.1658,4.1707,4.1719,4.1813,4.1356,4.1035,4.0967,4.0519,4.013,4.013,4.0113,4.013,4.0113,4.0113,4.0113,4.0113,4.0113,3.9842,3.8971,3.8785,3.8616,3.9819,0.0,3.9487,3.9487,0.0,3.9487,3.9108,3.8476,3.8368,3.8322,3.8352,3.8445,3.8476,3.8476,3.8476,3.8476,3.8476,3.8476,3.846,3.8476,3.8476,3.8537,3.8597,3.8748,3.8884,3.8974,3.9138,3.9079,3.8854,3.9019,3.9003,3.8854,3.9108,3.9285,3.9344,3.9075,3.8764,3.8408,3.8035,3.7857,3.7825,3.7134,3.6627,3.6238,0.0,0.0,0.0,0.0,0.0,0.0,0.0,0.0,0.0,0.0,0.0,3.1141,3.0838,3.0699,3.0777,3.1173,3.1452,3.1526,3.2261,3.2173,3.0945,3.1251,3.1829,3.2572,3.3354,3.3932,3.4352,3.5677,3.6585,3.6619,3.7259,3.7814,3.8151,3.8259,3.8496,3.9118,3.9572,3.9873,4.0127,4.0654,4.1072,4.1067,4.1249,4.147,4.1521,4.1283,4.1089,4.1308,4.1711,4.2115,4.2196,4.2233,4.2303,4.2236,4.1982,4.1779,4.1745,4.1441,4.1111,4.0773,4.0646,4.057,4.018,4.0113,4.0113,4.0113,4.0113,4.0011,3.9622,3.9529,3.9469,4.0387,3.9882,3.9866,3.9866,3.9882,3.985,3.9866,3.985,0.0,0.0,0.0,3.9487,3.9487,3.9487,3.9487,3.9487,3.9487,3.9487,3.9487,3.9487,3.9487,3.9487,3.9503,3.969,3.9815,3.9799,3.997,3.9923,3.9799,3.9923,3.9892,3.9846,4.0076,4.0244,4.0226,3.9844,3.935,3.8768,3.8537,3.8391,3.8391,3.7825,3.7425,3.7295,3.6772,3.6231,3.5756,3.5201,3.4734,3.4355,3.3789,3.3408,3.3276,3.3282,3.3277,3.3312,3.3301,3.3384,3.3515,3.3654,3.3849,3.4105,3.4153,3.3946,3.3424,3.2967,3.3111,3.4037,3.4715,3.5351,3.5955,3.7246,3.8108,3.8091,3.821,3.8599,3.9276,3.9377,3.9868,4.0955,4.1182,4.1382,4.1768,4.1899,4.1966,4.1938,4.1976,4.1965,4.2088,4.2094,4.2127,4.2488,4.2705,4.2686,4.2699,4.2777,4.2692,4.2828,4.2642,4.2489,4.2472,4.2388,4.2049,4.1491,4.139,4.1085,4.0502,4.0367,4.0248,4.0113,4.0113,4.0113,4.0113,4.0096,4.0062,4.1251,4.1288,4.1288,4.1304,4.1337,4.1288,4.1304,4.1193,4.004,3.9487,3.9487,3.9487,3.9487,3.9487,3.9487,3.9487,3.9487,3.9487,3.9487,0.0,3.9487,3.9487,3.9503,3.969,3.9815,3.9815,3.9939,3.9923,3.9799,3.9815,3.9799,3.9815,3.983,3.9939,4.0046,4.0132,4.0126,4.0013,3.8982,3.8391,3.8391,3.8294,3.7938,3.7328,3.7198,3.6891,3.6293,3.6336,3.6408,3.6462,3.6447,3.6191,3.5578,3.5512,3.5335,3.4855,3.4904,3.5019,3.5178,3.5875,3.6563,3.7188,3.7256,3.6428,3.4513,3.48,3.5718,3.707,3.728,3.7449,3.7635,3.8362,3.8886,3.8903,3.9436,4.007,4.0764,4.0849,4.117,4.1972,4.2108,4.2088,4.2223,4.2656,4.2926,4.2925,4.3153,4.3667,4.363,4.3379,4.3323,4.385,4.412,4.4237,4.4096,4.4259,4.4141,4.4293,4.3639,4.3267,4.325,4.2828,4.2405,4.2151,4.2151,4.1847,4.1204,4.1052,4.0798,4.0383,4.0197,4.0163,4.0146,4.0113,4.0113,4.1357,4.1456,4.1555,4.1588,4.1588,4.1588,4.1588,4.1541,4.0909,4.064,4.064,4.0625,4.064,4.0625,4.0544,4.0463,4.0479,4.0397,4.038,4.038,4.0446,4.0479,4.0495,4.0688,4.0785,4.0801,4.0849,4.0849,4.0785,4.0785,4.0753,4.0785,4.0865,4.0992,4.1102,4.0876,4.0714,4.0713,3.9586,3.8974,3.8991,3.8602,3.8246,3.7922,3.7906,3.7621,3.7015,3.7106,3.7059,3.6915,3.6949,3.6861,3.6597,3.6605,3.6506,3.6296,3.6425,3.6551,3.6693,3.7125,3.7533,3.7889,3.7898,3.7669,3.7009,3.6891,3.7121,3.7855,3.8244,3.8497,3.8548,3.9512,4.0206,4.0189,4.0849,4.1433,4.1711,4.1796,4.2083,4.2743,4.2895,4.3037,4.3422,4.3676,4.3777,4.3754,4.4044,4.4253,4.431,4.4142,4.4063,4.4384,4.4525,4.457,4.4598,4.4598,4.4598,4.4598,4.4299,4.4079,4.4045,4.369,4.3369,4.2997,4.2912,4.2591,4.1948,4.1796,4.1474,4.0899,4.0696,4.0578,4.0265,4.0113,4.0113,4.1223,4.1272,4.1439,4.1505,4.1522,4.1588,4.1555,4.1522,4.1507,4.1522,4.1505,4.1538,4.1522,4.1522,4.1323,4.1272,4.1239,4.1135,4.1117,4.1117,4.1221,4.1256,4.1256,4.1456,4.1522,4.1555,4.1604,4.1588,4.1588,4.1588,4.1588,4.1637,4.1736,4.1866,4.1964,4.1502,4.1278,4.1198,4.0369,3.9793,3.9615,3.8937,3.8594,3.8577,3.8444,3.8188,3.7736,3.7731,3.7606,3.7295,3.7298,3.7402,3.7522,3.7548,3.7625,3.7794,3.7887,3.8011,3.8135,3.8233,3.8299,3.8316,3.8475,3.8837,3.9335,3.9116,3.8802,3.8751,3.9225,3.958,3.9884,4.073,4.1457,4.1491,4.1931,4.232,4.2506,4.253,4.2774,4.3449,4.3563,4.3799,4.4271,4.4338,4.4219,4.4202,4.4281,4.431,4.4338,4.4468,4.457,4.4598,4.4598,4.4598,4.4598,4.4598,4.4598,4.4598,4.4581,4.453,4.453,4.4564,4.4367,4.3809,4.369,4.3369,4.2743,4.2557,4.2252,4.1627,4.1441,4.1221,4.0561,4.0214,4.0113,4.0935,4.1117,4.1135,4.1221,4.1357,4.1522,4.1489,4.1357,4.1323,4.1239,4.1203,4.1272,4.1307,4.1323,4.1187,4.1102,4.1102,4.1117,4.1083,4.1083,4.1117,4.1117,4.1135,4.1272,4.1323,4.1357,4.1489,4.1588,4.1588,4.1588,4.1588,4.1588,4.1621,4.1654,4.1654,4.1738,4.1787,4.1819,4.1246,4.0621,3.9964,3.9411,3.913,3.913,3.8662,3.8375,3.8294,3.8435,3.8458,3.8465,3.8521,3.8674,3.8766,3.8826,3.896,3.9225,3.9268,3.9363,3.9486,3.9545,3.9571,3.9578,4.0245,4.065,4.0828,4.1439,4.1576,4.1052,4.095,4.1204,4.1907,4.21,4.2175,4.2158,4.2327,4.254,4.3111,4.3198,4.3401,4.4153,4.4056,4.4088,4.4167,4.4155,4.4126,4.4155,4.4224,4.4281,4.431,4.4412,4.4542,4.457,4.457,4.457,4.4598,4.4598,4.4598,4.4598,4.4598,4.4598,4.4598,4.4598,4.453,4.435,4.4367,4.4062,4.3606,4.3284,4.3047,4.2388,4.2117,4.1948,4.1238,4.0688,4.035,4.0833,4.0966,4.1034,4.1135,4.1187,4.1254,4.1254,4.1187,4.1203,4.1153,4.1102,4.1037,4.107,4.1171,4.0984,4.0916,4.0916,4.078,4.0746,4.0746,4.0848,4.0916,4.095,4.1086,4.1221,4.129,4.139,4.1489,4.1588,4.1588,4.1588,4.1588,4.1588,4.1588,4.1588,4.167,4.1719,4.1736,4.1531,4.1246,4.0896,4.0128,3.9674,3.9672,3.958,3.9298,3.8927,3.9039,3.8943,3.8637,3.8672,3.8738,3.8871,3.8887,3.8958,3.911,3.9669,4.0074,4.033,4.0749,4.1,4.1,4.1322,4.1516,4.1516,4.1856,4.2095,4.223,4.193,4.1866,4.2186,4.2503,4.2717,4.2785,4.3087,4.3491,4.3749,4.3742,4.3882,4.4133,4.4155,4.4097,4.4097,4.4097,4.4097,4.4097,4.4155,4.42,4.42,4.4241,4.4286,4.4315,4.4315,4.4384,4.4542,4.4598,4.4598,4.4598,4.4598,4.4598,4.457,4.4598,4.4598,4.4598,4.457,4.4485,4.4198,4.4062,4.3876,4.3183,4.2489,4.2185,4.1897,4.161,4.1288,4.073,4.078,4.1118,4.128,4.1296,4.1551,4.1629,4.156,4.156,4.1526,4.1507,4.1353,4.1388,4.141,4.0966,4.0715,4.0696,4.0558,4.0489,4.0524,4.0662,4.073,4.073,4.0916,4.1052,4.1171,4.1239,4.1339,4.1489,4.1522,4.1555,4.1588,4.1588,4.1588,4.1588,4.1588,4.1588,4.1588,4.1588,4.1588,4.1479,4.0833,4.037,4.0241,4.0203,3.9987,3.9519,3.9634,3.9541,3.915,3.9117,3.9186,3.9294,3.9311,3.9355,3.9444,4.0083,4.0591,4.0845,4.1355,4.1671,4.1727,4.1905,4.2094,4.2172,4.2378,4.2724,4.3171,4.2864,4.2635,4.2696,4.306,4.3288,4.3355,4.3813,4.4097,4.408,4.4085,4.4039,4.4039,4.3998,4.3952,4.3981,4.3952,4.3952,4.3923,4.4165,4.4311,4.439,4.457,4.4767,4.47,4.4733,4.462,4.4547,4.4429,4.4474,4.4474,4.4429,4.4429,4.4457,4.4457,4.4497,4.444,4.4485,4.4525,4.4434,4.4479,4.4479,4.3826,4.3166,4.2658,4.2608,4.2455,4.2083,4.0489,4.0682,4.1407,4.1775,4.1821,4.2587,4.2847,4.2612,4.2658,4.2613,4.2453,4.2469,4.2494,4.2376,4.1186,4.0555,4.057,4.0612,4.0628,4.0628,4.0616,4.0555,4.0539,4.0696,4.0864,4.0929,4.1034,4.1153,4.1307,4.1323,4.1423,4.1555,4.1555,4.1588,4.1555,4.1571,4.1588,4.1588,4.1588,4.1588,4.1588,4.1526,4.1244,4.0769,4.0322,4.0187,4.0196,4.0257,4.0282,4.0367,4.0348,4.0423,4.0557,4.0541,4.0613,4.0811,4.0905,4.0983,4.1012,4.114,4.1263,4.1379,4.2096,4.2543,4.2737,4.3318,4.3726,4.3985,4.3706,4.3689,4.3772,4.3772,4.3889,4.3934,4.4001,4.4068,4.4068,4.3939,4.391,4.3948,4.3929,4.3953,4.3774,4.3628,4.3807,4.3969,4.4394,4.4867,4.498,4.5554,4.5898,4.5979,4.5912,4.5691,4.4482,4.4368,4.4306,4.42,4.4229,4.4155,4.4126,4.4126,4.4196,4.4281,4.4327,4.4384,4.4542,4.4598,4.4553,4.4215,4.3809,4.3453,4.3386,4.276,4.2439,4.1463,4.1863,4.2196,4.2325,4.2356,4.2659,4.2731,4.268,4.2695,4.2659,4.2602,4.2617,4.2602,4.2571,4.1935,4.174,4.1812,4.1863,4.1863,4.1848,4.1863,4.1863,4.1817,4.1487,4.1361,4.1388,4.1084,4.0984,4.1153,4.1153,4.1187,4.1254,4.1288,4.1288,4.1288,4.1303,4.1321,4.139,4.1439,4.1456,4.1588,4.1588,4.1495,4.1339,4.123,4.104,4.0609,4.0842,4.0786,4.0395,4.0453,4.0526,4.0556,4.0586,4.0645,4.0828,4.1249,4.1539,4.1691,4.2097,4.2359,4.2436,4.2676,4.2884,4.301,4.3267,4.3446,4.3446,4.3416,4.3432,4.3476,4.3641,4.3776,4.3776,4.3776,4.3809,4.3776,4.3734,4.3883,4.4348,4.4702,4.5003,4.4889,4.4986,4.5003,4.5036,4.5313,4.546,4.5509,4.582,4.6084,4.5986,4.5984,4.5834,4.5402,4.495,4.4717,4.4281,4.4097,4.4131,4.4102,4.4085,4.4126,4.4155,4.4184,4.4212,4.4327,4.4412,4.444,4.4502,4.4085,4.4045,4.4164,4.3606,4.3318,4.2186,4.2602,4.2833,4.2925,4.294,4.3156,4.3233,4.3248,4.3248,4.3248,4.3233,4.3174,4.3137,4.3137,4.2936,4.2936,4.2965,4.2619,4.2441,4.2493,4.2477,4.2529,4.254,4.214,4.198,4.201,4.1608,4.1388,4.1342,4.1327,4.1252,4.1117,4.1117,4.1117,4.1117,4.1117,4.1169,4.1205,4.1239,4.1305,4.1439,4.1439,4.1472,4.1505,4.1637,4.1546,4.1167,4.139,4.1324,4.0984,4.101,4.1116,4.1177,4.1193,4.1223,4.1362,4.1799,4.2089,4.2244,4.2668,4.2959,4.3021,4.3021,4.3052,4.3096,4.3096,4.3096,4.3096,4.3113,4.3162,4.3438,4.3673,4.3696,4.3548,4.363,4.3779,4.3812,4.4026,4.4372,4.4818,4.5247,4.5575,4.5704,4.5671,4.5669,4.5798,4.5963,4.6129,4.6146,4.6378,4.6493,4.6493,4.6641,4.6525,4.6225,4.5918,4.5543,4.5093,4.444,4.4336,4.4248,4.4181,4.4048,4.4044,4.4056,4.4039,4.4126,4.4224,4.4338,4.4468,4.4485,4.4395,4.4479,4.453,4.4113,4.2633,4.2765,4.3347,4.3608,4.3701,4.4156,4.451,4.4418,4.4464,4.4334,4.4234,4.4251,4.4052,4.4136,4.386,4.3881,4.3647,4.2667,4.2256,4.2493,4.2447,4.2557,4.2713,4.2642,4.254,4.2546,4.2556,4.2278,4.1833,4.1806,4.1627,4.1252,4.1252,4.133,4.1177,4.1205,4.1146,4.118,4.113,4.1117,4.1117,4.1151,4.1187,4.1305,4.1323,4.1456,4.1769,4.1835,4.1868,4.1997,4.2157,4.2412,4.2393,4.2408,4.2522,4.2456,4.2538,4.2554,4.2585,4.2601,4.2728,4.2852,4.2899,4.2961,4.3005,4.3101,4.315,4.3182,4.3248,4.3459,4.4048,4.4179,4.4012,4.3375,4.3928,4.4256,4.4373,4.4865,4.5292,4.5357,4.552,4.5437,4.5532,4.5777,4.5891,4.6101,4.6495,4.6859,4.6892,4.7289,4.7802,4.7852,4.762,4.7322,4.7106,4.6858,4.6459,4.5978,4.523,4.4779,4.4643,4.4527,4.4238,4.4151,4.3931,4.3927,4.4027,4.4126,4.4207,4.4338,4.444,4.457,4.4598,4.4598,4.4598,4.322,4.3783,4.3998,4.4151,4.4279,4.4533,4.4549,4.4396,4.4381,4.432,4.4205,4.4127,4.4089,4.405,4.3871,4.3793,4.3762,4.3169,4.3066,4.3358,4.345,4.3472,4.3472,4.3234,4.2886,4.2642,4.2602,4.2509,4.2397,4.2335,4.2248,4.2144,4.2133,4.2149,4.2056,4.1701,4.1473,4.1534,4.1115,4.095,4.1083,4.1133,4.1117,4.1169,4.1153,4.127,4.1472,4.1752,4.1898,4.1947,4.2077,4.227,4.2445,4.2523,4.2602,4.2602,4.2602,4.2602,4.2602,4.2619,4.2666,4.2713,4.2729,4.2696,4.2808,4.3261,4.3505,4.3586,4.396,4.4399,4.4545,4.461,4.4593,4.4606,4.4817,4.4965,4.5047,4.5603,4.5996,4.6127,4.6504,4.6799,4.6832,4.6832,4.675,4.6865,4.7194,4.7391,4.7506,4.7687,4.7984,4.8001,4.7968,4.7886,4.7588,4.734,4.7142,4.6678,4.6015,4.5483,4.5268,4.4887,4.46,4.4301,4.4066,4.3926,4.401,4.4027,4.4126,4.4236,4.4338,4.4468,4.457,4.4598,4.4598,4.3685,4.4151,4.4166,4.4281,4.4396,4.4396,4.4335,4.4205,4.4166,4.4104,4.3988,4.391,4.3871,4.3832,4.3636,4.3557,4.3557,4.3369,4.3448,4.3738,4.3871,4.391,4.3942,4.3731,4.3471,4.3284,4.3229,4.3128,4.2987,4.2971,4.2833,4.2648,4.2602,4.2586,4.2586,4.2217,4.2042,4.2005,4.1701,4.1519,4.1639,4.1674,4.1693,4.1697,4.1479,4.1442,4.1599,4.1663,4.1719,4.1784,4.1947,4.2125,4.2381,4.2476,4.2539,4.2602,4.2602,4.2602,4.2619,4.2861,4.2991,4.3023,4.325,4.346,4.3524,4.3929,4.4107,4.4204,4.448,4.4901,4.5111,4.5176,4.5389,4.5847,4.562,4.5636,4.5848,4.6289,4.6533,4.6664,4.6957,4.7236,4.7369,4.7403,4.7403,4.747,4.7571,4.7621,4.7654,4.7721,4.7803,4.7803,4.777,4.777,4.7803,4.777,4.777,4.7308,4.6778,4.6412,4.6129,4.5566,4.5133,4.4934,4.4685,4.4367,4.4358,4.4047,4.3998,4.4126,4.4349,4.4395,4.4525,4.457,4.4598,4.3972,4.3988,4.3988,4.3988,4.4026,4.4026,4.4026,4.3988,4.3988,4.3949,4.3871,4.3754,4.3675,4.3596,4.3423,4.3344,4.3305,4.3344,4.3305,4.3423,4.3557,4.3754,4.3918,4.3897,4.3937,4.4075,4.4129,4.3945,4.3589,4.3596,4.3325,4.2888,4.2888,4.2771,4.2863,4.2725,4.2648,4.2684,4.2556,4.2484,4.2499,4.2546,4.2551,4.2653,4.2142,4.1938,4.2034,4.1868,4.1612,4.1636,4.1817,4.2061,4.2302,4.2397,4.2605,4.2749,4.2716,4.2861,4.2926,4.3443,4.3767,4.3816,4.4269,4.4787,4.4625,4.469,4.4836,4.4852,4.5014,4.5273,4.5743,4.5872,4.6181,4.6651,4.6264,4.6232,4.6765,4.6846,4.685,4.6864,4.6911,4.6996,4.7183,4.7183,4.7267,4.7369,4.7436,4.747,4.7504,4.7537,4.7504,4.7537,4.7604,4.7604,4.7671,4.7671,4.7671,4.7506,4.7144,4.6979,4.6745,4.6215,4.5649,4.5467,4.5301,4.4937,4.4652,4.4441,4.426,4.4403,4.451,4.4468,4.4468,4.457,4.4598,4.3581,4.3769,4.3754,4.3871,4.3988,4.4003,4.391,4.3808,4.3754,4.3675,4.3503,4.3409,4.3423,4.3369,4.3329,4.3305,4.3305,4.3305,4.3305,4.329,4.3369,4.3557,4.3714,4.3769,4.3886,4.4065,4.405,4.3997,4.3922,4.4014,4.3998,4.3891,4.3881,4.4018,4.4018,4.3541,4.3377,4.3285,4.2833,4.2648,4.2663,4.2663,4.2602,4.2607,4.2489,4.2438,4.2636,4.2782,4.238,4.1667,4.1784,4.1931,4.2172,4.2767,4.3202,4.3315,4.3848,4.4188,4.4221,4.4383,4.4496,4.4512,4.4771,4.4804,4.482,4.5257,4.5484,4.5646,4.5986,4.6358,4.6552,4.6568,4.6714,4.6795,4.6649,4.6617,4.6811,4.6911,4.6911,4.6911,4.6876,4.6911,4.6927,4.6996,4.6996,4.7064,4.7167,4.7285,4.7285,4.7352,4.7403,4.747,4.7504,4.7504,4.7504,4.7504,4.7504,4.7537,4.7373,4.7341,4.7111,4.6782,4.6251,4.5833,4.5814,4.5549,4.5268,4.5031,4.4963,4.4875,4.4578,4.4505,4.4553,4.4615,4.4598,4.3369,4.3542,4.3557,4.3581,4.3699,4.3699,4.3621,4.3557,4.3518,4.3478,4.3344,4.3305,4.3305,4.3305,4.3305,4.3305,4.3305,4.3305,4.3305,4.3305,4.3305,4.3384,4.3518,4.3518,4.3636,4.3871,4.3871,4.391,4.4011,4.4089,4.4166,4.412,4.4297,4.4396,4.4381,4.4135,4.3927,4.3941,4.3618,4.3433,4.3433,4.3433,4.3448,4.3371,4.3187,4.2983,4.2891,4.3027,4.2833,4.2512,4.2539,4.2689,4.282,4.3306,4.3777,4.391,4.4412,4.4672,4.4852,4.503,4.5208,4.5289,4.5435,4.5646,4.5793,4.605,4.6261,4.6326,4.6682,4.6862,4.6911,4.6911,4.6911,4.6876,4.6807,4.6807,4.6892,4.6807,4.6772,4.6738,4.6703,4.6649,4.6649,4.6719,4.6772,4.6823,4.6961,4.703,4.7098,4.7183,4.7251,4.7267,4.7285,4.7251,4.7251,4.7251,4.7251,4.7285,4.7319,4.7319,4.7323,4.7127,4.6979,4.6564,4.6412,4.6212,4.6013,4.581,4.5535,4.532,4.4875,4.4766,4.4946,4.4953,4.4886,4.3305,4.3305,4.3305,4.3305,4.3344,4.3305,4.3344,4.3305,4.3344,4.3344,4.3305,4.3305,4.3305,4.3305,4.3305,4.3305,4.3305,4.3305,4.3305,4.3305,4.3305,4.3344,4.3344,4.3344,4.3478,4.3636,4.3636,4.3754,4.3832,4.391,4.3949,4.3988,4.3988,4.4104,4.4243,4.4236,4.4381,4.4434,4.4365,4.4288,4.4326,4.4326,4.431,4.4286,4.3947,4.3522,4.3231,4.3169,4.3256,4.3545,4.3661,4.3614,4.3849,4.3963,4.4229,4.4531,4.4744,4.4958,4.5077,4.5611,4.5887,4.6018,4.6471,4.6911,4.6765,4.6765,4.6797,4.6747,4.6911,4.6876,4.6858,4.6842,4.6823,4.6789,4.6633,4.6668,4.6772,4.6668,4.6563,4.6563,4.6388,4.6333,4.6333,4.6423,4.6563,4.6563,4.6719,4.6754,4.6772,4.6876,4.6927,4.6927,4.6961,4.6961,4.6961,4.6961,4.6996,4.6996,4.703,4.7098,4.7319,4.7306,4.7522,4.7441,4.7125,4.6975,4.6957,4.6688,4.6267,4.6038,4.5741,4.5698,4.5672,4.5539,4.5478,4.3305,4.3305,4.3305,4.3305,4.3305,4.3305,4.3305,4.3305,4.3305,4.3305,4.3305,4.3305,4.3305,4.3305,4.3305,4.3305,4.3305,4.3305,4.3305,4.3305,4.3305,4.3305,4.3305,4.3305,4.3344,4.3384,4.3384,4.3423,4.3503,4.3675,4.3754,4.3754,4.3871,4.4026,4.4065,4.4065,4.4181,4.4335,4.4358,4.4473,4.4534,4.4572,4.4572,4.4556,4.444,4.4332,4.43,4.4366,4.4477,4.4361,4.3944,4.3689,4.3993,4.4465,4.4811,4.5027,4.553,4.5926,4.6148,4.6249,4.6496,4.6583,4.6696,4.6911,4.6911,4.6876,4.6892,4.6892,4.6911,4.6791,4.6703,4.6668,4.6615,4.6509,4.6404,4.6404,4.6404,4.6404,4.6369,4.6369,4.6298,4.6298,4.6262,4.6298,4.6369,4.6369,4.6404,4.6439,4.6509,4.6598,4.6633,4.6668,4.6719,4.6738,4.6772,4.6772,4.6842,4.6842,4.6892,4.6911,4.7132,4.7319,4.7487,4.7671,4.7754,4.7654,4.7488,4.7254,4.6754,4.6691,4.6639,4.6488,4.6351,4.6203,4.6003,4.3305,4.3305,4.3305,4.3305,4.3305,4.3305,4.3305,4.3305,4.3305,4.3305,4.3305,4.3305,4.3305,4.3305,4.3305,4.3305,4.3305,4.3305,4.3305,4.3305,4.3305,4.3305,4.3305,4.3305,4.3305,4.3319,4.3305,4.3305,4.3344,4.3438,4.3518,4.3518,4.3621,4.3699,4.3832,4.3832,4.3988,4.4143,4.4166,4.4243,4.4435,4.4473,4.4496,4.4572,4.461,4.461,4.4564,4.4655,4.4783,4.4725,4.4398,4.4225,4.4539,4.5053,4.5385,4.5603,4.5881,4.6262,4.6388,4.6458,4.6477,4.6615,4.6598,4.6598,4.6615,4.6615,4.6615,4.6615,4.6615,4.658,4.6458,4.6442,4.6404,4.6349,4.6243,4.6207,4.6207,4.6207,4.6223,4.6187,4.6116,4.608,4.608,4.6136,4.6187,4.6223,4.6298,4.6333,4.6369,4.6423,4.6423,4.6458,4.6545,4.658,4.6598,4.6633,4.6703,4.6772,4.6858,4.6892,4.6996,4.7217,4.7403,4.7588,4.7737,4.7886,4.7704,4.7487,4.7418,4.754,4.7491,4.7258,4.7025,4.6857,4.6599,4.3305,4.3305,4.3305,4.3305,4.3305,4.3305,4.3305,4.3305,4.3305,4.3305,4.3305,4.3305,4.3305,4.3319,4.3469,4.3484,4.3633,4.3678,4.3813,4.3853,4.3868,4.3828,4.3798,4.3783,4.3783,4.3589,4.3379,4.3319,4.3305,4.3305,4.3344,4.3344,4.3305,4.3463,4.3596,4.3636,4.3754,4.391,4.3949,4.4065,4.4258,4.4281,4.4396,4.4572,4.461,4.461,4.461,4.461,4.4685,4.4836,4.4874,4.5061,4.5336,4.5625,4.5844,4.5992,4.6008,4.6116,4.6243,4.6262,4.6262,4.6262,4.6298,4.6298,4.6333,4.6333,4.6369,4.6333,4.6333,4.6349,4.6278,4.6278,4.6278,4.6207,4.6116,4.6076,4.6076,4.606,4.606,4.6024,4.5988,4.5916,4.5916,4.5988,4.6024,4.606,4.6187,4.6243,4.6243,4.6278,4.6262,4.6298,4.6385,4.6439,4.6474,4.6474,4.6563,4.6668,4.6754,4.6807,4.6876,4.703,4.7251,4.747,4.7637,4.7803,4.7935,4.7819,4.7914,4.8271,4.8212,4.7852,4.7652,4.7483,4.7276,4.3305,4.3305,4.3305,4.3305,4.3305,4.3305,4.3305,4.3305,4.3305,4.3305,4.3305,4.3319,4.3349,4.3454,4.3917,4.4407,4.4706,4.4736,4.4796,4.4811,4.4796,4.4796,4.4736,4.4706,4.4811,4.4646,4.4022,4.3484,4.3424,4.3305,4.3529,4.3379,4.3409,4.3519,4.3534,4.3399,4.3698,4.3986,4.3995,4.4043,4.4239,4.4327,4.4465,4.4626,4.4633,4.461,4.461,4.461,4.461,4.4648,4.4799,4.4911,4.5092,4.5383,4.5688,4.5807,4.588,4.5952,4.6096,4.6132,4.6171,4.6262,4.6262,4.6262,4.6262,4.6262,4.6243,4.6243,4.6227,4.6243,4.6116,4.6195,4.6056,4.5968,4.6006,4.6002,4.595,4.5981,4.6013,4.6055,4.596,4.5807,4.5859,4.5859,4.5896,4.5916,4.5988,4.6008,4.6008,4.6044,4.6132,4.6187,4.6259,4.6314,4.6333,4.6333,4.6404,4.6528,4.6633,4.6738,4.6807,4.6876,4.7064,4.7319,4.7554,4.7721,4.7853,4.7968,4.8163,4.837,4.8364,4.8375,4.831,4.8189,4.8122,4.3305,4.3305,4.3305,4.3305,4.3305,4.3305,4.3305,4.3305,4.3305,4.3305,4.3409,4.3633,4.3798,4.4018,4.4541,4.502,4.5244,4.5289,4.5289,4.5289,4.5289,4.5289,4.5334,4.5319,4.5289,4.5125,4.4631,4.4332,4.4347,4.4377,4.4246,4.4362,4.4347,4.4347,4.4347,4.4407,4.4357,4.4494,4.4479,4.4599,4.4754,4.4843,4.4855,4.4872,4.4734,4.4587,4.461,4.461,4.461,4.461,4.4685,4.4814,4.5036,4.5372,4.5706,4.5714,4.5798,4.5839,4.5932,4.5952,4.5972,4.6008,4.6076,4.6044,4.6028,4.6028,4.6144,4.6076,4.6044,4.6008,4.5952,4.6269,4.6334,4.6281,4.6433,4.6548,4.652,4.6482,4.6457,4.6338,4.6103,4.5955,4.5807,4.5807,4.5807,4.5807,4.5823,4.5807,4.5807,4.588,4.6004,4.6024,4.606,4.608,4.6136,4.6171,4.6243,4.6369,4.6528,4.6633,4.6738,4.6842,4.6996,4.7251,4.7454,4.7688,4.7787,4.7902,4.8179,4.842,4.8416,4.8509,4.8796,4.89,4.8714,4.3305,4.3305,4.3305,4.3305,4.3305,4.3305,4.3305,4.3305,4.3305,4.3394,4.3574,4.4062,4.4377,4.4661,4.514,4.5574,4.5678,4.5753,4.5798,4.5828,4.5828,4.5753,4.5723,4.5693,4.5813,4.5933,4.5783,4.5544,4.514,4.511,4.5229,4.5125,4.5229,4.5289,4.5185,4.5065,4.5274,4.5289,4.5289,4.5413,4.5509,4.546,4.541,4.5465,4.5125,4.501,4.5141,4.5157,4.5141,4.5126,4.5118,4.5164,4.5325,4.5804,4.5988,4.5884,4.5997,4.6108,4.6192,4.6313,4.6476,4.6508,4.6313,4.6266,4.6297,4.6492,4.6381,4.6234,4.6297,4.636,4.6413,4.665,4.6758,4.6787,4.7056,4.7362,4.7153,4.7036,4.7012,4.6776,4.6385,4.6318,4.6402,4.6171,4.6234,4.606,4.606,4.5823,4.5807,4.5807,4.5844,4.5844,4.5844,4.5844,4.5916,4.5972,4.6044,4.6187,4.6369,4.6528,4.6668,4.6756,4.6961,4.7149,4.7403,4.7588,4.7688,4.7886,4.813,4.8324,4.8452,4.861,4.8877,4.9018,4.89,4.3305,4.3305,4.3305,4.3305,4.3305,4.3305,4.3305,4.3305,4.3305,4.3633,4.4122,4.4332,4.4691,4.5289,4.5918,4.6501,4.683,4.6875,4.683,4.68,4.6845,4.6845,4.698,4.7055,4.683,4.6785,4.689,4.6337,4.5768,4.5499,4.5394,4.5454,4.5514,4.5349,4.5574,4.5603,4.5289,4.5334,4.5364,4.5503,4.5653,4.5686,4.5814,4.6011,4.6033,4.6015,4.6072,4.6095,4.6142,4.6203,4.6265,4.6326,4.6451,4.6624,4.6725,4.6843,4.7059,4.7289,4.7217,4.7237,4.7312,4.7281,4.7391,4.7571,4.736,4.7328,4.7344,4.7656,4.7539,4.7322,4.7092,4.7321,4.7323,4.727,4.738,4.7434,4.731,4.7596,4.7573,4.7504,4.7208,4.7246,4.7323,4.6985,4.6661,4.6471,4.6266,4.6092,4.6029,4.6187,4.625,4.636,4.6392,4.6392,4.6266,4.6275,4.6154,4.6199,4.6291,4.6455,4.6563,4.6703,4.6842,4.7064,4.7285,4.7504,4.7654,4.7853,4.8098,4.8324,4.8452,4.869,4.8956,4.8987,4.9001,4.321,4.3305,4.3305,4.3305,4.3305,4.3305,4.3305,4.3305,4.3305,4.3663,4.4317,4.4736,4.5424,4.6292,4.68,4.701,4.7279,4.7309,4.7309,4.7309,4.7309,4.7309,4.7279,4.7294,4.7309,4.7309,4.7279,4.707,4.6501,4.6396,4.6441,4.6381,4.6396,4.6486,4.6292,4.6411,4.6456,4.6471,4.6456,4.6484,4.6449,4.6334,4.6275,4.6466,4.6392,4.64,4.6505,4.6548,4.6603,4.6603,4.6603,4.6603,4.6711,4.6991,4.7278,4.7349,4.796,4.7996,4.7473,4.7526,4.7596,4.7549,4.7565,4.7417,4.7502,4.7565,4.7581,4.7464,4.7502,4.7511,4.7559,4.7723,4.7762,4.7753,4.7814,4.7905,4.7911,4.7995,4.8109,4.8097,4.8084,4.8064,4.7989,4.7636,4.7341,4.7271,4.7145,4.7056,4.7056,4.7198,4.7214,4.7166,4.7182,4.7166,4.7008,4.6866,4.6634,4.6554,4.6347,4.6461,4.649,4.6598,4.695,4.7109,4.7317,4.7486,4.7604,4.782,4.8115,4.8292,4.8483,4.8721,4.8909,4.9018,4.9001,4.301,4.317,4.325,4.3305,4.3305,4.3305,4.3305,4.3319,4.3499,4.3917,4.4646,4.5424,4.6411,4.7085,4.7249,4.7264,4.7309,4.7309,4.7309,4.7309,4.7309,4.7309,4.7309,4.7309,4.7309,4.7309,4.7309,4.7219,4.7249,4.7219,4.716,4.7309,4.71,4.7189,4.7264,4.7189,4.713,4.713,4.7145,4.7174,4.7158,4.6899,4.6846,4.6776,4.6724,4.6651,4.6788,4.6971,4.7092,4.7188,4.7234,4.7296,4.7342,4.765,4.7875,4.7952,4.844,4.8422,4.7969,4.7824,4.7692,4.7731,4.7731,4.7973,4.7911,4.7731,4.7746,4.7957,4.7942,4.7856,4.7792,4.8228,4.8233,4.8329,4.8449,4.8589,4.8646,4.8471,4.8379,4.8358,4.8424,4.8645,4.8513,4.8214,4.8036,4.804,4.8029,4.7972,4.7956,4.7988,4.7846,4.7703,4.7672,4.7656,4.7561,4.7387,4.715,4.7019,4.6764,4.6837,4.7093,4.7239,4.7513,4.758,4.7561,4.7501,4.7702,4.7902,4.8099,4.8308,4.8515,4.8673,4.8846,4.894,4.9001,4.2729,4.2784,4.3145,4.3305,4.3305,4.3305,4.3305,4.331,4.3917,4.4545,4.5281,4.6429,4.6983,4.7251,4.7222,4.7222,4.7266,4.7309,4.7222,4.7266,4.7309,4.7266,4.7266,4.7266,4.7266,4.7309,4.7309,4.7309,4.7309,4.7309,4.7309,4.7309,4.7309,4.7309,4.7309,4.7309,4.7309,4.7309,4.7309,4.7309,4.7309,4.7233,4.7289,4.7417,4.7516,4.7686,4.8092,4.8007,4.8013,4.8163,4.8132,4.8189,4.8142,4.8281,4.8358,4.8419,4.8522,4.8502,4.8337,4.855,4.8985,4.9088,4.8954,4.8758,4.8655,4.8954,4.9072,4.886,4.8609,4.8708,4.8736,4.8872,4.8651,4.8584,4.8564,4.8569,4.862,4.8589,4.8527,4.8589,4.8661,4.8759,4.8898,4.8559,4.859,4.86,4.8597,4.8541,4.8399,4.8383,4.8225,4.8098,4.8051,4.8019,4.7988,4.7861,4.7798,4.771,4.758,4.7765,4.8077,4.8216,4.8058,4.8177,4.8144,4.7957,4.7882,4.8364,4.8663,4.8491,4.8547,4.8673,4.8846,4.897,4.9001,4.2581,4.2729,4.285,4.2945,4.2945,4.293,4.2945,4.3049,4.3656,4.4546,4.5554,4.6429,4.6858,4.6858,4.6858,4.6858,4.6858,4.6858,4.6917,4.6873,4.6858,4.6946,4.699,4.7077,4.7106,4.7251,4.7266,4.7309,4.7309,4.7266,4.7309,4.7309,4.7309,4.7309,4.7309,4.7309,4.7309,4.7309,4.7309,4.7309,4.7309,4.7309,4.7352,4.7396,4.7553,4.7666,4.7849,4.8145,4.8286,4.8412,4.8537,4.8563,4.8604,4.8604,4.8604,4.8604,4.8604,4.8604,4.8604,4.8785,4.8867,4.8867,4.8836,4.8908,4.8908,4.8893,4.8852,4.8836,4.8893,4.8867,4.8769,4.8728,4.8671,4.8604,4.8604,4.8604,4.8604,4.8604,4.8604,4.862,4.862,4.8661,4.8759,4.8852,4.9007,4.9157,4.9158,4.911,4.8968,4.8904,4.881,4.8778,4.8762,4.8841,4.8841,4.8699,4.8509,4.8444,4.8377,4.8551,4.8776,4.8577,4.8506,4.8661,4.8841,4.884,4.8917,4.9173,4.9177,4.8974,4.8782,4.8642,4.8815,4.9052,4.9032,4.2392,4.2514,4.2514,4.2581,4.2688,4.2688,4.2688,4.285,4.3632,4.4708,4.5916,4.6403,4.6594,4.6594,4.6594,4.6639,4.6639,4.6639,4.6639,4.6639,4.6683,4.6668,4.6756,4.6844,4.6902,4.7077,4.7077,4.7077,4.7164,4.7164,4.7222,4.7266,4.7309,4.7309,4.7309,4.7309,4.7309,4.7309,4.7309,4.7309,4.7309,4.7309,4.7309,4.7309,4.7439,4.7553,4.7709,4.7992,4.8202,4.8343,4.8453,4.8563,4.8604,4.8604,4.8604,4.8604,4.8604,4.8604,4.8604,4.8604,4.862,4.8646,4.8646,4.8604,4.8604,4.8604,4.8646,4.8646,4.8604,4.8604,4.8604,4.862,4.862,4.8604,4.8604,4.8604,4.8604,4.8604,4.8604,4.8604,4.862,4.862,4.8744,4.8924,4.9203,4.9416,4.9521,4.9497,4.9552,4.9521,4.9584,4.9584,4.9615,4.9726,4.9837,4.9457,4.9141,4.9173,4.9131,4.9149,4.9234,4.9117,4.913,4.9337,4.9557,4.9758,4.9756,4.9684,4.9543,4.9389,4.9266,4.9239,4.915,4.9357,4.9161,4.2133,4.2107,4.2133,4.2351,4.2662,4.2688,4.2718,4.2887,4.4005,4.5226,4.63,4.655,4.655,4.655,4.6506,4.6476,4.6506,4.6506,4.6521,4.6506,4.6462,4.655,4.6594,4.6594,4.6639,4.6639,4.6727,4.6815,4.6916,4.6931,4.7033,4.7179,4.7222,4.7266,4.7309,4.7309,4.7309,4.7309,4.7309,4.7309,4.7309,4.7309,4.7309,4.7309,4.7352,4.7439,4.7596,4.7794,4.8034,4.8244,4.8453,4.8521,4.8604,4.8604,4.8604,4.8604,4.8604,4.8604,4.8604,4.8604,4.8604,4.8604,4.8604,4.8604,4.8604,4.8604,4.8604,4.8604,4.8604,4.8604,4.8604,4.8604,4.8604,4.8604,4.8604,4.8604,4.8604,4.8604,4.8604,4.8604,4.862,4.862,4.8785,4.899,4.9316,4.9541,4.9741,4.9836,4.9876,4.9916,4.9916,4.9916,4.9916,4.9916,4.9916,4.9916,4.9789,4.9837,4.9844,4.9753,4.993,5.0057,5.0091,5.011,5.0306,5.0546,5.0298,5.0012,5.0307,5.0643,5.0182,5.0004,4.9881,4.9692,4.9517,4.2092,4.2092,4.2092,4.216,4.2284,4.2325,4.2544,4.3098,4.4209,4.5288,4.5974,4.6164,4.6105,4.615,4.615,4.6164,4.615,4.615,4.6105,4.615,4.6194,4.6239,4.6269,4.6358,4.6403,4.655,4.6594,4.6594,4.6712,4.6712,4.6712,4.6858,4.7033,4.7106,4.7251,4.7309,4.7309,4.7309,4.7309,4.7309,4.7309,4.7309,4.7309,4.7309,4.7309,4.7352,4.7439,4.7666,4.788,4.8091,4.8286,4.8453,4.8563,4.8563,4.8604,4.8604,4.8604,4.8604,4.8604,4.8604,4.8604,4.8604,4.8604,4.8604,4.8604,4.8604,4.8604,4.8604,4.8604,4.8604,4.8604,4.8604,4.8604,4.8604,4.8604,4.8604,4.8604,4.8604,4.8604,4.8604,4.8604,4.8718,4.8898,4.9072,4.9396,4.9597,4.9757,4.9836,4.9916,4.9916,4.9916,4.9916,4.9916,4.9916,4.9916,4.9916,4.9916,4.9884,5.0042,5.0197,5.0432,5.0666,5.0767,5.0628,5.101,5.1356,5.1177,5.1177,5.1808,5.2,5.1427,5.0931,5.0744,5.0403,5.004,4.2092,4.2092,4.2092,4.2092,4.2092,4.2092,4.2542,4.3427,4.4443,4.5256,4.5793,4.5925,4.5925,4.5925,4.588,4.588,4.588,4.588,4.588,4.588,4.5925,4.6015,4.6105,4.609,4.6194,4.6328,4.6373,4.6373,4.6447,4.6447,4.6535,4.6624,4.6712,4.6931,4.7121,4.7207,4.7309,4.7309,4.7309,4.7309,4.7309,4.7309,4.7309,4.7309,4.7309,4.7309,4.7337,4.751,4.7697,4.791,4.8164,4.8359,4.8526,4.8593,4.8578,4.8604,4.8604,4.8604,4.8604,4.8604,4.8604,4.8604,4.8604,4.8604,4.8604,4.8604,4.8604,4.8604,4.8604,4.8635,4.865,4.865,4.8681,4.8696,4.8681,4.8696,4.8666,4.8666,4.8604,4.8604,4.8646,4.88,4.8996,4.921,4.9477,4.9637,4.9757,4.9836,4.9916,4.9916,4.9916,4.9916,4.9916,4.9916,4.9916,4.9916,4.9916,4.9916,5.0129,5.0379,5.0534,5.0743,5.0972,5.1199,5.1406,5.1671,5.2079,5.2364,5.2564,5.2638,5.2472,5.2048,5.1675,5.1197,5.0667,4.2092,4.2092,4.2092,4.2092,4.2092,4.2223,4.2919,4.4008,4.4676,4.53,4.588,4.588,4.588,4.588,4.588,4.588,4.588,4.588,4.588,4.588,4.588,4.5925,4.5925,4.5925,4.6015,4.597,4.597,4.6135,4.621,4.6225,4.6314,4.6506,4.6535,4.6712,4.6887,4.7106,4.7222,4.7266,4.7309,4.7309,4.7309,4.7309,4.7309,4.7309,4.7309,4.7399,4.7472,4.7647,4.7763,4.7978,4.8219,4.837,4.8492,4.8587,4.8598,4.8727,4.8804,4.8881,4.8943,4.9004,4.8943,4.9066,4.8927,4.8758,4.8604,4.8604,4.8604,4.8604,4.8604,4.8681,4.8727,4.8789,4.885,4.885,4.8835,4.882,4.8773,4.8712,4.8635,4.8604,4.8646,4.88,4.9103,4.9372,4.9636,4.9677,4.9797,4.9836,4.9916,4.9916,4.9916,4.9916,4.9916,4.9916,4.9916,4.9916,4.9916,4.9916,5.0168,5.0473,5.0628,5.0765,5.0994,5.1258,5.1573,5.1888,5.2285,5.264,5.2886,5.2925,5.296,5.2876,5.2418,5.184,5.1363,4.2092,4.2092,4.2092,4.2092,4.2223,4.305,4.3689,4.411,4.5097,4.575,4.588,4.588,4.588,4.588,4.588,4.588,4.588,4.588,4.588,4.588,4.588,4.588,4.588,4.588,4.588,4.588,4.5925,4.5911,4.5956,4.6001,4.609,4.6269,4.6314,4.6447,4.6668,4.6887,4.7092,4.7296,4.7311,4.7354,4.7369,4.7399,4.7414,4.7459,4.7489,4.7638,4.7951,4.8085,4.8323,4.8918,4.9097,4.9317,4.9766,4.9809,4.9852,5.0097,5.0128,5.0128,5.0097,5.0082,5.0005,4.9912,4.9974,4.9389,4.9004,4.8743,4.8758,4.8881,4.8927,4.9066,4.9281,4.9389,4.9512,4.962,4.9543,4.9389,4.9312,4.9143,4.905,4.9072,4.9098,4.9269,4.954,4.9633,4.9866,4.9836,4.9836,4.9876,4.9916,4.9916,4.9916,4.9916,4.9916,4.9916,4.9916,4.9916,4.9916,4.9955,5.0262,5.0512,5.0612,5.0804,5.1032,5.1333,5.1647,5.2069,5.2499,5.2781,5.2989,5.3178,5.3213,5.323,5.3112,5.2518,5.2208,4.2092,4.2092,4.2092,4.2092,4.231,4.3456,4.4008,4.4226,4.5343,4.588,4.588,4.588,4.588,4.588,4.588,4.588,4.588,4.588,4.588,4.588,4.588,4.588,4.588,4.588,4.588,4.588,4.588,4.5925,4.588,4.594,4.603,4.606,4.609,4.6225,4.6403,4.6609,4.6992,4.7286,4.7431,4.746,4.7593,4.7713,4.7818,4.7982,4.8012,4.8297,4.8581,4.8671,4.9014,4.9434,4.9509,4.9687,5.0054,5.0127,5.0404,5.0546,5.059,5.0559,5.0543,5.059,5.0667,5.0713,5.0728,5.0266,4.9897,4.9635,4.962,4.962,4.9589,4.962,4.9866,5.0128,5.0359,5.059,5.0359,5.0112,4.9912,4.9697,4.9674,4.9696,4.9812,4.9967,5.0063,5.0124,5.0025,4.9931,4.9876,4.9876,4.9916,4.9916,4.9916,4.9916,4.9916,4.9916,4.9916,4.9916,4.9916,4.9995,5.0301,5.0534,5.065,5.088,5.1183,5.1462,5.1758,5.2194,5.2605,5.2764,5.2972,5.3195,5.3399,5.3366,5.3382,5.3245,5.3037,4.2092,4.2092,4.2092,4.215,4.2339,4.3485,4.4037,4.4197,4.5372,4.588,4.588,4.588,4.588,4.588,4.588,4.588,4.588,4.588,4.588,4.588,4.588,4.588,4.588,4.588,4.588,4.588,4.588,4.588,4.588,4.588,4.594,4.588,4.5925,4.6074,4.6399,4.6503,4.7036,4.7778,4.7851,4.788,4.8267,4.8446,4.8626,4.909,4.9179,4.9269,4.9344,4.9389,4.9419,4.9494,4.9644,4.9854,5.0109,5.0435,5.0743,5.0933,5.1115,5.1174,5.1205,5.1221,5.1113,5.1036,5.0851,5.0974,5.0913,5.0389,5.022,5.0205,5.0159,5.0359,5.062,5.0774,5.099,5.1144,5.1067,5.0867,5.0697,5.0463,5.0287,5.0352,5.0532,5.0715,5.0879,5.0932,5.0869,5.0397,5.0311,5.0342,5.0232,5.0232,5.0058,5.0042,4.9916,4.9916,4.9916,4.9916,4.9916,5.0034,5.034,5.0534,5.0628,5.0956,5.135,5.161,5.1868,5.2285,5.2711,5.2834,5.3007,5.3314,5.3467,5.3467,5.3517,5.3533,5.3613,4.2092,4.2092,4.2092,4.2353,4.2861,4.3645,4.4255,4.4719,4.5518,4.588,4.588,4.588,4.588,4.588,4.588,4.588,4.588,4.588,4.588,4.588,4.588,4.588,4.588,4.588,4.588,4.588,4.588,4.588,4.588,4.588,4.588,4.588,4.5938,4.6172,4.6581,4.6761,4.7414,4.8307,4.849,4.8626,4.903,4.906,4.9209,4.9359,4.9404,4.9673,4.9808,4.9956,5.0331,5.0677,5.0767,5.0951,5.1135,5.1531,5.1802,5.1907,5.1918,5.1977,5.2021,5.199,5.199,5.2098,5.2129,5.2206,5.1944,5.1174,5.0774,5.0774,5.0867,5.1128,5.1328,5.1451,5.1559,5.1667,5.1759,5.1621,5.1467,5.1246,5.1021,5.113,5.1327,5.1471,5.1637,5.1692,5.167,5.1606,5.1575,5.1496,5.1211,5.1069,5.0532,5.0374,4.9955,4.9892,4.9916,4.9916,4.9916,5.0089,5.034,5.0496,5.0628,5.107,5.1536,5.1721,5.2013,5.2393,5.2711,5.2834,5.3058,5.3399,5.3518,5.3518,5.3601,5.3667,5.3832,4.2092,4.2092,4.2092,4.244,4.305,4.3718,4.4327,4.4981,4.559,4.588,4.588,4.588,4.588,4.588,4.588,4.588,4.588,4.588,4.588,4.588,4.588,4.588,4.588,4.588,4.588,4.588,4.588,4.588,4.588,4.588,4.588,4.5953,4.6113,4.6505,4.6896,4.7253,4.789,4.8708,4.9046,4.9395,4.979,4.9822,4.9942,4.9972,5.0197,5.0391,5.0466,5.0629,5.0823,5.1109,5.1124,5.1264,5.1467,5.1682,5.2002,5.22,5.2365,5.2563,5.2669,5.2713,5.2713,5.2713,5.2713,5.2529,5.2529,5.1867,5.1836,5.1821,5.1821,5.2052,5.2082,5.2175,5.2206,5.2283,5.2298,5.2206,5.2188,5.2182,5.2172,5.2359,5.2496,5.2553,5.265,5.2465,5.2365,5.1875,5.1986,5.2096,5.1922,5.1843,5.1306,5.0832,5.0476,5.0034,4.9916,4.9916,4.9971,5.0129,5.0379,5.0612,5.088,5.1296,5.1721,5.1831,5.2033,5.2428,5.2676,5.2834,5.3093,5.3382,5.3467,5.3518,5.3635,5.3751,5.3899,4.2092,4.2092,4.2092,4.2513,4.3152,4.3732,4.44,4.5068,4.5619,4.588,4.588,4.588,4.588,4.588,4.588,4.588,4.588,4.588,4.588,4.588,4.588,4.588,4.588,4.588,4.588,4.588,4.588,4.588,4.588,4.6011,4.6171,4.6171,4.6534,4.7013,4.7216,4.7654,4.8392,4.9095,4.9628,5.0038,5.0332,5.0504,5.0704,5.099,5.1229,5.1229,5.1214,5.1167,5.1167,5.1214,5.1229,5.1308,5.1448,5.1634,5.1895,5.2124,5.2306,5.2457,5.2608,5.2713,5.2713,5.2713,5.2713,5.2713,5.2698,5.2667,5.2621,5.2621,5.2621,5.2621,5.2652,5.2667,5.2683,5.2698,5.2683,5.2667,5.2742,5.286,5.3095,5.3284,5.3377,5.3436,5.3391,5.3223,5.2934,5.2412,5.2238,5.227,5.2317,5.2349,5.2112,5.1638,5.1202,5.0729,5.0232,5.0121,5.024,5.0223,5.0457,5.0765,5.1108,5.1483,5.1704,5.1815,5.2106,5.2464,5.2694,5.2868,5.3127,5.3416,5.3467,5.3501,5.3601,5.3718,5.3899,4.2092,4.2092,4.2092,4.2731,4.3718,4.395,4.4647,4.5605,4.5793,4.588,4.588,4.588,4.588,4.588,4.588,4.588,4.588,4.588,4.588,4.588,4.588,4.588,4.588,4.588,4.588,4.588,4.588,4.5909,4.6098,4.6417,4.665,4.6693,4.7288,4.7811,4.8271,4.8624,4.8894,4.9541,5.0019,5.0404,5.0689,5.0877,5.1063,5.1199,5.1229,5.1229,5.1229,5.1229,5.1229,5.1229,5.1229,5.1261,5.1354,5.1509,5.1726,5.2002,5.2185,5.2412,5.2563,5.2669,5.2713,5.2713,5.2713,5.2713,5.2698,5.2698,5.2683,5.2683,5.2683,5.2683,5.2698,5.2698,5.2713,5.2713,5.2698,5.2698,5.2788,5.2951,5.3201,5.3406,5.3593,5.3746,5.3886,5.3787,5.3755,5.3408,5.3392,5.3392,5.3265,5.3107,5.287,5.2507,5.2049,5.1448,5.0927,5.0714,5.0675,5.0564,5.0534,5.088,5.1221,5.1557,5.1741,5.1904,5.2142,5.2464,5.2711,5.2903,5.3127,5.3382,5.3467,5.3501,5.3601,5.3701,5.3915]}]]